﻿<?xml version="1.0" encoding="utf-8" standalone="yes"?>
<gpx version="1.0" creator="CanWay - http://www.canwaygps.com" xmlns:xsi="http://www.w3.org/2001/XMLSchema-instance" xmlns="http://www.topografix.com/GPX/1/0" xsi:schemaLocation="http://www.topografix.com/GPX/1/0 http://www.topografix.com/GPX/1/0/gpx.xsd">
<time>2023-05-14T21:30:19Z</time>
<bounds minlat="47.216831" minlon="8.813240" maxlat="47.246470" maxlon="8.859550" />
<trk>
<name>Rüti ZH-Jona-Rapperswil</name>
<trkseg>
<trkpt lat="47.246470" lon="8.852509">
<ele>452.7</ele>
<time>2003-06-13T08:37:33Z</time>
<speed>0.0</speed>
</trkpt>
<trkpt lat="47.246458" lon="8.852492">
<ele>453.9</ele>
<time>2003-06-13T08:37:38Z</time>
<speed>0.0</speed>
</trkpt>
<trkpt lat="47.246458" lon="8.852492">
<ele>453.9</ele>
<time>2003-06-13T08:37:43Z</time>
<speed>0.0</speed>
</trkpt>
<trkpt lat="47.246458" lon="8.852492">
<ele>453.9</ele>
<time>2003-06-13T08:37:48Z</time>
<speed>0.0</speed>
</trkpt>
<trkpt lat="47.246458" lon="8.852492">
<ele>453.9</ele>
<time>2003-06-13T08:37:53Z</time>
<speed>0.0</speed>
</trkpt>
<trkpt lat="47.246458" lon="8.852492">
<ele>453.9</ele>
<time>2003-06-13T08:37:58Z</time>
<speed>0.0</speed>
</trkpt>
<trkpt lat="47.246458" lon="8.852492">
<ele>453.9</ele>
<time>2003-06-13T08:38:03Z</time>
<speed>0.0</speed>
</trkpt>
<trkpt lat="47.246458" lon="8.852492">
<ele>453.9</ele>
<time>2003-06-13T08:38:08Z</time>
<speed>0.0</speed>
</trkpt>
<trkpt lat="47.246458" lon="8.852494">
<ele>452.5</ele>
<time>2003-06-13T08:38:13Z</time>
<speed>0.3</speed>
</trkpt>
<trkpt lat="47.246469" lon="8.852445">
<ele>450.0</ele>
<time>2003-06-13T08:38:18Z</time>
<speed>0.6</speed>
</trkpt>
<trkpt lat="47.246466" lon="8.852404">
<ele>450.4</ele>
<time>2003-06-13T08:38:23Z</time>
<speed>0.8</speed>
</trkpt>
<trkpt lat="47.246436" lon="8.852357">
<ele>452.0</ele>
<time>2003-06-13T08:38:28Z</time>
<speed>0.8</speed>
</trkpt>
<trkpt lat="47.246404" lon="8.852364">
<ele>452.6</ele>
<time>2003-06-13T08:38:33Z</time>
<speed>0.0</speed>
</trkpt>
<trkpt lat="47.246404" lon="8.852364">
<ele>452.6</ele>
<time>2003-06-13T08:38:38Z</time>
<speed>0.0</speed>
</trkpt>
<trkpt lat="47.246404" lon="8.852364">
<ele>452.6</ele>
<time>2003-06-13T08:38:43Z</time>
<speed>0.0</speed>
</trkpt>
<trkpt lat="47.246404" lon="8.852364">
<ele>452.6</ele>
<time>2003-06-13T08:38:48Z</time>
<speed>0.0</speed>
</trkpt>
<trkpt lat="47.246403" lon="8.852377">
<ele>452.7</ele>
<time>2003-06-13T08:38:53Z</time>
<speed>0.3</speed>
</trkpt>
<trkpt lat="47.246403" lon="8.852377">
<ele>452.7</ele>
<time>2003-06-13T08:38:58Z</time>
<speed>0.0</speed>
</trkpt>
<trkpt lat="47.246403" lon="8.852377">
<ele>452.7</ele>
<time>2003-06-13T08:39:03Z</time>
<speed>0.0</speed>
</trkpt>
<trkpt lat="47.246403" lon="8.852377">
<ele>452.7</ele>
<time>2003-06-13T08:39:08Z</time>
<speed>0.0</speed>
</trkpt>
<trkpt lat="47.246403" lon="8.852377">
<ele>452.7</ele>
<time>2003-06-13T08:39:13Z</time>
<speed>0.0</speed>
</trkpt>
<trkpt lat="47.246403" lon="8.852377">
<ele>452.7</ele>
<time>2003-06-13T08:39:18Z</time>
<speed>0.0</speed>
</trkpt>
<trkpt lat="47.246403" lon="8.852377">
<ele>452.7</ele>
<time>2003-06-13T08:39:23Z</time>
<speed>0.0</speed>
</trkpt>
<trkpt lat="47.246403" lon="8.852377">
<ele>452.7</ele>
<time>2003-06-13T08:39:28Z</time>
<speed>0.0</speed>
</trkpt>
<trkpt lat="47.246403" lon="8.852377">
<ele>452.7</ele>
<time>2003-06-13T08:39:33Z</time>
<speed>0.0</speed>
</trkpt>
<trkpt lat="47.246403" lon="8.852377">
<ele>452.7</ele>
<time>2003-06-13T08:39:38Z</time>
<speed>0.0</speed>
</trkpt>
<trkpt lat="47.246403" lon="8.852377">
<ele>452.7</ele>
<time>2003-06-13T08:39:43Z</time>
<speed>0.0</speed>
</trkpt>
<trkpt lat="47.246403" lon="8.852377">
<ele>452.7</ele>
<time>2003-06-13T08:39:48Z</time>
<speed>0.0</speed>
</trkpt>
<trkpt lat="47.246388" lon="8.852401">
<ele>452.9</ele>
<time>2003-06-13T08:39:53Z</time>
<speed>0.3</speed>
</trkpt>
<trkpt lat="47.246348" lon="8.852421">
<ele>452.9</ele>
<time>2003-06-13T08:39:58Z</time>
<speed>0.3</speed>
</trkpt>
<trkpt lat="47.246313" lon="8.852454">
<ele>453.8</ele>
<time>2003-06-13T08:40:03Z</time>
<speed>0.8</speed>
</trkpt>
<trkpt lat="47.246259" lon="8.852483">
<ele>455.2</ele>
<time>2003-06-13T08:40:08Z</time>
<speed>0.8</speed>
</trkpt>
<trkpt lat="47.246217" lon="8.852529">
<ele>455.5</ele>
<time>2003-06-13T08:40:13Z</time>
<speed>0.8</speed>
</trkpt>
<trkpt lat="47.246177" lon="8.852564">
<ele>454.2</ele>
<time>2003-06-13T08:40:18Z</time>
<speed>0.8</speed>
</trkpt>
<trkpt lat="47.246122" lon="8.852608">
<ele>454.3</ele>
<time>2003-06-13T08:40:23Z</time>
<speed>1.1</speed>
</trkpt>
<trkpt lat="47.246069" lon="8.852639">
<ele>454.4</ele>
<time>2003-06-13T08:40:28Z</time>
<speed>0.8</speed>
</trkpt>
<trkpt lat="47.246008" lon="8.852683">
<ele>453.8</ele>
<time>2003-06-13T08:40:33Z</time>
<speed>1.1</speed>
</trkpt>
<trkpt lat="47.245954" lon="8.852715">
<ele>453.9</ele>
<time>2003-06-13T08:40:38Z</time>
<speed>0.8</speed>
</trkpt>
<trkpt lat="47.245902" lon="8.852732">
<ele>453.8</ele>
<time>2003-06-13T08:40:43Z</time>
<speed>0.6</speed>
</trkpt>
<trkpt lat="47.245837" lon="8.852733">
<ele>455.0</ele>
<time>2003-06-13T08:40:48Z</time>
<speed>1.1</speed>
</trkpt>
<trkpt lat="47.245787" lon="8.852710">
<ele>456.1</ele>
<time>2003-06-13T08:40:53Z</time>
<speed>0.6</speed>
</trkpt>
<trkpt lat="47.245724" lon="8.852700">
<ele>455.8</ele>
<time>2003-06-13T08:40:58Z</time>
<speed>0.8</speed>
</trkpt>
<trkpt lat="47.245666" lon="8.852701">
<ele>457.7</ele>
<time>2003-06-13T08:41:03Z</time>
<speed>1.4</speed>
</trkpt>
<trkpt lat="47.245618" lon="8.852747">
<ele>457.2</ele>
<time>2003-06-13T08:41:08Z</time>
<speed>1.1</speed>
</trkpt>
<trkpt lat="47.245574" lon="8.852823">
<ele>454.8</ele>
<time>2003-06-13T08:41:13Z</time>
<speed>0.8</speed>
</trkpt>
<trkpt lat="47.245538" lon="8.852884">
<ele>454.5</ele>
<time>2003-06-13T08:41:18Z</time>
<speed>0.8</speed>
</trkpt>
<trkpt lat="47.245502" lon="8.852948">
<ele>452.7</ele>
<time>2003-06-13T08:41:23Z</time>
<speed>0.8</speed>
</trkpt>
<trkpt lat="47.245464" lon="8.853022">
<ele>452.5</ele>
<time>2003-06-13T08:41:28Z</time>
<speed>1.4</speed>
</trkpt>
<trkpt lat="47.245428" lon="8.853083">
<ele>452.2</ele>
<time>2003-06-13T08:41:33Z</time>
<speed>0.8</speed>
</trkpt>
<trkpt lat="47.245392" lon="8.853129">
<ele>453.1</ele>
<time>2003-06-13T08:41:38Z</time>
<speed>0.8</speed>
</trkpt>
<trkpt lat="47.245356" lon="8.853190">
<ele>452.8</ele>
<time>2003-06-13T08:41:43Z</time>
<speed>0.8</speed>
</trkpt>
<trkpt lat="47.245326" lon="8.853238">
<ele>453.1</ele>
<time>2003-06-13T08:41:48Z</time>
<speed>0.8</speed>
</trkpt>
<trkpt lat="47.245296" lon="8.853300">
<ele>453.5</ele>
<time>2003-06-13T08:41:53Z</time>
<speed>0.8</speed>
</trkpt>
<trkpt lat="47.245267" lon="8.853348">
<ele>453.8</ele>
<time>2003-06-13T08:41:58Z</time>
<speed>0.8</speed>
</trkpt>
<trkpt lat="47.245236" lon="8.853409">
<ele>454.1</ele>
<time>2003-06-13T08:42:03Z</time>
<speed>0.8</speed>
</trkpt>
<trkpt lat="47.245200" lon="8.853455">
<ele>455.1</ele>
<time>2003-06-13T08:42:08Z</time>
<speed>0.6</speed>
</trkpt>
<trkpt lat="47.245178" lon="8.853505">
<ele>454.7</ele>
<time>2003-06-13T08:42:13Z</time>
<speed>0.8</speed>
</trkpt>
<trkpt lat="47.245149" lon="8.853540">
<ele>454.9</ele>
<time>2003-06-13T08:42:18Z</time>
<speed>0.3</speed>
</trkpt>
<trkpt lat="47.245120" lon="8.853588">
<ele>455.2</ele>
<time>2003-06-13T08:42:23Z</time>
<speed>0.8</speed>
</trkpt>
<trkpt lat="47.245085" lon="8.853637">
<ele>454.8</ele>
<time>2003-06-13T08:42:28Z</time>
<speed>0.8</speed>
</trkpt>
<trkpt lat="47.245060" lon="8.853698">
<ele>455.9</ele>
<time>2003-06-13T08:42:33Z</time>
<speed>1.1</speed>
</trkpt>
<trkpt lat="47.245023" lon="8.853757">
<ele>457.0</ele>
<time>2003-06-13T08:42:38Z</time>
<speed>1.1</speed>
</trkpt>
<trkpt lat="47.244994" lon="8.853805">
<ele>457.3</ele>
<time>2003-06-13T08:42:43Z</time>
<speed>0.8</speed>
</trkpt>
<trkpt lat="47.244971" lon="8.853855">
<ele>456.9</ele>
<time>2003-06-13T08:42:48Z</time>
<speed>0.6</speed>
</trkpt>
<trkpt lat="47.244971" lon="8.853855">
<ele>456.9</ele>
<time>2003-06-13T08:42:53Z</time>
<speed>0.0</speed>
</trkpt>
<trkpt lat="47.244957" lon="8.853879">
<ele>457.0</ele>
<time>2003-06-13T08:42:58Z</time>
<speed>0.8</speed>
</trkpt>
<trkpt lat="47.244921" lon="8.853927">
<ele>456.6</ele>
<time>2003-06-13T08:43:03Z</time>
<speed>0.8</speed>
</trkpt>
<trkpt lat="47.244885" lon="8.853989">
<ele>456.2</ele>
<time>2003-06-13T08:43:08Z</time>
<speed>1.1</speed>
</trkpt>
<trkpt lat="47.244849" lon="8.854037">
<ele>455.8</ele>
<time>2003-06-13T08:43:13Z</time>
<speed>1.1</speed>
</trkpt>
<trkpt lat="47.244801" lon="8.854083">
<ele>455.3</ele>
<time>2003-06-13T08:43:18Z</time>
<speed>1.1</speed>
</trkpt>
<trkpt lat="47.244759" lon="8.854129">
<ele>455.5</ele>
<time>2003-06-13T08:43:23Z</time>
<speed>1.1</speed>
</trkpt>
<trkpt lat="47.244716" lon="8.854188">
<ele>455.8</ele>
<time>2003-06-13T08:43:28Z</time>
<speed>1.1</speed>
</trkpt>
<trkpt lat="47.244680" lon="8.854249">
<ele>455.5</ele>
<time>2003-06-13T08:43:33Z</time>
<speed>0.8</speed>
</trkpt>
<trkpt lat="47.244644" lon="8.854297">
<ele>455.1</ele>
<time>2003-06-13T08:43:38Z</time>
<speed>1.1</speed>
</trkpt>
<trkpt lat="47.244609" lon="8.854346">
<ele>454.6</ele>
<time>2003-06-13T08:43:43Z</time>
<speed>1.1</speed>
</trkpt>
<trkpt lat="47.244573" lon="8.854407">
<ele>454.3</ele>
<time>2003-06-13T08:43:48Z</time>
<speed>1.1</speed>
</trkpt>
<trkpt lat="47.244543" lon="8.854470">
<ele>453.3</ele>
<time>2003-06-13T08:43:53Z</time>
<speed>1.1</speed>
</trkpt>
<trkpt lat="47.244512" lon="8.854546">
<ele>452.4</ele>
<time>2003-06-13T08:43:58Z</time>
<speed>1.1</speed>
</trkpt>
<trkpt lat="47.244482" lon="8.854609">
<ele>451.4</ele>
<time>2003-06-13T08:44:03Z</time>
<speed>1.1</speed>
</trkpt>
<trkpt lat="47.244458" lon="8.854673">
<ele>451.1</ele>
<time>2003-06-13T08:44:08Z</time>
<speed>0.8</speed>
</trkpt>
<trkpt lat="47.244422" lon="8.854734">
<ele>450.7</ele>
<time>2003-06-13T08:44:13Z</time>
<speed>0.8</speed>
</trkpt>
<trkpt lat="47.244384" lon="8.854808">
<ele>450.5</ele>
<time>2003-06-13T08:44:18Z</time>
<speed>1.1</speed>
</trkpt>
<trkpt lat="47.244354" lon="8.854869">
<ele>450.9</ele>
<time>2003-06-13T08:44:23Z</time>
<speed>1.1</speed>
</trkpt>
<trkpt lat="47.244322" lon="8.854944">
<ele>451.4</ele>
<time>2003-06-13T08:44:28Z</time>
<speed>1.1</speed>
</trkpt>
<trkpt lat="47.244291" lon="8.855018">
<ele>451.9</ele>
<time>2003-06-13T08:44:33Z</time>
<speed>1.4</speed>
</trkpt>
<trkpt lat="47.244255" lon="8.855079">
<ele>451.6</ele>
<time>2003-06-13T08:44:38Z</time>
<speed>1.1</speed>
</trkpt>
<trkpt lat="47.244224" lon="8.855155">
<ele>450.7</ele>
<time>2003-06-13T08:44:43Z</time>
<speed>0.8</speed>
</trkpt>
<trkpt lat="47.244205" lon="8.855231">
<ele>451.2</ele>
<time>2003-06-13T08:44:48Z</time>
<speed>0.8</speed>
</trkpt>
<trkpt lat="47.244187" lon="8.855310">
<ele>450.4</ele>
<time>2003-06-13T08:44:53Z</time>
<speed>1.1</speed>
</trkpt>
<trkpt lat="47.244180" lon="8.855388">
<ele>451.0</ele>
<time>2003-06-13T08:44:58Z</time>
<speed>0.8</speed>
</trkpt>
<trkpt lat="47.244206" lon="8.855470">
<ele>452.5</ele>
<time>2003-06-13T08:45:03Z</time>
<speed>0.8</speed>
</trkpt>
<trkpt lat="47.244206" lon="8.855549">
<ele>453.9</ele>
<time>2003-06-13T08:45:08Z</time>
<speed>0.8</speed>
</trkpt>
<trkpt lat="47.244219" lon="8.855631">
<ele>453.9</ele>
<time>2003-06-13T08:45:13Z</time>
<speed>1.1</speed>
</trkpt>
<trkpt lat="47.244252" lon="8.855702">
<ele>454.6</ele>
<time>2003-06-13T08:45:18Z</time>
<speed>0.8</speed>
</trkpt>
<trkpt lat="47.244290" lon="8.855789">
<ele>454.7</ele>
<time>2003-06-13T08:45:23Z</time>
<speed>1.1</speed>
</trkpt>
<trkpt lat="47.244311" lon="8.855860">
<ele>454.0</ele>
<time>2003-06-13T08:45:28Z</time>
<speed>0.8</speed>
</trkpt>
<trkpt lat="47.244331" lon="8.855932">
<ele>453.2</ele>
<time>2003-06-13T08:45:33Z</time>
<speed>0.8</speed>
</trkpt>
<trkpt lat="47.244358" lon="8.856003">
<ele>453.2</ele>
<time>2003-06-13T08:45:38Z</time>
<speed>0.6</speed>
</trkpt>
<trkpt lat="47.244373" lon="8.856059">
<ele>453.0</ele>
<time>2003-06-13T08:45:43Z</time>
<speed>0.8</speed>
</trkpt>
<trkpt lat="47.244392" lon="8.856142">
<ele>453.8</ele>
<time>2003-06-13T08:45:48Z</time>
<speed>0.6</speed>
</trkpt>
<trkpt lat="47.244438" lon="8.856215">
<ele>454.5</ele>
<time>2003-06-13T08:45:53Z</time>
<speed>0.8</speed>
</trkpt>
<trkpt lat="47.244463" lon="8.856297">
<ele>456.0</ele>
<time>2003-06-13T08:45:58Z</time>
<speed>0.8</speed>
</trkpt>
<trkpt lat="47.244501" lon="8.856382">
<ele>457.6</ele>
<time>2003-06-13T08:46:03Z</time>
<speed>0.6</speed>
</trkpt>
<trkpt lat="47.244534" lon="8.856455">
<ele>456.9</ele>
<time>2003-06-13T08:46:08Z</time>
<speed>0.8</speed>
</trkpt>
<trkpt lat="47.244552" lon="8.856553">
<ele>456.4</ele>
<time>2003-06-13T08:46:13Z</time>
<speed>1.1</speed>
</trkpt>
<trkpt lat="47.244567" lon="8.856622">
<ele>456.3</ele>
<time>2003-06-13T08:46:18Z</time>
<speed>0.8</speed>
</trkpt>
<trkpt lat="47.244587" lon="8.856693">
<ele>455.5</ele>
<time>2003-06-13T08:46:23Z</time>
<speed>0.8</speed>
</trkpt>
<trkpt lat="47.244601" lon="8.856761">
<ele>456.8</ele>
<time>2003-06-13T08:46:28Z</time>
<speed>0.8</speed>
</trkpt>
<trkpt lat="47.244602" lon="8.856826">
<ele>458.1</ele>
<time>2003-06-13T08:46:33Z</time>
<speed>0.6</speed>
</trkpt>
<trkpt lat="47.244598" lon="8.856878">
<ele>458.5</ele>
<time>2003-06-13T08:46:38Z</time>
<speed>0.6</speed>
</trkpt>
<trkpt lat="47.244567" lon="8.856954">
<ele>457.6</ele>
<time>2003-06-13T08:46:43Z</time>
<speed>0.8</speed>
</trkpt>
<trkpt lat="47.244543" lon="8.857017">
<ele>457.3</ele>
<time>2003-06-13T08:46:48Z</time>
<speed>0.8</speed>
</trkpt>
<trkpt lat="47.244513" lon="8.857083">
<ele>454.9</ele>
<time>2003-06-13T08:46:53Z</time>
<speed>0.8</speed>
</trkpt>
<trkpt lat="47.244491" lon="8.857133">
<ele>454.5</ele>
<time>2003-06-13T08:46:58Z</time>
<speed>0.6</speed>
</trkpt>
<trkpt lat="47.244455" lon="8.857181">
<ele>454.1</ele>
<time>2003-06-13T08:47:03Z</time>
<speed>0.8</speed>
</trkpt>
<trkpt lat="47.244408" lon="8.857229">
<ele>452.2</ele>
<time>2003-06-13T08:47:08Z</time>
<speed>0.8</speed>
</trkpt>
<trkpt lat="47.244373" lon="8.857264">
<ele>451.6</ele>
<time>2003-06-13T08:47:13Z</time>
<speed>0.8</speed>
</trkpt>
<trkpt lat="47.244326" lon="8.857295">
<ele>452.4</ele>
<time>2003-06-13T08:47:18Z</time>
<speed>0.8</speed>
</trkpt>
<trkpt lat="47.244278" lon="8.857341">
<ele>451.9</ele>
<time>2003-06-13T08:47:23Z</time>
<speed>1.1</speed>
</trkpt>
<trkpt lat="47.244231" lon="8.857374">
<ele>451.3</ele>
<time>2003-06-13T08:47:28Z</time>
<speed>0.8</speed>
</trkpt>
<trkpt lat="47.244184" lon="8.857407">
<ele>450.7</ele>
<time>2003-06-13T08:47:33Z</time>
<speed>0.8</speed>
</trkpt>
<trkpt lat="47.244143" lon="8.857440">
<ele>450.8</ele>
<time>2003-06-13T08:47:38Z</time>
<speed>0.8</speed>
</trkpt>
<trkpt lat="47.244106" lon="8.857502">
<ele>450.5</ele>
<time>2003-06-13T08:47:43Z</time>
<speed>1.1</speed>
</trkpt>
<trkpt lat="47.244093" lon="8.857593">
<ele>450.5</ele>
<time>2003-06-13T08:47:48Z</time>
<speed>0.8</speed>
</trkpt>
<trkpt lat="47.244098" lon="8.857686">
<ele>451.3</ele>
<time>2003-06-13T08:47:53Z</time>
<speed>1.1</speed>
</trkpt>
<trkpt lat="47.244118" lon="8.857769">
<ele>452.0</ele>
<time>2003-06-13T08:47:58Z</time>
<speed>0.8</speed>
</trkpt>
<trkpt lat="47.244129" lon="8.857862">
<ele>453.6</ele>
<time>2003-06-13T08:48:03Z</time>
<speed>0.8</speed>
</trkpt>
<trkpt lat="47.244141" lon="8.857940">
<ele>456.4</ele>
<time>2003-06-13T08:48:08Z</time>
<speed>0.8</speed>
</trkpt>
<trkpt lat="47.244167" lon="8.858025">
<ele>456.5</ele>
<time>2003-06-13T08:48:13Z</time>
<speed>1.1</speed>
</trkpt>
<trkpt lat="47.244193" lon="8.858109">
<ele>456.6</ele>
<time>2003-06-13T08:48:18Z</time>
<speed>0.8</speed>
</trkpt>
<trkpt lat="47.244218" lon="8.858192">
<ele>458.0</ele>
<time>2003-06-13T08:48:23Z</time>
<speed>0.8</speed>
</trkpt>
<trkpt lat="47.244238" lon="8.858261">
<ele>458.7</ele>
<time>2003-06-13T08:48:28Z</time>
<speed>0.8</speed>
</trkpt>
<trkpt lat="47.244265" lon="8.858334">
<ele>457.3</ele>
<time>2003-06-13T08:48:33Z</time>
<speed>0.8</speed>
</trkpt>
<trkpt lat="47.244271" lon="8.858428">
<ele>458.1</ele>
<time>2003-06-13T08:48:38Z</time>
<speed>0.8</speed>
</trkpt>
<trkpt lat="47.244285" lon="8.858495">
<ele>459.4</ele>
<time>2003-06-13T08:48:43Z</time>
<speed>0.8</speed>
</trkpt>
<trkpt lat="47.244286" lon="8.858562">
<ele>459.2</ele>
<time>2003-06-13T08:48:48Z</time>
<speed>0.6</speed>
</trkpt>
<trkpt lat="47.244280" lon="8.858643">
<ele>458.5</ele>
<time>2003-06-13T08:48:53Z</time>
<speed>0.8</speed>
</trkpt>
<trkpt lat="47.244255" lon="8.858719">
<ele>458.3</ele>
<time>2003-06-13T08:48:58Z</time>
<speed>0.8</speed>
</trkpt>
<trkpt lat="47.244232" lon="8.858786">
<ele>455.2</ele>
<time>2003-06-13T08:49:03Z</time>
<speed>1.1</speed>
</trkpt>
<trkpt lat="47.244196" lon="8.858849">
<ele>453.5</ele>
<time>2003-06-13T08:49:08Z</time>
<speed>1.1</speed>
</trkpt>
<trkpt lat="47.244160" lon="8.858911">
<ele>453.1</ele>
<time>2003-06-13T08:49:13Z</time>
<speed>0.8</speed>
</trkpt>
<trkpt lat="47.244124" lon="8.858972">
<ele>452.8</ele>
<time>2003-06-13T08:49:18Z</time>
<speed>1.1</speed>
</trkpt>
<trkpt lat="47.244101" lon="8.859039">
<ele>449.7</ele>
<time>2003-06-13T08:49:23Z</time>
<speed>0.8</speed>
</trkpt>
<trkpt lat="47.244076" lon="8.859115">
<ele>449.5</ele>
<time>2003-06-13T08:49:28Z</time>
<speed>0.8</speed>
</trkpt>
<trkpt lat="47.244075" lon="8.859209">
<ele>449.6</ele>
<time>2003-06-13T08:49:33Z</time>
<speed>0.8</speed>
</trkpt>
<trkpt lat="47.244082" lon="8.859291">
<ele>448.9</ele>
<time>2003-06-13T08:49:38Z</time>
<speed>0.6</speed>
</trkpt>
<trkpt lat="47.244091" lon="8.859345">
<ele>449.4</ele>
<time>2003-06-13T08:49:43Z</time>
<speed>0.3</speed>
</trkpt>
<trkpt lat="47.244100" lon="8.859402">
<ele>448.4</ele>
<time>2003-06-13T08:49:48Z</time>
<speed>0.6</speed>
</trkpt>
<trkpt lat="47.244083" lon="8.859469">
<ele>446.1</ele>
<time>2003-06-13T08:49:53Z</time>
<speed>0.8</speed>
</trkpt>
<trkpt lat="47.244067" lon="8.859506">
<ele>446.3</ele>
<time>2003-06-13T08:49:58Z</time>
<speed>0.6</speed>
</trkpt>
<trkpt lat="47.244034" lon="8.859528">
<ele>445.7</ele>
<time>2003-06-13T08:50:03Z</time>
<speed>0.6</speed>
</trkpt>
<trkpt lat="47.243994" lon="8.859550">
<ele>444.3</ele>
<time>2003-06-13T08:50:08Z</time>
<speed>0.8</speed>
</trkpt>
<trkpt lat="47.243950" lon="8.859544">
<ele>443.4</ele>
<time>2003-06-13T08:50:13Z</time>
<speed>0.6</speed>
</trkpt>
<trkpt lat="47.243899" lon="8.859534">
<ele>444.5</ele>
<time>2003-06-13T08:50:18Z</time>
<speed>0.6</speed>
</trkpt>
<trkpt lat="47.243887" lon="8.859517">
<ele>445.8</ele>
<time>2003-06-13T08:50:23Z</time>
<speed>0.3</speed>
</trkpt>
<trkpt lat="47.243850" lon="8.859497">
<ele>445.5</ele>
<time>2003-06-13T08:50:28Z</time>
<speed>0.6</speed>
</trkpt>
<trkpt lat="47.243819" lon="8.859476">
<ele>447.3</ele>
<time>2003-06-13T08:50:33Z</time>
<speed>0.3</speed>
</trkpt>
<trkpt lat="47.243795" lon="8.859459">
<ele>447.1</ele>
<time>2003-06-13T08:50:38Z</time>
<speed>0.3</speed>
</trkpt>
<trkpt lat="47.243771" lon="8.859442">
<ele>446.8</ele>
<time>2003-06-13T08:50:43Z</time>
<speed>0.3</speed>
</trkpt>
<trkpt lat="47.243736" lon="8.859397">
<ele>446.3</ele>
<time>2003-06-13T08:50:48Z</time>
<speed>0.6</speed>
</trkpt>
<trkpt lat="47.243701" lon="8.859350">
<ele>447.2</ele>
<time>2003-06-13T08:50:53Z</time>
<speed>0.8</speed>
</trkpt>
<trkpt lat="47.243652" lon="8.859315">
<ele>446.8</ele>
<time>2003-06-13T08:50:58Z</time>
<speed>0.8</speed>
</trkpt>
<trkpt lat="47.243626" lon="8.859246">
<ele>445.4</ele>
<time>2003-06-13T08:51:03Z</time>
<speed>0.3</speed>
</trkpt>
<trkpt lat="47.243621" lon="8.859218">
<ele>445.9</ele>
<time>2003-06-13T08:51:08Z</time>
<speed>0.3</speed>
</trkpt>
<trkpt lat="47.243612" lon="8.859177">
<ele>445.5</ele>
<time>2003-06-13T08:51:13Z</time>
<speed>0.0</speed>
</trkpt>
<trkpt lat="47.243614" lon="8.859151">
<ele>445.3</ele>
<time>2003-06-13T08:51:18Z</time>
<speed>0.0</speed>
</trkpt>
<trkpt lat="47.243615" lon="8.859122">
<ele>446.5</ele>
<time>2003-06-13T08:51:23Z</time>
<speed>0.3</speed>
</trkpt>
<trkpt lat="47.243617" lon="8.859096">
<ele>446.3</ele>
<time>2003-06-13T08:51:28Z</time>
<speed>0.3</speed>
</trkpt>
<trkpt lat="47.243601" lon="8.859053">
<ele>446.5</ele>
<time>2003-06-13T08:51:33Z</time>
<speed>0.0</speed>
</trkpt>
<trkpt lat="47.243577" lon="8.859036">
<ele>446.3</ele>
<time>2003-06-13T08:51:38Z</time>
<speed>0.0</speed>
</trkpt>
<trkpt lat="47.243572" lon="8.859023">
<ele>445.5</ele>
<time>2003-06-13T08:51:43Z</time>
<speed>0.3</speed>
</trkpt>
<trkpt lat="47.243575" lon="8.858984">
<ele>445.2</ele>
<time>2003-06-13T08:51:48Z</time>
<speed>0.3</speed>
</trkpt>
<trkpt lat="47.243569" lon="8.858969">
<ele>445.7</ele>
<time>2003-06-13T08:51:53Z</time>
<speed>0.3</speed>
</trkpt>
<trkpt lat="47.243570" lon="8.858956">
<ele>445.6</ele>
<time>2003-06-13T08:51:58Z</time>
<speed>0.0</speed>
</trkpt>
<trkpt lat="47.243565" lon="8.858941">
<ele>446.2</ele>
<time>2003-06-13T08:52:03Z</time>
<speed>0.0</speed>
</trkpt>
<trkpt lat="47.243573" lon="8.858914">
<ele>446.7</ele>
<time>2003-06-13T08:52:08Z</time>
<speed>0.3</speed>
</trkpt>
<trkpt lat="47.243586" lon="8.858901">
<ele>448.1</ele>
<time>2003-06-13T08:52:13Z</time>
<speed>0.0</speed>
</trkpt>
<trkpt lat="47.243582" lon="8.858873">
<ele>448.5</ele>
<time>2003-06-13T08:52:18Z</time>
<speed>0.3</speed>
</trkpt>
<trkpt lat="47.243566" lon="8.858832">
<ele>447.4</ele>
<time>2003-06-13T08:52:23Z</time>
<speed>0.6</speed>
</trkpt>
<trkpt lat="47.243561" lon="8.858741">
<ele>445.2</ele>
<time>2003-06-13T08:52:28Z</time>
<speed>0.8</speed>
</trkpt>
<trkpt lat="47.243524" lon="8.858641">
<ele>445.0</ele>
<time>2003-06-13T08:52:33Z</time>
<speed>1.1</speed>
</trkpt>
<trkpt lat="47.243503" lon="8.858570">
<ele>445.7</ele>
<time>2003-06-13T08:52:38Z</time>
<speed>0.8</speed>
</trkpt>
<trkpt lat="47.243487" lon="8.858527">
<ele>446.0</ele>
<time>2003-06-13T08:52:44Z</time>
<speed>0.3</speed>
</trkpt>
<trkpt lat="47.243471" lon="8.858483">
<ele>446.3</ele>
<time>2003-06-13T08:52:49Z</time>
<speed>0.6</speed>
</trkpt>
<trkpt lat="47.243454" lon="8.858455">
<ele>445.3</ele>
<time>2003-06-13T08:52:54Z</time>
<speed>0.6</speed>
</trkpt>
<trkpt lat="47.243412" lon="8.858421">
<ele>445.6</ele>
<time>2003-06-13T08:52:59Z</time>
<speed>1.1</speed>
</trkpt>
<trkpt lat="47.243353" lon="8.858344">
<ele>446.1</ele>
<time>2003-06-13T08:53:04Z</time>
<speed>1.1</speed>
</trkpt>
<trkpt lat="47.243293" lon="8.858277">
<ele>448.2</ele>
<time>2003-06-13T08:53:09Z</time>
<speed>0.8</speed>
</trkpt>
<trkpt lat="47.243258" lon="8.858230">
<ele>449.1</ele>
<time>2003-06-13T08:53:14Z</time>
<speed>0.8</speed>
</trkpt>
<trkpt lat="47.243217" lon="8.858183">
<ele>449.3</ele>
<time>2003-06-13T08:53:19Z</time>
<speed>0.8</speed>
</trkpt>
<trkpt lat="47.243188" lon="8.858137">
<ele>449.5</ele>
<time>2003-06-13T08:53:24Z</time>
<speed>0.6</speed>
</trkpt>
<trkpt lat="47.243160" lon="8.858079">
<ele>449.6</ele>
<time>2003-06-13T08:53:29Z</time>
<speed>0.6</speed>
</trkpt>
<trkpt lat="47.243121" lon="8.858006">
<ele>449.6</ele>
<time>2003-06-13T08:53:34Z</time>
<speed>0.6</speed>
</trkpt>
<trkpt lat="47.243078" lon="8.857910">
<ele>445.8</ele>
<time>2003-06-13T08:53:39Z</time>
<speed>0.8</speed>
</trkpt>
<trkpt lat="47.243028" lon="8.857822">
<ele>445.6</ele>
<time>2003-06-13T08:53:44Z</time>
<speed>0.8</speed>
</trkpt>
<trkpt lat="47.242996" lon="8.857737">
<ele>444.8</ele>
<time>2003-06-13T08:53:49Z</time>
<speed>0.6</speed>
</trkpt>
<trkpt lat="47.242963" lon="8.857666">
<ele>444.1</ele>
<time>2003-06-13T08:53:54Z</time>
<speed>0.8</speed>
</trkpt>
<trkpt lat="47.242922" lon="8.857619">
<ele>444.2</ele>
<time>2003-06-13T08:53:59Z</time>
<speed>1.1</speed>
</trkpt>
<trkpt lat="47.242860" lon="8.857580">
<ele>445.1</ele>
<time>2003-06-13T08:54:04Z</time>
<speed>0.8</speed>
</trkpt>
<trkpt lat="47.242823" lon="8.857544">
<ele>447.5</ele>
<time>2003-06-13T08:54:09Z</time>
<speed>0.3</speed>
</trkpt>
<trkpt lat="47.242792" lon="8.857523">
<ele>449.4</ele>
<time>2003-06-13T08:54:14Z</time>
<speed>0.3</speed>
</trkpt>
<trkpt lat="47.242744" lon="8.857474">
<ele>450.2</ele>
<time>2003-06-13T08:54:19Z</time>
<speed>0.8</speed>
</trkpt>
<trkpt lat="47.242696" lon="8.857439">
<ele>449.7</ele>
<time>2003-06-13T08:54:24Z</time>
<speed>1.1</speed>
</trkpt>
<trkpt lat="47.242693" lon="8.857385">
<ele>450.0</ele>
<time>2003-06-13T08:54:29Z</time>
<speed>0.8</speed>
</trkpt>
<trkpt lat="47.242724" lon="8.857309">
<ele>450.9</ele>
<time>2003-06-13T08:54:34Z</time>
<speed>1.1</speed>
</trkpt>
<trkpt lat="47.242735" lon="8.857242">
<ele>452.5</ele>
<time>2003-06-13T08:54:39Z</time>
<speed>0.8</speed>
</trkpt>
<trkpt lat="47.242732" lon="8.857201">
<ele>452.9</ele>
<time>2003-06-13T08:54:44Z</time>
<speed>0.6</speed>
</trkpt>
<trkpt lat="47.242728" lon="8.857159">
<ele>453.2</ele>
<time>2003-06-13T08:54:49Z</time>
<speed>0.3</speed>
</trkpt>
<trkpt lat="47.242738" lon="8.857107">
<ele>453.5</ele>
<time>2003-06-13T08:54:54Z</time>
<speed>0.3</speed>
</trkpt>
<trkpt lat="47.242730" lon="8.857038">
<ele>454.4</ele>
<time>2003-06-13T08:54:59Z</time>
<speed>0.3</speed>
</trkpt>
<trkpt lat="47.242734" lon="8.856984">
<ele>455.4</ele>
<time>2003-06-13T08:55:04Z</time>
<speed>0.3</speed>
</trkpt>
<trkpt lat="47.242745" lon="8.856916">
<ele>457.0</ele>
<time>2003-06-13T08:55:09Z</time>
<speed>0.6</speed>
</trkpt>
<trkpt lat="47.242736" lon="8.856845">
<ele>459.2</ele>
<time>2003-06-13T08:55:14Z</time>
<speed>0.6</speed>
</trkpt>
<trkpt lat="47.242725" lon="8.856752">
<ele>457.7</ele>
<time>2003-06-13T08:55:19Z</time>
<speed>0.6</speed>
</trkpt>
<trkpt lat="47.242714" lon="8.856645">
<ele>456.0</ele>
<time>2003-06-13T08:55:24Z</time>
<speed>0.8</speed>
</trkpt>
<trkpt lat="47.242713" lon="8.856563">
<ele>457.5</ele>
<time>2003-06-13T08:55:29Z</time>
<speed>0.8</speed>
</trkpt>
<trkpt lat="47.242700" lon="8.856478">
<ele>458.9</ele>
<time>2003-06-13T08:55:34Z</time>
<speed>0.6</speed>
</trkpt>
<trkpt lat="47.242638" lon="8.856379">
<ele>455.7</ele>
<time>2003-06-13T08:55:39Z</time>
<speed>0.8</speed>
</trkpt>
<trkpt lat="47.242606" lon="8.856295">
<ele>454.9</ele>
<time>2003-06-13T08:55:44Z</time>
<speed>0.6</speed>
</trkpt>
<trkpt lat="47.242573" lon="8.856223">
<ele>454.1</ele>
<time>2003-06-13T08:55:49Z</time>
<speed>0.6</speed>
</trkpt>
<trkpt lat="47.242533" lon="8.856163">
<ele>454.2</ele>
<time>2003-06-13T08:55:54Z</time>
<speed>0.8</speed>
</trkpt>
<trkpt lat="47.242494" lon="8.856089">
<ele>454.2</ele>
<time>2003-06-13T08:55:59Z</time>
<speed>0.8</speed>
</trkpt>
<trkpt lat="47.242459" lon="8.856029">
<ele>455.0</ele>
<time>2003-06-13T08:56:04Z</time>
<speed>0.8</speed>
</trkpt>
<trkpt lat="47.242401" lon="8.855952">
<ele>455.5</ele>
<time>2003-06-13T08:56:09Z</time>
<speed>1.1</speed>
</trkpt>
<trkpt lat="47.242356" lon="8.855861">
<ele>457.5</ele>
<time>2003-06-13T08:56:14Z</time>
<speed>1.1</speed>
</trkpt>
<trkpt lat="47.242310" lon="8.855786">
<ele>458.1</ele>
<time>2003-06-13T08:56:19Z</time>
<speed>1.1</speed>
</trkpt>
<trkpt lat="47.242269" lon="8.855741">
<ele>456.8</ele>
<time>2003-06-13T08:56:24Z</time>
<speed>0.8</speed>
</trkpt>
<trkpt lat="47.242222" lon="8.855680">
<ele>456.2</ele>
<time>2003-06-13T08:56:29Z</time>
<speed>1.1</speed>
</trkpt>
<trkpt lat="47.242189" lon="8.855622">
<ele>455.6</ele>
<time>2003-06-13T08:56:34Z</time>
<speed>1.1</speed>
</trkpt>
<trkpt lat="47.242161" lon="8.855566">
<ele>454.3</ele>
<time>2003-06-13T08:56:39Z</time>
<speed>1.1</speed>
</trkpt>
<trkpt lat="47.242129" lon="8.855494">
<ele>453.6</ele>
<time>2003-06-13T08:56:44Z</time>
<speed>0.8</speed>
</trkpt>
<trkpt lat="47.242103" lon="8.855410">
<ele>453.5</ele>
<time>2003-06-13T08:56:49Z</time>
<speed>1.1</speed>
</trkpt>
<trkpt lat="47.242070" lon="8.855339">
<ele>452.8</ele>
<time>2003-06-13T08:56:54Z</time>
<speed>0.6</speed>
</trkpt>
<trkpt lat="47.242036" lon="8.855280">
<ele>452.2</ele>
<time>2003-06-13T08:56:59Z</time>
<speed>0.8</speed>
</trkpt>
<trkpt lat="47.242008" lon="8.855222">
<ele>452.3</ele>
<time>2003-06-13T08:57:04Z</time>
<speed>0.8</speed>
</trkpt>
<trkpt lat="47.241980" lon="8.855162">
<ele>453.8</ele>
<time>2003-06-13T08:57:09Z</time>
<speed>0.8</speed>
</trkpt>
<trkpt lat="47.241941" lon="8.855088">
<ele>453.8</ele>
<time>2003-06-13T08:57:14Z</time>
<speed>0.8</speed>
</trkpt>
<trkpt lat="47.241909" lon="8.855004">
<ele>453.0</ele>
<time>2003-06-13T08:57:19Z</time>
<speed>0.8</speed>
</trkpt>
<trkpt lat="47.241870" lon="8.854932">
<ele>451.5</ele>
<time>2003-06-13T08:57:24Z</time>
<speed>0.8</speed>
</trkpt>
<trkpt lat="47.241851" lon="8.854850">
<ele>450.8</ele>
<time>2003-06-13T08:57:29Z</time>
<speed>0.8</speed>
</trkpt>
<trkpt lat="47.241825" lon="8.854766">
<ele>450.7</ele>
<time>2003-06-13T08:57:34Z</time>
<speed>0.8</speed>
</trkpt>
<trkpt lat="47.241779" lon="8.854705">
<ele>450.0</ele>
<time>2003-06-13T08:57:39Z</time>
<speed>0.8</speed>
</trkpt>
<trkpt lat="47.241734" lon="8.854617">
<ele>450.5</ele>
<time>2003-06-13T08:57:44Z</time>
<speed>1.1</speed>
</trkpt>
<trkpt lat="47.241687" lon="8.854555">
<ele>451.3</ele>
<time>2003-06-13T08:57:49Z</time>
<speed>0.8</speed>
</trkpt>
<trkpt lat="47.241641" lon="8.854479">
<ele>451.9</ele>
<time>2003-06-13T08:57:54Z</time>
<speed>1.1</speed>
</trkpt>
<trkpt lat="47.241600" lon="8.854434">
<ele>450.7</ele>
<time>2003-06-13T08:57:59Z</time>
<speed>1.1</speed>
</trkpt>
<trkpt lat="47.241561" lon="8.854376">
<ele>449.3</ele>
<time>2003-06-13T08:58:04Z</time>
<speed>1.1</speed>
</trkpt>
<trkpt lat="47.241514" lon="8.854315">
<ele>448.6</ele>
<time>2003-06-13T08:58:09Z</time>
<speed>1.1</speed>
</trkpt>
<trkpt lat="47.241473" lon="8.854270">
<ele>447.4</ele>
<time>2003-06-13T08:58:14Z</time>
<speed>0.8</speed>
</trkpt>
<trkpt lat="47.241421" lon="8.854195">
<ele>447.3</ele>
<time>2003-06-13T08:58:19Z</time>
<speed>1.1</speed>
</trkpt>
<trkpt lat="47.241375" lon="8.854119">
<ele>447.9</ele>
<time>2003-06-13T08:58:24Z</time>
<speed>1.1</speed>
</trkpt>
<trkpt lat="47.241329" lon="8.854059">
<ele>447.3</ele>
<time>2003-06-13T08:58:29Z</time>
<speed>0.8</speed>
</trkpt>
<trkpt lat="47.241288" lon="8.853999">
<ele>447.3</ele>
<time>2003-06-13T08:58:34Z</time>
<speed>1.1</speed>
</trkpt>
<trkpt lat="47.241249" lon="8.853925">
<ele>447.3</ele>
<time>2003-06-13T08:58:39Z</time>
<speed>1.1</speed>
</trkpt>
<trkpt lat="47.241203" lon="8.853865">
<ele>446.6</ele>
<time>2003-06-13T08:58:44Z</time>
<speed>0.8</speed>
</trkpt>
<trkpt lat="47.241168" lon="8.853805">
<ele>447.4</ele>
<time>2003-06-13T08:58:49Z</time>
<speed>0.6</speed>
</trkpt>
<trkpt lat="47.241135" lon="8.853731">
<ele>448.1</ele>
<time>2003-06-13T08:58:54Z</time>
<speed>1.1</speed>
</trkpt>
<trkpt lat="47.241109" lon="8.853662">
<ele>446.7</ele>
<time>2003-06-13T08:58:59Z</time>
<speed>0.8</speed>
</trkpt>
<trkpt lat="47.241095" lon="8.853593">
<ele>446.8</ele>
<time>2003-06-13T08:59:04Z</time>
<speed>0.8</speed>
</trkpt>
<trkpt lat="47.241088" lon="8.853512">
<ele>446.1</ele>
<time>2003-06-13T08:59:09Z</time>
<speed>0.8</speed>
</trkpt>
<trkpt lat="47.241082" lon="8.853434">
<ele>444.0</ele>
<time>2003-06-13T08:59:14Z</time>
<speed>0.0</speed>
</trkpt>
<trkpt lat="47.241074" lon="8.853380">
<ele>443.5</ele>
<time>2003-06-13T08:59:19Z</time>
<speed>0.8</speed>
</trkpt>
<trkpt lat="47.241062" lon="8.853286">
<ele>442.0</ele>
<time>2003-06-13T08:59:24Z</time>
<speed>0.8</speed>
</trkpt>
<trkpt lat="47.241055" lon="8.853204">
<ele>442.7</ele>
<time>2003-06-13T08:59:29Z</time>
<speed>0.6</speed>
</trkpt>
<trkpt lat="47.241023" lon="8.853120">
<ele>441.9</ele>
<time>2003-06-13T08:59:34Z</time>
<speed>0.8</speed>
</trkpt>
<trkpt lat="47.240985" lon="8.853033">
<ele>441.8</ele>
<time>2003-06-13T08:59:39Z</time>
<speed>0.8</speed>
</trkpt>
<trkpt lat="47.240953" lon="8.852947">
<ele>442.3</ele>
<time>2003-06-13T08:59:44Z</time>
<speed>0.8</speed>
</trkpt>
<trkpt lat="47.240928" lon="8.852851">
<ele>440.8</ele>
<time>2003-06-13T08:59:49Z</time>
<speed>0.8</speed>
</trkpt>
<trkpt lat="47.240908" lon="8.852780">
<ele>441.5</ele>
<time>2003-06-13T08:59:54Z</time>
<speed>0.8</speed>
</trkpt>
<trkpt lat="47.240882" lon="8.852696">
<ele>441.4</ele>
<time>2003-06-13T08:59:59Z</time>
<speed>0.8</speed>
</trkpt>
<trkpt lat="47.240856" lon="8.852626">
<ele>440.0</ele>
<time>2003-06-13T09:00:04Z</time>
<speed>1.1</speed>
</trkpt>
<trkpt lat="47.240823" lon="8.852553">
<ele>440.7</ele>
<time>2003-06-13T09:00:09Z</time>
<speed>1.1</speed>
</trkpt>
<trkpt lat="47.240791" lon="8.852453">
<ele>441.2</ele>
<time>2003-06-13T09:00:14Z</time>
<speed>1.1</speed>
</trkpt>
<trkpt lat="47.240759" lon="8.852367">
<ele>441.8</ele>
<time>2003-06-13T09:00:19Z</time>
<speed>0.8</speed>
</trkpt>
<trkpt lat="47.240736" lon="8.852258">
<ele>440.1</ele>
<time>2003-06-13T09:00:24Z</time>
<speed>0.8</speed>
</trkpt>
<trkpt lat="47.240704" lon="8.852174">
<ele>439.3</ele>
<time>2003-06-13T09:00:29Z</time>
<speed>0.8</speed>
</trkpt>
<trkpt lat="47.240691" lon="8.852090">
<ele>440.7</ele>
<time>2003-06-13T09:00:34Z</time>
<speed>0.8</speed>
</trkpt>
<trkpt lat="47.240672" lon="8.851992">
<ele>441.2</ele>
<time>2003-06-13T09:00:39Z</time>
<speed>1.1</speed>
</trkpt>
<trkpt lat="47.240640" lon="8.851908">
<ele>440.4</ele>
<time>2003-06-13T09:00:44Z</time>
<speed>1.1</speed>
</trkpt>
<trkpt lat="47.240609" lon="8.851823">
<ele>439.6</ele>
<time>2003-06-13T09:00:49Z</time>
<speed>0.8</speed>
</trkpt>
<trkpt lat="47.240582" lon="8.851752">
<ele>439.6</ele>
<time>2003-06-13T09:00:54Z</time>
<speed>0.8</speed>
</trkpt>
<trkpt lat="47.240557" lon="8.851670">
<ele>438.1</ele>
<time>2003-06-13T09:00:59Z</time>
<speed>0.8</speed>
</trkpt>
<trkpt lat="47.240511" lon="8.851596">
<ele>437.4</ele>
<time>2003-06-13T09:01:04Z</time>
<speed>1.1</speed>
</trkpt>
<trkpt lat="47.240485" lon="8.851510">
<ele>438.7</ele>
<time>2003-06-13T09:01:09Z</time>
<speed>1.1</speed>
</trkpt>
<trkpt lat="47.240465" lon="8.851426">
<ele>439.3</ele>
<time>2003-06-13T09:01:14Z</time>
<speed>0.8</speed>
</trkpt>
<trkpt lat="47.240432" lon="8.851352">
<ele>440.0</ele>
<time>2003-06-13T09:01:19Z</time>
<speed>0.8</speed>
</trkpt>
<trkpt lat="47.240405" lon="8.851281">
<ele>440.0</ele>
<time>2003-06-13T09:01:24Z</time>
<speed>0.8</speed>
</trkpt>
<trkpt lat="47.240379" lon="8.851209">
<ele>440.1</ele>
<time>2003-06-13T09:01:29Z</time>
<speed>1.1</speed>
</trkpt>
<trkpt lat="47.240352" lon="8.851138">
<ele>440.1</ele>
<time>2003-06-13T09:01:34Z</time>
<speed>0.8</speed>
</trkpt>
<trkpt lat="47.240332" lon="8.851054">
<ele>440.7</ele>
<time>2003-06-13T09:01:39Z</time>
<speed>0.8</speed>
</trkpt>
<trkpt lat="47.240307" lon="8.850969">
<ele>440.7</ele>
<time>2003-06-13T09:01:44Z</time>
<speed>1.1</speed>
</trkpt>
<trkpt lat="47.240282" lon="8.850887">
<ele>439.2</ele>
<time>2003-06-13T09:01:49Z</time>
<speed>1.1</speed>
</trkpt>
<trkpt lat="47.240262" lon="8.850805">
<ele>438.4</ele>
<time>2003-06-13T09:01:54Z</time>
<speed>0.8</speed>
</trkpt>
<trkpt lat="47.240228" lon="8.850744">
<ele>439.2</ele>
<time>2003-06-13T09:01:59Z</time>
<speed>1.1</speed>
</trkpt>
<trkpt lat="47.240196" lon="8.850658">
<ele>439.8</ele>
<time>2003-06-13T09:02:04Z</time>
<speed>0.8</speed>
</trkpt>
<trkpt lat="47.240169" lon="8.850585">
<ele>441.2</ele>
<time>2003-06-13T09:02:09Z</time>
<speed>0.8</speed>
</trkpt>
<trkpt lat="47.240137" lon="8.850498">
<ele>441.8</ele>
<time>2003-06-13T09:02:14Z</time>
<speed>0.8</speed>
</trkpt>
<trkpt lat="47.240116" lon="8.850427">
<ele>442.6</ele>
<time>2003-06-13T09:02:19Z</time>
<speed>0.8</speed>
</trkpt>
<trkpt lat="47.240095" lon="8.850355">
<ele>443.3</ele>
<time>2003-06-13T09:02:24Z</time>
<speed>0.8</speed>
</trkpt>
<trkpt lat="47.240076" lon="8.850271">
<ele>444.0</ele>
<time>2003-06-13T09:02:29Z</time>
<speed>0.8</speed>
</trkpt>
<trkpt lat="47.240057" lon="8.850189">
<ele>443.2</ele>
<time>2003-06-13T09:02:34Z</time>
<speed>0.8</speed>
</trkpt>
<trkpt lat="47.240038" lon="8.850091">
<ele>443.8</ele>
<time>2003-06-13T09:02:39Z</time>
<speed>0.8</speed>
</trkpt>
<trkpt lat="47.240031" lon="8.850009">
<ele>444.5</ele>
<time>2003-06-13T09:02:44Z</time>
<speed>0.8</speed>
</trkpt>
<trkpt lat="47.240039" lon="8.849920">
<ele>442.3</ele>
<time>2003-06-13T09:02:49Z</time>
<speed>1.1</speed>
</trkpt>
<trkpt lat="47.240040" lon="8.849828">
<ele>440.9</ele>
<time>2003-06-13T09:02:54Z</time>
<speed>0.6</speed>
</trkpt>
<trkpt lat="47.240038" lon="8.849761">
<ele>441.0</ele>
<time>2003-06-13T09:02:59Z</time>
<speed>0.8</speed>
</trkpt>
<trkpt lat="47.240063" lon="8.849687">
<ele>439.8</ele>
<time>2003-06-13T09:03:04Z</time>
<speed>1.1</speed>
</trkpt>
<trkpt lat="47.240095" lon="8.849612">
<ele>439.3</ele>
<time>2003-06-13T09:03:09Z</time>
<speed>1.1</speed>
</trkpt>
<trkpt lat="47.240121" lon="8.849525">
<ele>438.0</ele>
<time>2003-06-13T09:03:14Z</time>
<speed>1.1</speed>
</trkpt>
<trkpt lat="47.240147" lon="8.849436">
<ele>438.0</ele>
<time>2003-06-13T09:03:19Z</time>
<speed>0.8</speed>
</trkpt>
<trkpt lat="47.240166" lon="8.849360">
<ele>437.5</ele>
<time>2003-06-13T09:03:24Z</time>
<speed>1.1</speed>
</trkpt>
<trkpt lat="47.240191" lon="8.849270">
<ele>437.5</ele>
<time>2003-06-13T09:03:29Z</time>
<speed>1.1</speed>
</trkpt>
<trkpt lat="47.240201" lon="8.849231">
<ele>437.9</ele>
<time>2003-06-13T09:03:34Z</time>
<speed>1.1</speed>
</trkpt>
<trkpt lat="47.240214" lon="8.849140">
<ele>438.0</ele>
<time>2003-06-13T09:03:39Z</time>
<speed>1.1</speed>
</trkpt>
<trkpt lat="47.240227" lon="8.849048">
<ele>438.0</ele>
<time>2003-06-13T09:03:44Z</time>
<speed>0.8</speed>
</trkpt>
<trkpt lat="47.240247" lon="8.848959">
<ele>437.3</ele>
<time>2003-06-13T09:03:49Z</time>
<speed>1.1</speed>
</trkpt>
<trkpt lat="47.240266" lon="8.848868">
<ele>438.0</ele>
<time>2003-06-13T09:03:54Z</time>
<speed>1.4</speed>
</trkpt>
<trkpt lat="47.240292" lon="8.848778">
<ele>438.1</ele>
<time>2003-06-13T09:03:59Z</time>
<speed>1.1</speed>
</trkpt>
<trkpt lat="47.240304" lon="8.848700">
<ele>438.2</ele>
<time>2003-06-13T09:04:04Z</time>
<speed>1.1</speed>
</trkpt>
<trkpt lat="47.240323" lon="8.848609">
<ele>438.9</ele>
<time>2003-06-13T09:04:09Z</time>
<speed>1.1</speed>
</trkpt>
<trkpt lat="47.240343" lon="8.848519">
<ele>438.3</ele>
<time>2003-06-13T09:04:14Z</time>
<speed>1.4</speed>
</trkpt>
<trkpt lat="47.240355" lon="8.848441">
<ele>438.4</ele>
<time>2003-06-13T09:04:19Z</time>
<speed>1.1</speed>
</trkpt>
<trkpt lat="47.240368" lon="8.848363">
<ele>438.5</ele>
<time>2003-06-13T09:04:24Z</time>
<speed>1.1</speed>
</trkpt>
<trkpt lat="47.240387" lon="8.848274">
<ele>437.8</ele>
<time>2003-06-13T09:04:29Z</time>
<speed>1.1</speed>
</trkpt>
<trkpt lat="47.240401" lon="8.848182">
<ele>437.8</ele>
<time>2003-06-13T09:04:34Z</time>
<speed>1.4</speed>
</trkpt>
<trkpt lat="47.240425" lon="8.848106">
<ele>438.0</ele>
<time>2003-06-13T09:04:39Z</time>
<speed>1.1</speed>
</trkpt>
<trkpt lat="47.240444" lon="8.848028">
<ele>438.8</ele>
<time>2003-06-13T09:04:44Z</time>
<speed>1.1</speed>
</trkpt>
<trkpt lat="47.240463" lon="8.847938">
<ele>438.2</ele>
<time>2003-06-13T09:04:49Z</time>
<speed>1.1</speed>
</trkpt>
<trkpt lat="47.240477" lon="8.847847">
<ele>438.2</ele>
<time>2003-06-13T09:04:54Z</time>
<speed>1.1</speed>
</trkpt>
<trkpt lat="47.240502" lon="8.847771">
<ele>438.3</ele>
<time>2003-06-13T09:04:59Z</time>
<speed>1.4</speed>
</trkpt>
<trkpt lat="47.240515" lon="8.847679">
<ele>438.3</ele>
<time>2003-06-13T09:05:04Z</time>
<speed>1.1</speed>
</trkpt>
<trkpt lat="47.240533" lon="8.847603">
<ele>437.8</ele>
<time>2003-06-13T09:05:09Z</time>
<speed>1.1</speed>
</trkpt>
<trkpt lat="47.240552" lon="8.847525">
<ele>438.6</ele>
<time>2003-06-13T09:05:14Z</time>
<speed>1.1</speed>
</trkpt>
<trkpt lat="47.240563" lon="8.847460">
<ele>438.8</ele>
<time>2003-06-13T09:05:19Z</time>
<speed>1.1</speed>
</trkpt>
<trkpt lat="47.240582" lon="8.847383">
<ele>438.3</ele>
<time>2003-06-13T09:05:24Z</time>
<speed>1.1</speed>
</trkpt>
<trkpt lat="47.240608" lon="8.847294">
<ele>438.3</ele>
<time>2003-06-13T09:05:29Z</time>
<speed>1.1</speed>
</trkpt>
<trkpt lat="47.240620" lon="8.847218">
<ele>437.0</ele>
<time>2003-06-13T09:05:34Z</time>
<speed>0.8</speed>
</trkpt>
<trkpt lat="47.240630" lon="8.847166">
<ele>437.4</ele>
<time>2003-06-13T09:05:39Z</time>
<speed>0.6</speed>
</trkpt>
<trkpt lat="47.240655" lon="8.847089">
<ele>437.5</ele>
<time>2003-06-13T09:05:44Z</time>
<speed>1.1</speed>
</trkpt>
<trkpt lat="47.240674" lon="8.847013">
<ele>437.0</ele>
<time>2003-06-13T09:05:49Z</time>
<speed>1.1</speed>
</trkpt>
<trkpt lat="47.240700" lon="8.846924">
<ele>437.0</ele>
<time>2003-06-13T09:05:54Z</time>
<speed>1.1</speed>
</trkpt>
<trkpt lat="47.240726" lon="8.846836">
<ele>435.7</ele>
<time>2003-06-13T09:05:59Z</time>
<speed>1.1</speed>
</trkpt>
<trkpt lat="47.240751" lon="8.846760">
<ele>435.9</ele>
<time>2003-06-13T09:06:04Z</time>
<speed>1.1</speed>
</trkpt>
<trkpt lat="47.240776" lon="8.846684">
<ele>436.0</ele>
<time>2003-06-13T09:06:09Z</time>
<speed>1.1</speed>
</trkpt>
<trkpt lat="47.240800" lon="8.846608">
<ele>436.2</ele>
<time>2003-06-13T09:06:14Z</time>
<speed>1.1</speed>
</trkpt>
<trkpt lat="47.240813" lon="8.846529">
<ele>436.3</ele>
<time>2003-06-13T09:06:19Z</time>
<speed>1.1</speed>
</trkpt>
<trkpt lat="47.240850" lon="8.846455">
<ele>436.5</ele>
<time>2003-06-13T09:06:24Z</time>
<speed>1.1</speed>
</trkpt>
<trkpt lat="47.240861" lon="8.846390">
<ele>436.8</ele>
<time>2003-06-13T09:06:29Z</time>
<speed>0.8</speed>
</trkpt>
<trkpt lat="47.240886" lon="8.846314">
<ele>436.9</ele>
<time>2003-06-13T09:06:34Z</time>
<speed>1.1</speed>
</trkpt>
<trkpt lat="47.240911" lon="8.846237">
<ele>437.1</ele>
<time>2003-06-13T09:06:39Z</time>
<speed>0.8</speed>
</trkpt>
<trkpt lat="47.240930" lon="8.846161">
<ele>436.5</ele>
<time>2003-06-13T09:06:44Z</time>
<speed>1.1</speed>
</trkpt>
<trkpt lat="47.240960" lon="8.846100">
<ele>436.1</ele>
<time>2003-06-13T09:06:49Z</time>
<speed>0.8</speed>
</trkpt>
<trkpt lat="47.240964" lon="8.846048">
<ele>435.7</ele>
<time>2003-06-13T09:06:54Z</time>
<speed>0.6</speed>
</trkpt>
<trkpt lat="47.240971" lon="8.846035">
<ele>436.4</ele>
<time>2003-06-13T09:06:59Z</time>
<speed>0.0</speed>
</trkpt>
<trkpt lat="47.240988" lon="8.845984">
<ele>436.0</ele>
<time>2003-06-13T09:07:04Z</time>
<speed>0.6</speed>
</trkpt>
<trkpt lat="47.240965" lon="8.845939">
<ele>437.0</ele>
<time>2003-06-13T09:07:09Z</time>
<speed>0.0</speed>
</trkpt>
<trkpt lat="47.240973" lon="8.845928">
<ele>436.2</ele>
<time>2003-06-13T09:07:14Z</time>
<speed>0.3</speed>
</trkpt>
<trkpt lat="47.240974" lon="8.845900">
<ele>437.4</ele>
<time>2003-06-13T09:07:19Z</time>
<speed>0.3</speed>
</trkpt>
<trkpt lat="47.240974" lon="8.845900">
<ele>437.4</ele>
<time>2003-06-13T09:07:24Z</time>
<speed>0.3</speed>
</trkpt>
<trkpt lat="47.241003" lon="8.845850">
<ele>438.5</ele>
<time>2003-06-13T09:07:29Z</time>
<speed>1.1</speed>
</trkpt>
<trkpt lat="47.241033" lon="8.845787">
<ele>439.5</ele>
<time>2003-06-13T09:07:34Z</time>
<speed>1.1</speed>
</trkpt>
<trkpt lat="47.241051" lon="8.845721">
<ele>440.5</ele>
<time>2003-06-13T09:07:39Z</time>
<speed>0.8</speed>
</trkpt>
<trkpt lat="47.241088" lon="8.845647">
<ele>440.7</ele>
<time>2003-06-13T09:07:44Z</time>
<speed>0.8</speed>
</trkpt>
<trkpt lat="47.241106" lon="8.845584">
<ele>440.2</ele>
<time>2003-06-13T09:07:49Z</time>
<speed>1.1</speed>
</trkpt>
<trkpt lat="47.241136" lon="8.845521">
<ele>441.2</ele>
<time>2003-06-13T09:07:54Z</time>
<speed>0.8</speed>
</trkpt>
<trkpt lat="47.241161" lon="8.845449">
<ele>438.6</ele>
<time>2003-06-13T09:07:59Z</time>
<speed>0.8</speed>
</trkpt>
<trkpt lat="47.241175" lon="8.845359">
<ele>437.2</ele>
<time>2003-06-13T09:08:04Z</time>
<speed>0.8</speed>
</trkpt>
<trkpt lat="47.241156" lon="8.845262">
<ele>437.8</ele>
<time>2003-06-13T09:08:09Z</time>
<speed>0.8</speed>
</trkpt>
<trkpt lat="47.241148" lon="8.845192">
<ele>438.6</ele>
<time>2003-06-13T09:08:14Z</time>
<speed>0.3</speed>
</trkpt>
<trkpt lat="47.241131" lon="8.845160">
<ele>440.4</ele>
<time>2003-06-13T09:08:19Z</time>
<speed>0.3</speed>
</trkpt>
<trkpt lat="47.241122" lon="8.845104">
<ele>441.3</ele>
<time>2003-06-13T09:08:24Z</time>
<speed>0.8</speed>
</trkpt>
<trkpt lat="47.241099" lon="8.845074">
<ele>441.0</ele>
<time>2003-06-13T09:08:29Z</time>
<speed>0.6</speed>
</trkpt>
<trkpt lat="47.241070" lon="8.845031">
<ele>439.8</ele>
<time>2003-06-13T09:08:34Z</time>
<speed>0.6</speed>
</trkpt>
<trkpt lat="47.241061" lon="8.844974">
<ele>440.7</ele>
<time>2003-06-13T09:08:39Z</time>
<speed>0.6</speed>
</trkpt>
<trkpt lat="47.241065" lon="8.844937">
<ele>439.0</ele>
<time>2003-06-13T09:08:44Z</time>
<speed>0.0</speed>
</trkpt>
<trkpt lat="47.241078" lon="8.844926">
<ele>439.0</ele>
<time>2003-06-13T09:08:49Z</time>
<speed>0.0</speed>
</trkpt>
<trkpt lat="47.241079" lon="8.844913">
<ele>438.8</ele>
<time>2003-06-13T09:08:54Z</time>
<speed>0.0</speed>
</trkpt>
<trkpt lat="47.241094" lon="8.844887">
<ele>440.1</ele>
<time>2003-06-13T09:08:59Z</time>
<speed>0.3</speed>
</trkpt>
<trkpt lat="47.241113" lon="8.844876">
<ele>440.8</ele>
<time>2003-06-13T09:09:04Z</time>
<speed>0.0</speed>
</trkpt>
<trkpt lat="47.241108" lon="8.844861">
<ele>441.4</ele>
<time>2003-06-13T09:09:09Z</time>
<speed>0.0</speed>
</trkpt>
<trkpt lat="47.241140" lon="8.844867">
<ele>440.8</ele>
<time>2003-06-13T09:09:14Z</time>
<speed>0.6</speed>
</trkpt>
<trkpt lat="47.241177" lon="8.844888">
<ele>439.7</ele>
<time>2003-06-13T09:09:19Z</time>
<speed>0.3</speed>
</trkpt>
<trkpt lat="47.241215" lon="8.844896">
<ele>438.5</ele>
<time>2003-06-13T09:09:24Z</time>
<speed>0.3</speed>
</trkpt>
<trkpt lat="47.241222" lon="8.844883">
<ele>439.1</ele>
<time>2003-06-13T09:09:29Z</time>
<speed>0.0</speed>
</trkpt>
<trkpt lat="47.241222" lon="8.844883">
<ele>439.1</ele>
<time>2003-06-13T09:09:34Z</time>
<speed>0.0</speed>
</trkpt>
<trkpt lat="47.241234" lon="8.844898">
<ele>439.3</ele>
<time>2003-06-13T09:09:39Z</time>
<speed>0.0</speed>
</trkpt>
<trkpt lat="47.241239" lon="8.844848">
<ele>437.5</ele>
<time>2003-06-13T09:09:44Z</time>
<speed>0.6</speed>
</trkpt>
<trkpt lat="47.241278" lon="8.844828">
<ele>437.5</ele>
<time>2003-06-13T09:09:49Z</time>
<speed>0.3</speed>
</trkpt>
<trkpt lat="47.241278" lon="8.844828">
<ele>437.5</ele>
<time>2003-06-13T09:09:54Z</time>
<speed>0.0</speed>
</trkpt>
<trkpt lat="47.241278" lon="8.844828">
<ele>437.5</ele>
<time>2003-06-13T09:09:59Z</time>
<speed>0.0</speed>
</trkpt>
<trkpt lat="47.241278" lon="8.844828">
<ele>437.5</ele>
<time>2003-06-13T09:10:04Z</time>
<speed>0.3</speed>
</trkpt>
<trkpt lat="47.241273" lon="8.844815">
<ele>436.6</ele>
<time>2003-06-13T09:10:09Z</time>
<speed>0.0</speed>
</trkpt>
<trkpt lat="47.241273" lon="8.844815">
<ele>436.6</ele>
<time>2003-06-13T09:10:14Z</time>
<speed>0.0</speed>
</trkpt>
<trkpt lat="47.241267" lon="8.844813">
<ele>437.3</ele>
<time>2003-06-13T09:10:19Z</time>
<speed>0.0</speed>
</trkpt>
<trkpt lat="47.241267" lon="8.844813">
<ele>437.3</ele>
<time>2003-06-13T09:10:24Z</time>
<speed>0.0</speed>
</trkpt>
<trkpt lat="47.241267" lon="8.844813">
<ele>437.3</ele>
<time>2003-06-13T09:10:29Z</time>
<speed>0.0</speed>
</trkpt>
<trkpt lat="47.241267" lon="8.844813">
<ele>437.3</ele>
<time>2003-06-13T09:10:34Z</time>
<speed>0.0</speed>
</trkpt>
<trkpt lat="47.241267" lon="8.844813">
<ele>437.3</ele>
<time>2003-06-13T09:10:39Z</time>
<speed>0.0</speed>
</trkpt>
<trkpt lat="47.241267" lon="8.844813">
<ele>437.3</ele>
<time>2003-06-13T09:10:44Z</time>
<speed>0.0</speed>
</trkpt>
<trkpt lat="47.241267" lon="8.844813">
<ele>437.3</ele>
<time>2003-06-13T09:10:49Z</time>
<speed>0.0</speed>
</trkpt>
<trkpt lat="47.241260" lon="8.844811">
<ele>438.0</ele>
<time>2003-06-13T09:10:54Z</time>
<speed>0.0</speed>
</trkpt>
<trkpt lat="47.241260" lon="8.844811">
<ele>438.0</ele>
<time>2003-06-13T09:10:59Z</time>
<speed>0.0</speed>
</trkpt>
<trkpt lat="47.241260" lon="8.844811">
<ele>438.0</ele>
<time>2003-06-13T09:11:04Z</time>
<speed>0.0</speed>
</trkpt>
<trkpt lat="47.241260" lon="8.844811">
<ele>438.0</ele>
<time>2003-06-13T09:11:09Z</time>
<speed>0.0</speed>
</trkpt>
<trkpt lat="47.241260" lon="8.844811">
<ele>438.0</ele>
<time>2003-06-13T09:11:14Z</time>
<speed>0.0</speed>
</trkpt>
<trkpt lat="47.241260" lon="8.844811">
<ele>438.0</ele>
<time>2003-06-13T09:11:19Z</time>
<speed>0.0</speed>
</trkpt>
<trkpt lat="47.241260" lon="8.844811">
<ele>438.0</ele>
<time>2003-06-13T09:11:24Z</time>
<speed>0.0</speed>
</trkpt>
<trkpt lat="47.241260" lon="8.844811">
<ele>438.0</ele>
<time>2003-06-13T09:11:29Z</time>
<speed>0.0</speed>
</trkpt>
<trkpt lat="47.241260" lon="8.844811">
<ele>438.0</ele>
<time>2003-06-13T09:11:34Z</time>
<speed>0.0</speed>
</trkpt>
<trkpt lat="47.241260" lon="8.844811">
<ele>438.0</ele>
<time>2003-06-13T09:11:39Z</time>
<speed>0.0</speed>
</trkpt>
<trkpt lat="47.241260" lon="8.844811">
<ele>438.0</ele>
<time>2003-06-13T09:11:44Z</time>
<speed>0.0</speed>
</trkpt>
<trkpt lat="47.241260" lon="8.844811">
<ele>438.0</ele>
<time>2003-06-13T09:11:49Z</time>
<speed>0.0</speed>
</trkpt>
<trkpt lat="47.241260" lon="8.844811">
<ele>438.0</ele>
<time>2003-06-13T09:11:54Z</time>
<speed>0.0</speed>
</trkpt>
<trkpt lat="47.241253" lon="8.844824">
<ele>437.3</ele>
<time>2003-06-13T09:11:59Z</time>
<speed>0.0</speed>
</trkpt>
<trkpt lat="47.241247" lon="8.844822">
<ele>438.0</ele>
<time>2003-06-13T09:12:04Z</time>
<speed>0.0</speed>
</trkpt>
<trkpt lat="47.241247" lon="8.844822">
<ele>438.0</ele>
<time>2003-06-13T09:12:09Z</time>
<speed>0.0</speed>
</trkpt>
<trkpt lat="47.241247" lon="8.844822">
<ele>438.0</ele>
<time>2003-06-13T09:12:14Z</time>
<speed>0.0</speed>
</trkpt>
<trkpt lat="47.241247" lon="8.844822">
<ele>438.0</ele>
<time>2003-06-13T09:12:19Z</time>
<speed>0.0</speed>
</trkpt>
<trkpt lat="47.241247" lon="8.844822">
<ele>438.0</ele>
<time>2003-06-13T09:12:24Z</time>
<speed>0.0</speed>
</trkpt>
<trkpt lat="47.241246" lon="8.844835">
<ele>438.1</ele>
<time>2003-06-13T09:12:29Z</time>
<speed>0.0</speed>
</trkpt>
<trkpt lat="47.241252" lon="8.844835">
<ele>438.8</ele>
<time>2003-06-13T09:12:34Z</time>
<speed>0.0</speed>
</trkpt>
<trkpt lat="47.241252" lon="8.844835">
<ele>438.8</ele>
<time>2003-06-13T09:12:39Z</time>
<speed>0.0</speed>
</trkpt>
<trkpt lat="47.241252" lon="8.844835">
<ele>438.8</ele>
<time>2003-06-13T09:12:44Z</time>
<speed>0.0</speed>
</trkpt>
<trkpt lat="47.241252" lon="8.844835">
<ele>438.8</ele>
<time>2003-06-13T09:12:49Z</time>
<speed>0.0</speed>
</trkpt>
<trkpt lat="47.241252" lon="8.844835">
<ele>438.8</ele>
<time>2003-06-13T09:12:54Z</time>
<speed>0.0</speed>
</trkpt>
<trkpt lat="47.241239" lon="8.844833">
<ele>438.8</ele>
<time>2003-06-13T09:12:59Z</time>
<speed>0.0</speed>
</trkpt>
<trkpt lat="47.241247" lon="8.844822">
<ele>438.0</ele>
<time>2003-06-13T09:13:04Z</time>
<speed>0.0</speed>
</trkpt>
<trkpt lat="47.241253" lon="8.844822">
<ele>438.7</ele>
<time>2003-06-13T09:13:09Z</time>
<speed>0.0</speed>
</trkpt>
<trkpt lat="47.241253" lon="8.844822">
<ele>438.7</ele>
<time>2003-06-13T09:13:14Z</time>
<speed>0.0</speed>
</trkpt>
<trkpt lat="47.241247" lon="8.844822">
<ele>438.0</ele>
<time>2003-06-13T09:13:19Z</time>
<speed>0.0</speed>
</trkpt>
<trkpt lat="47.241247" lon="8.844822">
<ele>438.0</ele>
<time>2003-06-13T09:13:24Z</time>
<speed>0.0</speed>
</trkpt>
<trkpt lat="47.241247" lon="8.844822">
<ele>438.0</ele>
<time>2003-06-13T09:13:29Z</time>
<speed>0.0</speed>
</trkpt>
<trkpt lat="47.241247" lon="8.844822">
<ele>438.0</ele>
<time>2003-06-13T09:13:34Z</time>
<speed>0.0</speed>
</trkpt>
<trkpt lat="47.241247" lon="8.844822">
<ele>438.0</ele>
<time>2003-06-13T09:13:39Z</time>
<speed>0.0</speed>
</trkpt>
<trkpt lat="47.241241" lon="8.844822">
<ele>437.3</ele>
<time>2003-06-13T09:13:44Z</time>
<speed>0.0</speed>
</trkpt>
<trkpt lat="47.241234" lon="8.844820">
<ele>437.9</ele>
<time>2003-06-13T09:13:49Z</time>
<speed>0.0</speed>
</trkpt>
<trkpt lat="47.241234" lon="8.844820">
<ele>437.9</ele>
<time>2003-06-13T09:13:54Z</time>
<speed>0.0</speed>
</trkpt>
<trkpt lat="47.241234" lon="8.844820">
<ele>437.9</ele>
<time>2003-06-13T09:13:59Z</time>
<speed>0.0</speed>
</trkpt>
<trkpt lat="47.241234" lon="8.844820">
<ele>437.9</ele>
<time>2003-06-13T09:14:04Z</time>
<speed>0.0</speed>
</trkpt>
<trkpt lat="47.241234" lon="8.844820">
<ele>437.9</ele>
<time>2003-06-13T09:14:09Z</time>
<speed>0.0</speed>
</trkpt>
<trkpt lat="47.241234" lon="8.844820">
<ele>437.9</ele>
<time>2003-06-13T09:14:14Z</time>
<speed>0.0</speed>
</trkpt>
<trkpt lat="47.241241" lon="8.844822">
<ele>437.3</ele>
<time>2003-06-13T09:14:19Z</time>
<speed>0.0</speed>
</trkpt>
<trkpt lat="47.241241" lon="8.844822">
<ele>437.3</ele>
<time>2003-06-13T09:14:24Z</time>
<speed>0.0</speed>
</trkpt>
<trkpt lat="47.241254" lon="8.844826">
<ele>435.9</ele>
<time>2003-06-13T09:14:29Z</time>
<speed>0.0</speed>
</trkpt>
<trkpt lat="47.241254" lon="8.844826">
<ele>435.9</ele>
<time>2003-06-13T09:14:34Z</time>
<speed>0.0</speed>
</trkpt>
<trkpt lat="47.241254" lon="8.844826">
<ele>435.9</ele>
<time>2003-06-13T09:14:39Z</time>
<speed>0.0</speed>
</trkpt>
<trkpt lat="47.241254" lon="8.844826">
<ele>435.9</ele>
<time>2003-06-13T09:14:44Z</time>
<speed>0.0</speed>
</trkpt>
<trkpt lat="47.241254" lon="8.844826">
<ele>435.9</ele>
<time>2003-06-13T09:14:49Z</time>
<speed>0.0</speed>
</trkpt>
<trkpt lat="47.241254" lon="8.844828">
<ele>434.5</ele>
<time>2003-06-13T09:14:54Z</time>
<speed>0.0</speed>
</trkpt>
<trkpt lat="47.241255" lon="8.844815">
<ele>434.4</ele>
<time>2003-06-13T09:14:59Z</time>
<speed>0.0</speed>
</trkpt>
<trkpt lat="47.241255" lon="8.844815">
<ele>434.4</ele>
<time>2003-06-13T09:15:04Z</time>
<speed>0.0</speed>
</trkpt>
<trkpt lat="47.241255" lon="8.844815">
<ele>434.4</ele>
<time>2003-06-13T09:15:09Z</time>
<speed>0.0</speed>
</trkpt>
<trkpt lat="47.241255" lon="8.844815">
<ele>434.4</ele>
<time>2003-06-13T09:15:14Z</time>
<speed>0.0</speed>
</trkpt>
<trkpt lat="47.241255" lon="8.844815">
<ele>434.4</ele>
<time>2003-06-13T09:15:19Z</time>
<speed>0.0</speed>
</trkpt>
<trkpt lat="47.241255" lon="8.844815">
<ele>434.4</ele>
<time>2003-06-13T09:15:24Z</time>
<speed>0.0</speed>
</trkpt>
<trkpt lat="47.241255" lon="8.844815">
<ele>434.4</ele>
<time>2003-06-13T09:15:29Z</time>
<speed>0.0</speed>
</trkpt>
<trkpt lat="47.241255" lon="8.844815">
<ele>434.4</ele>
<time>2003-06-13T09:15:34Z</time>
<speed>0.0</speed>
</trkpt>
<trkpt lat="47.241255" lon="8.844815">
<ele>434.4</ele>
<time>2003-06-13T09:15:39Z</time>
<speed>0.0</speed>
</trkpt>
<trkpt lat="47.241254" lon="8.844828">
<ele>434.5</ele>
<time>2003-06-13T09:15:44Z</time>
<speed>0.0</speed>
</trkpt>
<trkpt lat="47.241261" lon="8.844830">
<ele>433.8</ele>
<time>2003-06-13T09:15:49Z</time>
<speed>0.0</speed>
</trkpt>
<trkpt lat="47.241261" lon="8.844830">
<ele>433.8</ele>
<time>2003-06-13T09:15:54Z</time>
<speed>0.0</speed>
</trkpt>
<trkpt lat="47.241261" lon="8.844830">
<ele>433.8</ele>
<time>2003-06-13T09:15:59Z</time>
<speed>0.0</speed>
</trkpt>
<trkpt lat="47.241261" lon="8.844830">
<ele>433.8</ele>
<time>2003-06-13T09:16:04Z</time>
<speed>0.0</speed>
</trkpt>
<trkpt lat="47.241261" lon="8.844830">
<ele>433.8</ele>
<time>2003-06-13T09:16:09Z</time>
<speed>0.0</speed>
</trkpt>
<trkpt lat="47.241254" lon="8.844828">
<ele>434.5</ele>
<time>2003-06-13T09:16:14Z</time>
<speed>0.0</speed>
</trkpt>
<trkpt lat="47.241254" lon="8.844828">
<ele>434.5</ele>
<time>2003-06-13T09:16:19Z</time>
<speed>0.0</speed>
</trkpt>
<trkpt lat="47.241254" lon="8.844828">
<ele>434.5</ele>
<time>2003-06-13T09:16:24Z</time>
<speed>0.0</speed>
</trkpt>
<trkpt lat="47.241254" lon="8.844828">
<ele>434.5</ele>
<time>2003-06-13T09:16:29Z</time>
<speed>0.0</speed>
</trkpt>
<trkpt lat="47.241259" lon="8.844841">
<ele>435.4</ele>
<time>2003-06-13T09:16:34Z</time>
<speed>0.6</speed>
</trkpt>
<trkpt lat="47.241263" lon="8.844882">
<ele>435.0</ele>
<time>2003-06-13T09:16:39Z</time>
<speed>0.6</speed>
</trkpt>
<trkpt lat="47.241292" lon="8.844913">
<ele>436.1</ele>
<time>2003-06-13T09:16:44Z</time>
<speed>0.3</speed>
</trkpt>
<trkpt lat="47.241298" lon="8.844915">
<ele>435.4</ele>
<time>2003-06-13T09:16:49Z</time>
<speed>0.0</speed>
</trkpt>
<trkpt lat="47.241297" lon="8.844928">
<ele>435.5</ele>
<time>2003-06-13T09:16:54Z</time>
<speed>0.6</speed>
</trkpt>
<trkpt lat="47.241296" lon="8.844956">
<ele>434.3</ele>
<time>2003-06-13T09:16:59Z</time>
<speed>0.3</speed>
</trkpt>
<trkpt lat="47.241288" lon="8.844967">
<ele>435.1</ele>
<time>2003-06-13T09:17:04Z</time>
<speed>0.0</speed>
</trkpt>
<trkpt lat="47.241283" lon="8.844952">
<ele>435.6</ele>
<time>2003-06-13T09:17:09Z</time>
<speed>0.6</speed>
</trkpt>
<trkpt lat="47.241255" lon="8.844891">
<ele>437.2</ele>
<time>2003-06-13T09:17:14Z</time>
<speed>0.6</speed>
</trkpt>
<trkpt lat="47.241239" lon="8.844850">
<ele>436.1</ele>
<time>2003-06-13T09:17:19Z</time>
<speed>0.6</speed>
</trkpt>
<trkpt lat="47.241236" lon="8.844809">
<ele>436.4</ele>
<time>2003-06-13T09:17:24Z</time>
<speed>0.0</speed>
</trkpt>
<trkpt lat="47.241237" lon="8.844796">
<ele>436.3</ele>
<time>2003-06-13T09:17:29Z</time>
<speed>0.0</speed>
</trkpt>
<trkpt lat="47.241237" lon="8.844796">
<ele>436.3</ele>
<time>2003-06-13T09:17:34Z</time>
<speed>0.0</speed>
</trkpt>
<trkpt lat="47.241237" lon="8.844796">
<ele>436.3</ele>
<time>2003-06-13T09:17:39Z</time>
<speed>0.0</speed>
</trkpt>
<trkpt lat="47.241237" lon="8.844796">
<ele>436.3</ele>
<time>2003-06-13T09:17:44Z</time>
<speed>0.0</speed>
</trkpt>
<trkpt lat="47.241243" lon="8.844796">
<ele>437.1</ele>
<time>2003-06-13T09:17:49Z</time>
<speed>0.0</speed>
</trkpt>
<trkpt lat="47.241244" lon="8.844783">
<ele>437.0</ele>
<time>2003-06-13T09:17:54Z</time>
<speed>0.0</speed>
</trkpt>
<trkpt lat="47.241244" lon="8.844783">
<ele>437.0</ele>
<time>2003-06-13T09:17:59Z</time>
<speed>0.0</speed>
</trkpt>
<trkpt lat="47.241244" lon="8.844783">
<ele>437.0</ele>
<time>2003-06-13T09:18:04Z</time>
<speed>0.0</speed>
</trkpt>
<trkpt lat="47.241249" lon="8.844798">
<ele>436.4</ele>
<time>2003-06-13T09:18:09Z</time>
<speed>0.0</speed>
</trkpt>
<trkpt lat="47.241255" lon="8.844798">
<ele>437.1</ele>
<time>2003-06-13T09:18:14Z</time>
<speed>0.0</speed>
</trkpt>
<trkpt lat="47.241261" lon="8.844813">
<ele>436.6</ele>
<time>2003-06-13T09:18:19Z</time>
<speed>0.0</speed>
</trkpt>
<trkpt lat="47.241261" lon="8.844813">
<ele>436.6</ele>
<time>2003-06-13T09:18:24Z</time>
<speed>0.0</speed>
</trkpt>
<trkpt lat="47.241261" lon="8.844813">
<ele>436.6</ele>
<time>2003-06-13T09:18:29Z</time>
<speed>0.0</speed>
</trkpt>
<trkpt lat="47.241261" lon="8.844813">
<ele>436.6</ele>
<time>2003-06-13T09:18:34Z</time>
<speed>0.0</speed>
</trkpt>
<trkpt lat="47.241278" lon="8.844843">
<ele>436.2</ele>
<time>2003-06-13T09:18:39Z</time>
<speed>0.0</speed>
</trkpt>
<trkpt lat="47.241278" lon="8.844843">
<ele>436.2</ele>
<time>2003-06-13T09:18:44Z</time>
<speed>0.0</speed>
</trkpt>
<trkpt lat="47.241278" lon="8.844843">
<ele>436.2</ele>
<time>2003-06-13T09:18:49Z</time>
<speed>0.0</speed>
</trkpt>
<trkpt lat="47.241284" lon="8.844845">
<ele>435.5</ele>
<time>2003-06-13T09:18:54Z</time>
<speed>0.0</speed>
</trkpt>
<trkpt lat="47.241284" lon="8.844845">
<ele>435.5</ele>
<time>2003-06-13T09:18:59Z</time>
<speed>0.0</speed>
</trkpt>
<trkpt lat="47.241286" lon="8.844834">
<ele>434.0</ele>
<time>2003-06-13T09:19:04Z</time>
<speed>0.0</speed>
</trkpt>
<trkpt lat="47.241279" lon="8.844832">
<ele>434.6</ele>
<time>2003-06-13T09:19:09Z</time>
<speed>0.0</speed>
</trkpt>
<trkpt lat="47.241254" lon="8.844828">
<ele>434.5</ele>
<time>2003-06-13T09:19:14Z</time>
<speed>0.6</speed>
</trkpt>
<trkpt lat="47.241228" lon="8.844837">
<ele>434.5</ele>
<time>2003-06-13T09:19:19Z</time>
<speed>0.6</speed>
</trkpt>
<trkpt lat="47.241195" lon="8.844844">
<ele>435.1</ele>
<time>2003-06-13T09:19:24Z</time>
<speed>0.6</speed>
</trkpt>
<trkpt lat="47.241157" lon="8.844836">
<ele>436.4</ele>
<time>2003-06-13T09:19:29Z</time>
<speed>0.6</speed>
</trkpt>
<trkpt lat="47.241128" lon="8.844791">
<ele>436.6</ele>
<time>2003-06-13T09:19:34Z</time>
<speed>0.6</speed>
</trkpt>
<trkpt lat="47.241143" lon="8.844767">
<ele>436.4</ele>
<time>2003-06-13T09:19:39Z</time>
<speed>0.3</speed>
</trkpt>
<trkpt lat="47.241158" lon="8.844730">
<ele>436.2</ele>
<time>2003-06-13T09:19:44Z</time>
<speed>0.3</speed>
</trkpt>
<trkpt lat="47.241156" lon="8.844675">
<ele>436.4</ele>
<time>2003-06-13T09:19:49Z</time>
<speed>0.3</speed>
</trkpt>
<trkpt lat="47.241147" lon="8.844619">
<ele>437.4</ele>
<time>2003-06-13T09:19:54Z</time>
<speed>0.8</speed>
</trkpt>
<trkpt lat="47.241126" lon="8.844563">
<ele>436.8</ele>
<time>2003-06-13T09:19:59Z</time>
<speed>0.3</speed>
</trkpt>
<trkpt lat="47.241087" lon="8.844570">
<ele>436.7</ele>
<time>2003-06-13T09:20:06Z</time>
<speed>0.6</speed>
</trkpt>
<trkpt lat="47.241074" lon="8.844568">
<ele>436.7</ele>
<time>2003-06-13T09:20:11Z</time>
<speed>0.0</speed>
</trkpt>
<trkpt lat="47.241074" lon="8.844568">
<ele>436.7</ele>
<time>2003-06-13T09:20:16Z</time>
<speed>0.0</speed>
</trkpt>
<trkpt lat="47.241074" lon="8.844568">
<ele>436.7</ele>
<time>2003-06-13T09:20:21Z</time>
<speed>0.0</speed>
</trkpt>
<trkpt lat="47.241074" lon="8.844568">
<ele>436.7</ele>
<time>2003-06-13T09:20:26Z</time>
<speed>0.0</speed>
</trkpt>
<trkpt lat="47.241074" lon="8.844568">
<ele>436.7</ele>
<time>2003-06-13T09:20:31Z</time>
<speed>0.0</speed>
</trkpt>
<trkpt lat="47.241074" lon="8.844568">
<ele>436.7</ele>
<time>2003-06-13T09:20:36Z</time>
<speed>0.0</speed>
</trkpt>
<trkpt lat="47.241074" lon="8.844568">
<ele>436.7</ele>
<time>2003-06-13T09:20:41Z</time>
<speed>0.0</speed>
</trkpt>
<trkpt lat="47.241074" lon="8.844568">
<ele>436.7</ele>
<time>2003-06-13T09:20:46Z</time>
<speed>0.0</speed>
</trkpt>
<trkpt lat="47.241074" lon="8.844568">
<ele>436.7</ele>
<time>2003-06-13T09:20:51Z</time>
<speed>0.0</speed>
</trkpt>
<trkpt lat="47.241074" lon="8.844568">
<ele>436.7</ele>
<time>2003-06-13T09:20:56Z</time>
<speed>0.0</speed>
</trkpt>
<trkpt lat="47.241074" lon="8.844568">
<ele>436.7</ele>
<time>2003-06-13T09:21:01Z</time>
<speed>0.0</speed>
</trkpt>
<trkpt lat="47.241074" lon="8.844568">
<ele>436.7</ele>
<time>2003-06-13T09:21:06Z</time>
<speed>0.0</speed>
</trkpt>
<trkpt lat="47.241081" lon="8.844570">
<ele>436.0</ele>
<time>2003-06-13T09:21:11Z</time>
<speed>0.3</speed>
</trkpt>
<trkpt lat="47.241113" lon="8.844563">
<ele>435.4</ele>
<time>2003-06-13T09:21:16Z</time>
<speed>0.3</speed>
</trkpt>
<trkpt lat="47.241133" lon="8.844552">
<ele>436.1</ele>
<time>2003-06-13T09:21:21Z</time>
<speed>0.3</speed>
</trkpt>
<trkpt lat="47.241178" lon="8.844545">
<ele>436.9</ele>
<time>2003-06-13T09:21:26Z</time>
<speed>0.3</speed>
</trkpt>
<trkpt lat="47.241218" lon="8.844523">
<ele>438.3</ele>
<time>2003-06-13T09:21:31Z</time>
<speed>0.6</speed>
</trkpt>
<trkpt lat="47.241257" lon="8.844501">
<ele>439.6</ele>
<time>2003-06-13T09:21:36Z</time>
<speed>0.6</speed>
</trkpt>
<trkpt lat="47.241280" lon="8.844451">
<ele>440.0</ele>
<time>2003-06-13T09:21:41Z</time>
<speed>0.6</speed>
</trkpt>
<trkpt lat="47.241271" lon="8.844396">
<ele>439.5</ele>
<time>2003-06-13T09:21:46Z</time>
<speed>0.6</speed>
</trkpt>
<trkpt lat="47.241268" lon="8.844355">
<ele>439.9</ele>
<time>2003-06-13T09:21:51Z</time>
<speed>0.3</speed>
</trkpt>
<trkpt lat="47.241270" lon="8.844329">
<ele>439.7</ele>
<time>2003-06-13T09:21:56Z</time>
<speed>0.0</speed>
</trkpt>
<trkpt lat="47.241270" lon="8.844329">
<ele>439.7</ele>
<time>2003-06-13T09:22:01Z</time>
<speed>0.0</speed>
</trkpt>
<trkpt lat="47.241270" lon="8.844329">
<ele>439.7</ele>
<time>2003-06-13T09:22:06Z</time>
<speed>0.0</speed>
</trkpt>
<trkpt lat="47.241277" lon="8.844316">
<ele>440.3</ele>
<time>2003-06-13T09:22:11Z</time>
<speed>0.3</speed>
</trkpt>
<trkpt lat="47.241271" lon="8.844314">
<ele>441.0</ele>
<time>2003-06-13T09:22:16Z</time>
<speed>0.3</speed>
</trkpt>
<trkpt lat="47.241271" lon="8.844314">
<ele>441.0</ele>
<time>2003-06-13T09:22:21Z</time>
<speed>0.0</speed>
</trkpt>
<trkpt lat="47.241271" lon="8.844314">
<ele>441.0</ele>
<time>2003-06-13T09:22:26Z</time>
<speed>0.0</speed>
</trkpt>
<trkpt lat="47.241272" lon="8.844301">
<ele>440.9</ele>
<time>2003-06-13T09:22:31Z</time>
<speed>0.0</speed>
</trkpt>
<trkpt lat="47.241278" lon="8.844303">
<ele>440.2</ele>
<time>2003-06-13T09:22:36Z</time>
<speed>0.3</speed>
</trkpt>
<trkpt lat="47.241270" lon="8.844331">
<ele>438.3</ele>
<time>2003-06-13T09:22:41Z</time>
<speed>0.6</speed>
</trkpt>
<trkpt lat="47.241274" lon="8.844372">
<ele>437.9</ele>
<time>2003-06-13T09:22:46Z</time>
<speed>0.3</speed>
</trkpt>
<trkpt lat="47.241271" lon="8.844429">
<ele>435.5</ele>
<time>2003-06-13T09:22:51Z</time>
<speed>0.6</speed>
</trkpt>
<trkpt lat="47.241267" lon="8.844481">
<ele>436.0</ele>
<time>2003-06-13T09:22:56Z</time>
<speed>0.6</speed>
</trkpt>
<trkpt lat="47.241253" lon="8.844492">
<ele>436.0</ele>
<time>2003-06-13T09:23:01Z</time>
<speed>0.0</speed>
</trkpt>
<trkpt lat="47.241259" lon="8.844494">
<ele>435.3</ele>
<time>2003-06-13T09:23:06Z</time>
<speed>0.0</speed>
</trkpt>
<trkpt lat="47.241222" lon="8.844488">
<ele>435.1</ele>
<time>2003-06-13T09:23:11Z</time>
<speed>0.8</speed>
</trkpt>
<trkpt lat="47.241182" lon="8.844508">
<ele>435.2</ele>
<time>2003-06-13T09:23:16Z</time>
<speed>0.6</speed>
</trkpt>
<trkpt lat="47.241148" lon="8.844545">
<ele>433.2</ele>
<time>2003-06-13T09:23:21Z</time>
<speed>0.8</speed>
</trkpt>
<trkpt lat="47.241137" lon="8.844612">
<ele>431.6</ele>
<time>2003-06-13T09:23:26Z</time>
<speed>0.3</speed>
</trkpt>
<trkpt lat="47.241146" lon="8.844668">
<ele>430.7</ele>
<time>2003-06-13T09:23:31Z</time>
<speed>0.6</speed>
</trkpt>
<trkpt lat="47.241143" lon="8.844708">
<ele>431.0</ele>
<time>2003-06-13T09:23:36Z</time>
<speed>0.6</speed>
</trkpt>
<trkpt lat="47.241139" lon="8.844762">
<ele>430.0</ele>
<time>2003-06-13T09:23:41Z</time>
<speed>0.6</speed>
</trkpt>
<trkpt lat="47.241128" lon="8.844825">
<ele>431.2</ele>
<time>2003-06-13T09:23:46Z</time>
<speed>0.6</speed>
</trkpt>
<trkpt lat="47.241100" lon="8.844847">
<ele>431.3</ele>
<time>2003-06-13T09:23:51Z</time>
<speed>0.6</speed>
</trkpt>
<trkpt lat="47.241104" lon="8.844873">
<ele>432.2</ele>
<time>2003-06-13T09:23:56Z</time>
<speed>0.6</speed>
</trkpt>
<trkpt lat="47.241128" lon="8.844888">
<ele>433.8</ele>
<time>2003-06-13T09:24:01Z</time>
<speed>0.3</speed>
</trkpt>
<trkpt lat="47.241178" lon="8.844894">
<ele>435.5</ele>
<time>2003-06-13T09:24:06Z</time>
<speed>0.6</speed>
</trkpt>
<trkpt lat="47.241225" lon="8.844861">
<ele>436.1</ele>
<time>2003-06-13T09:24:11Z</time>
<speed>0.3</speed>
</trkpt>
<trkpt lat="47.241254" lon="8.844826">
<ele>435.9</ele>
<time>2003-06-13T09:24:16Z</time>
<speed>0.6</speed>
</trkpt>
<trkpt lat="47.241260" lon="8.844828">
<ele>435.3</ele>
<time>2003-06-13T09:24:21Z</time>
<speed>0.0</speed>
</trkpt>
<trkpt lat="47.241260" lon="8.844828">
<ele>435.3</ele>
<time>2003-06-13T09:24:26Z</time>
<speed>0.0</speed>
</trkpt>
<trkpt lat="47.241255" lon="8.844813">
<ele>435.8</ele>
<time>2003-06-13T09:24:31Z</time>
<speed>0.0</speed>
</trkpt>
<trkpt lat="47.241255" lon="8.844813">
<ele>435.8</ele>
<time>2003-06-13T09:24:36Z</time>
<speed>0.0</speed>
</trkpt>
<trkpt lat="47.241261" lon="8.844813">
<ele>436.6</ele>
<time>2003-06-13T09:24:41Z</time>
<speed>0.0</speed>
</trkpt>
<trkpt lat="47.241261" lon="8.844813">
<ele>436.6</ele>
<time>2003-06-13T09:24:46Z</time>
<speed>0.0</speed>
</trkpt>
<trkpt lat="47.241261" lon="8.844813">
<ele>436.6</ele>
<time>2003-06-13T09:24:51Z</time>
<speed>0.0</speed>
</trkpt>
<trkpt lat="47.241261" lon="8.844813">
<ele>436.6</ele>
<time>2003-06-13T09:24:56Z</time>
<speed>0.0</speed>
</trkpt>
<trkpt lat="47.241261" lon="8.844813">
<ele>436.6</ele>
<time>2003-06-13T09:25:01Z</time>
<speed>0.0</speed>
</trkpt>
<trkpt lat="47.241261" lon="8.844813">
<ele>436.6</ele>
<time>2003-06-13T09:25:06Z</time>
<speed>0.0</speed>
</trkpt>
<trkpt lat="47.241261" lon="8.844813">
<ele>436.6</ele>
<time>2003-06-13T09:25:11Z</time>
<speed>0.0</speed>
</trkpt>
<trkpt lat="47.241261" lon="8.844813">
<ele>436.6</ele>
<time>2003-06-13T09:25:16Z</time>
<speed>0.0</speed>
</trkpt>
<trkpt lat="47.241254" lon="8.844811">
<ele>437.2</ele>
<time>2003-06-13T09:25:21Z</time>
<speed>0.0</speed>
</trkpt>
<trkpt lat="47.241254" lon="8.844811">
<ele>437.2</ele>
<time>2003-06-13T09:25:26Z</time>
<speed>0.0</speed>
</trkpt>
<trkpt lat="47.241254" lon="8.844811">
<ele>437.2</ele>
<time>2003-06-13T09:25:31Z</time>
<speed>0.0</speed>
</trkpt>
<trkpt lat="47.241254" lon="8.844811">
<ele>437.2</ele>
<time>2003-06-13T09:25:36Z</time>
<speed>0.0</speed>
</trkpt>
<trkpt lat="47.241242" lon="8.844811">
<ele>435.8</ele>
<time>2003-06-13T09:25:41Z</time>
<speed>0.0</speed>
</trkpt>
<trkpt lat="47.241237" lon="8.844796">
<ele>436.3</ele>
<time>2003-06-13T09:25:46Z</time>
<speed>0.0</speed>
</trkpt>
<trkpt lat="47.241196" lon="8.844829">
<ele>436.4</ele>
<time>2003-06-13T09:25:51Z</time>
<speed>1.1</speed>
</trkpt>
<trkpt lat="47.241160" lon="8.844875">
<ele>437.4</ele>
<time>2003-06-13T09:25:56Z</time>
<speed>0.8</speed>
</trkpt>
<trkpt lat="47.241130" lon="8.844923">
<ele>437.7</ele>
<time>2003-06-13T09:26:01Z</time>
<speed>0.3</speed>
</trkpt>
<trkpt lat="47.241104" lon="8.844947">
<ele>436.4</ele>
<time>2003-06-13T09:26:06Z</time>
<speed>0.6</speed>
</trkpt>
<trkpt lat="47.241069" lon="8.844982">
<ele>435.8</ele>
<time>2003-06-13T09:26:11Z</time>
<speed>0.6</speed>
</trkpt>
<trkpt lat="47.241037" lon="8.844991">
<ele>435.1</ele>
<time>2003-06-13T09:26:16Z</time>
<speed>0.3</speed>
</trkpt>
<trkpt lat="47.241021" lon="8.845029">
<ele>435.3</ele>
<time>2003-06-13T09:26:21Z</time>
<speed>0.0</speed>
</trkpt>
<trkpt lat="47.241001" lon="8.845038">
<ele>436.0</ele>
<time>2003-06-13T09:26:26Z</time>
<speed>0.3</speed>
</trkpt>
<trkpt lat="47.241016" lon="8.845094">
<ele>435.8</ele>
<time>2003-06-13T09:26:31Z</time>
<speed>0.3</speed>
</trkpt>
<trkpt lat="47.241038" lon="8.845135">
<ele>437.7</ele>
<time>2003-06-13T09:26:36Z</time>
<speed>0.6</speed>
</trkpt>
<trkpt lat="47.241040" lon="8.845187">
<ele>438.8</ele>
<time>2003-06-13T09:26:41Z</time>
<speed>0.6</speed>
</trkpt>
<trkpt lat="47.241062" lon="8.845230">
<ele>439.3</ele>
<time>2003-06-13T09:26:46Z</time>
<speed>0.6</speed>
</trkpt>
<trkpt lat="47.241086" lon="8.845263">
<ele>438.2</ele>
<time>2003-06-13T09:26:51Z</time>
<speed>0.0</speed>
</trkpt>
<trkpt lat="47.241094" lon="8.845239">
<ele>437.3</ele>
<time>2003-06-13T09:26:56Z</time>
<speed>0.6</speed>
</trkpt>
<trkpt lat="47.241096" lon="8.845212">
<ele>437.1</ele>
<time>2003-06-13T09:27:01Z</time>
<speed>0.0</speed>
</trkpt>
<trkpt lat="47.241091" lon="8.845197">
<ele>437.7</ele>
<time>2003-06-13T09:27:06Z</time>
<speed>0.3</speed>
</trkpt>
<trkpt lat="47.241069" lon="8.845217">
<ele>439.9</ele>
<time>2003-06-13T09:27:11Z</time>
<speed>0.3</speed>
</trkpt>
<trkpt lat="47.241086" lon="8.845246">
<ele>440.9</ele>
<time>2003-06-13T09:27:16Z</time>
<speed>0.3</speed>
</trkpt>
<trkpt lat="47.241085" lon="8.845259">
<ele>441.0</ele>
<time>2003-06-13T09:27:21Z</time>
<speed>0.0</speed>
</trkpt>
<trkpt lat="47.241085" lon="8.845259">
<ele>441.0</ele>
<time>2003-06-13T09:27:26Z</time>
<speed>0.0</speed>
</trkpt>
<trkpt lat="47.241090" lon="8.845255">
<ele>444.6</ele>
<time>2003-06-13T09:27:31Z</time>
<speed>0.3</speed>
</trkpt>
<trkpt lat="47.241114" lon="8.845252">
<ele>448.9</ele>
<time>2003-06-13T09:27:36Z</time>
<speed>0.0</speed>
</trkpt>
<trkpt lat="47.241153" lon="8.845243">
<ele>450.4</ele>
<time>2003-06-13T09:27:41Z</time>
<speed>0.3</speed>
</trkpt>
<trkpt lat="47.241181" lon="8.845206">
<ele>451.6</ele>
<time>2003-06-13T09:27:46Z</time>
<speed>0.3</speed>
</trkpt>
<trkpt lat="47.241195" lon="8.845197">
<ele>450.2</ele>
<time>2003-06-13T09:27:51Z</time>
<speed>0.0</speed>
</trkpt>
<trkpt lat="47.241218" lon="8.845149">
<ele>449.1</ele>
<time>2003-06-13T09:27:56Z</time>
<speed>0.3</speed>
</trkpt>
<trkpt lat="47.241226" lon="8.845064">
<ele>444.2</ele>
<time>2003-06-13T09:28:01Z</time>
<speed>0.6</speed>
</trkpt>
<trkpt lat="47.241229" lon="8.844962">
<ele>441.2</ele>
<time>2003-06-13T09:28:06Z</time>
<speed>0.3</speed>
</trkpt>
<trkpt lat="47.241233" lon="8.844894">
<ele>442.1</ele>
<time>2003-06-13T09:28:11Z</time>
<speed>0.3</speed>
</trkpt>
<trkpt lat="47.241242" lon="8.844855">
<ele>442.5</ele>
<time>2003-06-13T09:28:16Z</time>
<speed>0.3</speed>
</trkpt>
<trkpt lat="47.241271" lon="8.844820">
<ele>442.3</ele>
<time>2003-06-13T09:28:21Z</time>
<speed>0.8</speed>
</trkpt>
<trkpt lat="47.241293" lon="8.844785">
<ele>441.4</ele>
<time>2003-06-13T09:28:26Z</time>
<speed>0.3</speed>
</trkpt>
<trkpt lat="47.241318" lon="8.844789">
<ele>441.5</ele>
<time>2003-06-13T09:28:31Z</time>
<speed>0.0</speed>
</trkpt>
<trkpt lat="47.241312" lon="8.844789">
<ele>440.8</ele>
<time>2003-06-13T09:28:36Z</time>
<speed>0.0</speed>
</trkpt>
<trkpt lat="47.241306" lon="8.844787">
<ele>441.5</ele>
<time>2003-06-13T09:28:41Z</time>
<speed>0.0</speed>
</trkpt>
<trkpt lat="47.241299" lon="8.844787">
<ele>440.7</ele>
<time>2003-06-13T09:28:46Z</time>
<speed>0.0</speed>
</trkpt>
<trkpt lat="47.241293" lon="8.844785">
<ele>441.4</ele>
<time>2003-06-13T09:28:51Z</time>
<speed>0.0</speed>
</trkpt>
<trkpt lat="47.241293" lon="8.844785">
<ele>441.4</ele>
<time>2003-06-13T09:28:56Z</time>
<speed>0.0</speed>
</trkpt>
<trkpt lat="47.241292" lon="8.844798">
<ele>441.5</ele>
<time>2003-06-13T09:29:01Z</time>
<speed>0.0</speed>
</trkpt>
<trkpt lat="47.241286" lon="8.844798">
<ele>440.8</ele>
<time>2003-06-13T09:29:06Z</time>
<speed>0.0</speed>
</trkpt>
<trkpt lat="47.241286" lon="8.844798">
<ele>440.8</ele>
<time>2003-06-13T09:29:11Z</time>
<speed>0.0</speed>
</trkpt>
<trkpt lat="47.241286" lon="8.844798">
<ele>440.8</ele>
<time>2003-06-13T09:29:16Z</time>
<speed>0.0</speed>
</trkpt>
<trkpt lat="47.241286" lon="8.844798">
<ele>440.8</ele>
<time>2003-06-13T09:29:21Z</time>
<speed>0.0</speed>
</trkpt>
<trkpt lat="47.241286" lon="8.844798">
<ele>440.8</ele>
<time>2003-06-13T09:29:26Z</time>
<speed>0.0</speed>
</trkpt>
<trkpt lat="47.241280" lon="8.844798">
<ele>440.1</ele>
<time>2003-06-13T09:29:31Z</time>
<speed>0.0</speed>
</trkpt>
<trkpt lat="47.241280" lon="8.844798">
<ele>440.1</ele>
<time>2003-06-13T09:29:36Z</time>
<speed>0.0</speed>
</trkpt>
<trkpt lat="47.241280" lon="8.844798">
<ele>440.1</ele>
<time>2003-06-13T09:29:41Z</time>
<speed>0.0</speed>
</trkpt>
<trkpt lat="47.241280" lon="8.844798">
<ele>440.1</ele>
<time>2003-06-13T09:29:46Z</time>
<speed>0.0</speed>
</trkpt>
<trkpt lat="47.241280" lon="8.844798">
<ele>440.1</ele>
<time>2003-06-13T09:29:51Z</time>
<speed>0.0</speed>
</trkpt>
<trkpt lat="47.241280" lon="8.844798">
<ele>440.1</ele>
<time>2003-06-13T09:29:56Z</time>
<speed>0.0</speed>
</trkpt>
<trkpt lat="47.241280" lon="8.844798">
<ele>440.1</ele>
<time>2003-06-13T09:30:01Z</time>
<speed>0.0</speed>
</trkpt>
<trkpt lat="47.241280" lon="8.844798">
<ele>440.1</ele>
<time>2003-06-13T09:30:06Z</time>
<speed>0.0</speed>
</trkpt>
<trkpt lat="47.241291" lon="8.844813">
<ele>440.2</ele>
<time>2003-06-13T09:30:11Z</time>
<speed>0.0</speed>
</trkpt>
<trkpt lat="47.241285" lon="8.844813">
<ele>439.5</ele>
<time>2003-06-13T09:30:16Z</time>
<speed>0.0</speed>
</trkpt>
<trkpt lat="47.241285" lon="8.844813">
<ele>439.5</ele>
<time>2003-06-13T09:30:21Z</time>
<speed>0.0</speed>
</trkpt>
<trkpt lat="47.241285" lon="8.844813">
<ele>439.5</ele>
<time>2003-06-13T09:30:26Z</time>
<speed>0.0</speed>
</trkpt>
<trkpt lat="47.241285" lon="8.844813">
<ele>439.5</ele>
<time>2003-06-13T09:30:31Z</time>
<speed>0.0</speed>
</trkpt>
<trkpt lat="47.241285" lon="8.844813">
<ele>439.5</ele>
<time>2003-06-13T09:30:36Z</time>
<speed>0.0</speed>
</trkpt>
<trkpt lat="47.241285" lon="8.844813">
<ele>439.5</ele>
<time>2003-06-13T09:30:41Z</time>
<speed>0.0</speed>
</trkpt>
<trkpt lat="47.241285" lon="8.844813">
<ele>439.5</ele>
<time>2003-06-13T09:30:46Z</time>
<speed>0.0</speed>
</trkpt>
<trkpt lat="47.241291" lon="8.844813">
<ele>440.2</ele>
<time>2003-06-13T09:30:51Z</time>
<speed>0.0</speed>
</trkpt>
<trkpt lat="47.241292" lon="8.844800">
<ele>440.1</ele>
<time>2003-06-13T09:30:56Z</time>
<speed>0.0</speed>
</trkpt>
<trkpt lat="47.241298" lon="8.844800">
<ele>440.9</ele>
<time>2003-06-13T09:31:01Z</time>
<speed>0.0</speed>
</trkpt>
<trkpt lat="47.241298" lon="8.844800">
<ele>440.9</ele>
<time>2003-06-13T09:31:06Z</time>
<speed>0.0</speed>
</trkpt>
<trkpt lat="47.241298" lon="8.844800">
<ele>440.9</ele>
<time>2003-06-13T09:31:11Z</time>
<speed>0.0</speed>
</trkpt>
<trkpt lat="47.241298" lon="8.844800">
<ele>440.9</ele>
<time>2003-06-13T09:31:16Z</time>
<speed>0.0</speed>
</trkpt>
<trkpt lat="47.241298" lon="8.844800">
<ele>440.9</ele>
<time>2003-06-13T09:31:21Z</time>
<speed>0.0</speed>
</trkpt>
<trkpt lat="47.241298" lon="8.844800">
<ele>440.9</ele>
<time>2003-06-13T09:31:26Z</time>
<speed>0.0</speed>
</trkpt>
<trkpt lat="47.241311" lon="8.844802">
<ele>440.9</ele>
<time>2003-06-13T09:31:31Z</time>
<speed>0.0</speed>
</trkpt>
<trkpt lat="47.241311" lon="8.844802">
<ele>440.9</ele>
<time>2003-06-13T09:31:36Z</time>
<speed>0.0</speed>
</trkpt>
<trkpt lat="47.241311" lon="8.844802">
<ele>440.9</ele>
<time>2003-06-13T09:31:41Z</time>
<speed>0.0</speed>
</trkpt>
<trkpt lat="47.241311" lon="8.844802">
<ele>440.9</ele>
<time>2003-06-13T09:31:46Z</time>
<speed>0.0</speed>
</trkpt>
<trkpt lat="47.241311" lon="8.844802">
<ele>440.9</ele>
<time>2003-06-13T09:31:51Z</time>
<speed>0.0</speed>
</trkpt>
<trkpt lat="47.241311" lon="8.844802">
<ele>440.9</ele>
<time>2003-06-13T09:31:56Z</time>
<speed>0.0</speed>
</trkpt>
<trkpt lat="47.241311" lon="8.844802">
<ele>440.9</ele>
<time>2003-06-13T09:32:01Z</time>
<speed>0.0</speed>
</trkpt>
<trkpt lat="47.241312" lon="8.844789">
<ele>440.8</ele>
<time>2003-06-13T09:32:06Z</time>
<speed>0.0</speed>
</trkpt>
<trkpt lat="47.241305" lon="8.844800">
<ele>441.6</ele>
<time>2003-06-13T09:32:11Z</time>
<speed>0.0</speed>
</trkpt>
<trkpt lat="47.241298" lon="8.844800">
<ele>440.9</ele>
<time>2003-06-13T09:32:16Z</time>
<speed>0.0</speed>
</trkpt>
<trkpt lat="47.241319" lon="8.844791">
<ele>440.1</ele>
<time>2003-06-13T09:32:21Z</time>
<speed>0.3</speed>
</trkpt>
<trkpt lat="47.241326" lon="8.844780">
<ele>439.4</ele>
<time>2003-06-13T09:32:26Z</time>
<speed>0.0</speed>
</trkpt>
<trkpt lat="47.241325" lon="8.844793">
<ele>439.5</ele>
<time>2003-06-13T09:32:31Z</time>
<speed>0.0</speed>
</trkpt>
<trkpt lat="47.241325" lon="8.844793">
<ele>439.5</ele>
<time>2003-06-13T09:32:36Z</time>
<speed>0.0</speed>
</trkpt>
<trkpt lat="47.241325" lon="8.844793">
<ele>439.5</ele>
<time>2003-06-13T09:32:41Z</time>
<speed>0.0</speed>
</trkpt>
<trkpt lat="47.241325" lon="8.844793">
<ele>439.5</ele>
<time>2003-06-13T09:32:46Z</time>
<speed>0.0</speed>
</trkpt>
<trkpt lat="47.241325" lon="8.844793">
<ele>439.5</ele>
<time>2003-06-13T09:32:51Z</time>
<speed>0.0</speed>
</trkpt>
<trkpt lat="47.241325" lon="8.844793">
<ele>439.5</ele>
<time>2003-06-13T09:32:56Z</time>
<speed>0.0</speed>
</trkpt>
<trkpt lat="47.241319" lon="8.844793">
<ele>438.7</ele>
<time>2003-06-13T09:33:01Z</time>
<speed>0.0</speed>
</trkpt>
<trkpt lat="47.241312" lon="8.844791">
<ele>439.4</ele>
<time>2003-06-13T09:33:06Z</time>
<speed>0.0</speed>
</trkpt>
<trkpt lat="47.241305" lon="8.844804">
<ele>438.8</ele>
<time>2003-06-13T09:33:11Z</time>
<speed>0.0</speed>
</trkpt>
<trkpt lat="47.241305" lon="8.844804">
<ele>438.8</ele>
<time>2003-06-13T09:33:16Z</time>
<speed>0.0</speed>
</trkpt>
<trkpt lat="47.241305" lon="8.844804">
<ele>438.8</ele>
<time>2003-06-13T09:33:21Z</time>
<speed>0.0</speed>
</trkpt>
<trkpt lat="47.241305" lon="8.844804">
<ele>438.8</ele>
<time>2003-06-13T09:33:26Z</time>
<speed>0.0</speed>
</trkpt>
<trkpt lat="47.241293" lon="8.844802">
<ele>438.7</ele>
<time>2003-06-13T09:33:31Z</time>
<speed>0.0</speed>
</trkpt>
<trkpt lat="47.241287" lon="8.844802">
<ele>438.0</ele>
<time>2003-06-13T09:33:36Z</time>
<speed>0.0</speed>
</trkpt>
<trkpt lat="47.241287" lon="8.844802">
<ele>438.0</ele>
<time>2003-06-13T09:33:41Z</time>
<speed>0.0</speed>
</trkpt>
<trkpt lat="47.241287" lon="8.844802">
<ele>438.0</ele>
<time>2003-06-13T09:33:46Z</time>
<speed>0.0</speed>
</trkpt>
<trkpt lat="47.241287" lon="8.844802">
<ele>438.0</ele>
<time>2003-06-13T09:33:51Z</time>
<speed>0.0</speed>
</trkpt>
<trkpt lat="47.241287" lon="8.844802">
<ele>438.0</ele>
<time>2003-06-13T09:33:56Z</time>
<speed>0.0</speed>
</trkpt>
<trkpt lat="47.241287" lon="8.844802">
<ele>438.0</ele>
<time>2003-06-13T09:34:01Z</time>
<speed>0.0</speed>
</trkpt>
<trkpt lat="47.241286" lon="8.844815">
<ele>438.1</ele>
<time>2003-06-13T09:34:06Z</time>
<speed>0.0</speed>
</trkpt>
<trkpt lat="47.241280" lon="8.844815">
<ele>437.4</ele>
<time>2003-06-13T09:34:11Z</time>
<speed>0.0</speed>
</trkpt>
<trkpt lat="47.241280" lon="8.844815">
<ele>437.4</ele>
<time>2003-06-13T09:34:16Z</time>
<speed>0.0</speed>
</trkpt>
<trkpt lat="47.241278" lon="8.844828">
<ele>437.5</ele>
<time>2003-06-13T09:34:21Z</time>
<speed>0.0</speed>
</trkpt>
<trkpt lat="47.241272" lon="8.844828">
<ele>436.7</ele>
<time>2003-06-13T09:34:26Z</time>
<speed>0.0</speed>
</trkpt>
<trkpt lat="47.241272" lon="8.844828">
<ele>436.7</ele>
<time>2003-06-13T09:34:31Z</time>
<speed>0.0</speed>
</trkpt>
<trkpt lat="47.241265" lon="8.844841">
<ele>436.1</ele>
<time>2003-06-13T09:34:36Z</time>
<speed>0.0</speed>
</trkpt>
<trkpt lat="47.241265" lon="8.844841">
<ele>436.1</ele>
<time>2003-06-13T09:34:41Z</time>
<speed>0.0</speed>
</trkpt>
<trkpt lat="47.241265" lon="8.844841">
<ele>436.1</ele>
<time>2003-06-13T09:34:46Z</time>
<speed>0.0</speed>
</trkpt>
<trkpt lat="47.241265" lon="8.844841">
<ele>436.1</ele>
<time>2003-06-13T09:34:51Z</time>
<speed>0.0</speed>
</trkpt>
<trkpt lat="47.241265" lon="8.844841">
<ele>436.1</ele>
<time>2003-06-13T09:34:56Z</time>
<speed>0.0</speed>
</trkpt>
<trkpt lat="47.241265" lon="8.844841">
<ele>436.1</ele>
<time>2003-06-13T09:35:01Z</time>
<speed>0.0</speed>
</trkpt>
<trkpt lat="47.241265" lon="8.844841">
<ele>436.1</ele>
<time>2003-06-13T09:35:06Z</time>
<speed>0.0</speed>
</trkpt>
<trkpt lat="47.241265" lon="8.844841">
<ele>436.1</ele>
<time>2003-06-13T09:35:11Z</time>
<speed>0.0</speed>
</trkpt>
<trkpt lat="47.241265" lon="8.844841">
<ele>436.1</ele>
<time>2003-06-13T09:35:16Z</time>
<speed>0.0</speed>
</trkpt>
<trkpt lat="47.241265" lon="8.844841">
<ele>436.1</ele>
<time>2003-06-13T09:35:21Z</time>
<speed>0.0</speed>
</trkpt>
<trkpt lat="47.241265" lon="8.844841">
<ele>436.1</ele>
<time>2003-06-13T09:35:26Z</time>
<speed>0.0</speed>
</trkpt>
<trkpt lat="47.241265" lon="8.844841">
<ele>436.1</ele>
<time>2003-06-13T09:35:31Z</time>
<speed>0.0</speed>
</trkpt>
<trkpt lat="47.241265" lon="8.844841">
<ele>436.1</ele>
<time>2003-06-13T09:35:36Z</time>
<speed>0.0</speed>
</trkpt>
<trkpt lat="47.241265" lon="8.844841">
<ele>436.1</ele>
<time>2003-06-13T09:35:41Z</time>
<speed>0.0</speed>
</trkpt>
<trkpt lat="47.241265" lon="8.844841">
<ele>436.1</ele>
<time>2003-06-13T09:35:46Z</time>
<speed>0.0</speed>
</trkpt>
<trkpt lat="47.241265" lon="8.844841">
<ele>436.1</ele>
<time>2003-06-13T09:35:51Z</time>
<speed>0.0</speed>
</trkpt>
<trkpt lat="47.241278" lon="8.844843">
<ele>436.2</ele>
<time>2003-06-13T09:35:56Z</time>
<speed>0.0</speed>
</trkpt>
<trkpt lat="47.241278" lon="8.844843">
<ele>436.2</ele>
<time>2003-06-13T09:36:01Z</time>
<speed>0.0</speed>
</trkpt>
<trkpt lat="47.241278" lon="8.844843">
<ele>436.2</ele>
<time>2003-06-13T09:36:06Z</time>
<speed>0.0</speed>
</trkpt>
<trkpt lat="47.241278" lon="8.844843">
<ele>436.2</ele>
<time>2003-06-13T09:36:11Z</time>
<speed>0.0</speed>
</trkpt>
<trkpt lat="47.241278" lon="8.844843">
<ele>436.2</ele>
<time>2003-06-13T09:36:16Z</time>
<speed>0.0</speed>
</trkpt>
<trkpt lat="47.241278" lon="8.844843">
<ele>436.2</ele>
<time>2003-06-13T09:36:21Z</time>
<speed>0.0</speed>
</trkpt>
<trkpt lat="47.241278" lon="8.844843">
<ele>436.2</ele>
<time>2003-06-13T09:36:26Z</time>
<speed>0.0</speed>
</trkpt>
<trkpt lat="47.241277" lon="8.844856">
<ele>436.3</ele>
<time>2003-06-13T09:36:31Z</time>
<speed>0.0</speed>
</trkpt>
<trkpt lat="47.241277" lon="8.844856">
<ele>436.3</ele>
<time>2003-06-13T09:36:36Z</time>
<speed>0.0</speed>
</trkpt>
<trkpt lat="47.241277" lon="8.844856">
<ele>436.3</ele>
<time>2003-06-13T09:36:41Z</time>
<speed>0.0</speed>
</trkpt>
<trkpt lat="47.241277" lon="8.844856">
<ele>436.3</ele>
<time>2003-06-13T09:36:46Z</time>
<speed>0.0</speed>
</trkpt>
<trkpt lat="47.241277" lon="8.844856">
<ele>436.3</ele>
<time>2003-06-13T09:36:51Z</time>
<speed>0.0</speed>
</trkpt>
<trkpt lat="47.241277" lon="8.844856">
<ele>436.3</ele>
<time>2003-06-13T09:36:56Z</time>
<speed>0.0</speed>
</trkpt>
<trkpt lat="47.241277" lon="8.844856">
<ele>436.3</ele>
<time>2003-06-13T09:37:01Z</time>
<speed>0.0</speed>
</trkpt>
<trkpt lat="47.241271" lon="8.844841">
<ele>436.8</ele>
<time>2003-06-13T09:37:06Z</time>
<speed>0.0</speed>
</trkpt>
<trkpt lat="47.241271" lon="8.844841">
<ele>436.8</ele>
<time>2003-06-13T09:37:11Z</time>
<speed>0.0</speed>
</trkpt>
<trkpt lat="47.241271" lon="8.844841">
<ele>436.8</ele>
<time>2003-06-13T09:37:16Z</time>
<speed>0.0</speed>
</trkpt>
<trkpt lat="47.241271" lon="8.844841">
<ele>436.8</ele>
<time>2003-06-13T09:37:21Z</time>
<speed>0.3</speed>
</trkpt>
<trkpt lat="47.241272" lon="8.844828">
<ele>436.7</ele>
<time>2003-06-13T09:37:26Z</time>
<speed>0.0</speed>
</trkpt>
<trkpt lat="47.241271" lon="8.844841">
<ele>436.8</ele>
<time>2003-06-13T09:37:31Z</time>
<speed>0.0</speed>
</trkpt>
<trkpt lat="47.241271" lon="8.844841">
<ele>436.8</ele>
<time>2003-06-13T09:37:36Z</time>
<speed>0.0</speed>
</trkpt>
<trkpt lat="47.241296" lon="8.844858">
<ele>437.1</ele>
<time>2003-06-13T09:37:41Z</time>
<speed>0.6</speed>
</trkpt>
<trkpt lat="47.241317" lon="8.844821">
<ele>437.5</ele>
<time>2003-06-13T09:37:46Z</time>
<speed>0.6</speed>
</trkpt>
<trkpt lat="47.241325" lon="8.844730">
<ele>436.8</ele>
<time>2003-06-13T09:37:51Z</time>
<speed>0.8</speed>
</trkpt>
<trkpt lat="47.241304" lon="8.844661">
<ele>436.2</ele>
<time>2003-06-13T09:37:56Z</time>
<speed>0.6</speed>
</trkpt>
<trkpt lat="47.241294" lon="8.844617">
<ele>437.2</ele>
<time>2003-06-13T09:38:01Z</time>
<speed>0.0</speed>
</trkpt>
<trkpt lat="47.241294" lon="8.844617">
<ele>437.2</ele>
<time>2003-06-13T09:38:06Z</time>
<speed>0.0</speed>
</trkpt>
<trkpt lat="47.241294" lon="8.844617">
<ele>437.2</ele>
<time>2003-06-13T09:38:11Z</time>
<speed>0.0</speed>
</trkpt>
<trkpt lat="47.241284" lon="8.844589">
<ele>436.9</ele>
<time>2003-06-13T09:38:16Z</time>
<speed>0.3</speed>
</trkpt>
<trkpt lat="47.241280" lon="8.844548">
<ele>437.3</ele>
<time>2003-06-13T09:38:21Z</time>
<speed>0.6</speed>
</trkpt>
<trkpt lat="47.241265" lon="8.844492">
<ele>437.5</ele>
<time>2003-06-13T09:38:26Z</time>
<speed>0.8</speed>
</trkpt>
<trkpt lat="47.241251" lon="8.844423">
<ele>437.6</ele>
<time>2003-06-13T09:38:31Z</time>
<speed>0.8</speed>
</trkpt>
<trkpt lat="47.241230" lon="8.844366">
<ele>437.0</ele>
<time>2003-06-13T09:38:36Z</time>
<speed>0.8</speed>
</trkpt>
<trkpt lat="47.241222" lon="8.844299">
<ele>436.4</ele>
<time>2003-06-13T09:38:41Z</time>
<speed>0.8</speed>
</trkpt>
<trkpt lat="47.241208" lon="8.844230">
<ele>436.5</ele>
<time>2003-06-13T09:38:46Z</time>
<speed>1.1</speed>
</trkpt>
<trkpt lat="47.241195" lon="8.844147">
<ele>436.5</ele>
<time>2003-06-13T09:38:51Z</time>
<speed>1.1</speed>
</trkpt>
<trkpt lat="47.241181" lon="8.844078">
<ele>436.6</ele>
<time>2003-06-13T09:38:56Z</time>
<speed>0.8</speed>
</trkpt>
<trkpt lat="47.241154" lon="8.844007">
<ele>436.6</ele>
<time>2003-06-13T09:39:01Z</time>
<speed>0.0</speed>
</trkpt>
<trkpt lat="47.241141" lon="8.843922">
<ele>438.0</ele>
<time>2003-06-13T09:39:06Z</time>
<speed>1.1</speed>
</trkpt>
<trkpt lat="47.241124" lon="8.843814">
<ele>437.0</ele>
<time>2003-06-13T09:39:11Z</time>
<speed>1.1</speed>
</trkpt>
<trkpt lat="47.241098" lon="8.843727">
<ele>438.3</ele>
<time>2003-06-13T09:39:16Z</time>
<speed>1.1</speed>
</trkpt>
<trkpt lat="47.241078" lon="8.843645">
<ele>437.6</ele>
<time>2003-06-13T09:39:21Z</time>
<speed>1.1</speed>
</trkpt>
<trkpt lat="47.241059" lon="8.843561">
<ele>438.2</ele>
<time>2003-06-13T09:39:26Z</time>
<speed>1.1</speed>
</trkpt>
<trkpt lat="47.241040" lon="8.843478">
<ele>437.5</ele>
<time>2003-06-13T09:39:31Z</time>
<speed>1.1</speed>
</trkpt>
<trkpt lat="47.241033" lon="8.843398">
<ele>436.8</ele>
<time>2003-06-13T09:39:36Z</time>
<speed>0.8</speed>
</trkpt>
<trkpt lat="47.241027" lon="8.843318">
<ele>436.1</ele>
<time>2003-06-13T09:39:41Z</time>
<speed>0.8</speed>
</trkpt>
<trkpt lat="47.241019" lon="8.843250">
<ele>435.5</ele>
<time>2003-06-13T09:39:46Z</time>
<speed>0.6</speed>
</trkpt>
<trkpt lat="47.240992" lon="8.843179">
<ele>435.5</ele>
<time>2003-06-13T09:39:51Z</time>
<speed>0.8</speed>
</trkpt>
<trkpt lat="47.240978" lon="8.843110">
<ele>435.6</ele>
<time>2003-06-13T09:39:56Z</time>
<speed>1.1</speed>
</trkpt>
<trkpt lat="47.240958" lon="8.843040">
<ele>435.0</ele>
<time>2003-06-13T09:40:01Z</time>
<speed>1.1</speed>
</trkpt>
<trkpt lat="47.240939" lon="8.842958">
<ele>434.2</ele>
<time>2003-06-13T09:40:06Z</time>
<speed>1.1</speed>
</trkpt>
<trkpt lat="47.240913" lon="8.842874">
<ele>434.1</ele>
<time>2003-06-13T09:40:11Z</time>
<speed>1.1</speed>
</trkpt>
<trkpt lat="47.240894" lon="8.842789">
<ele>434.8</ele>
<time>2003-06-13T09:40:16Z</time>
<speed>1.1</speed>
</trkpt>
<trkpt lat="47.240873" lon="8.842720">
<ele>434.2</ele>
<time>2003-06-13T09:40:21Z</time>
<speed>1.1</speed>
</trkpt>
<trkpt lat="47.240848" lon="8.842636">
<ele>434.1</ele>
<time>2003-06-13T09:40:26Z</time>
<speed>1.1</speed>
</trkpt>
<trkpt lat="47.240834" lon="8.842566">
<ele>434.2</ele>
<time>2003-06-13T09:40:31Z</time>
<speed>1.1</speed>
</trkpt>
<trkpt lat="47.240808" lon="8.842482">
<ele>434.1</ele>
<time>2003-06-13T09:40:36Z</time>
<speed>1.1</speed>
</trkpt>
<trkpt lat="47.240789" lon="8.842399">
<ele>433.3</ele>
<time>2003-06-13T09:40:41Z</time>
<speed>1.4</speed>
</trkpt>
<trkpt lat="47.240770" lon="8.842302">
<ele>433.9</ele>
<time>2003-06-13T09:40:46Z</time>
<speed>1.1</speed>
</trkpt>
<trkpt lat="47.240747" lon="8.842192">
<ele>433.6</ele>
<time>2003-06-13T09:40:52Z</time>
<speed>1.4</speed>
</trkpt>
<trkpt lat="47.240720" lon="8.842120">
<ele>433.6</ele>
<time>2003-06-13T09:40:57Z</time>
<speed>1.1</speed>
</trkpt>
<trkpt lat="47.240702" lon="8.842025">
<ele>432.7</ele>
<time>2003-06-13T09:41:02Z</time>
<speed>1.1</speed>
</trkpt>
<trkpt lat="47.240688" lon="8.841955">
<ele>432.8</ele>
<time>2003-06-13T09:41:07Z</time>
<speed>1.1</speed>
</trkpt>
<trkpt lat="47.240662" lon="8.841871">
<ele>432.7</ele>
<time>2003-06-13T09:41:12Z</time>
<speed>1.1</speed>
</trkpt>
<trkpt lat="47.240636" lon="8.841787">
<ele>432.7</ele>
<time>2003-06-13T09:41:17Z</time>
<speed>1.1</speed>
</trkpt>
<trkpt lat="47.240618" lon="8.841691">
<ele>431.8</ele>
<time>2003-06-13T09:41:22Z</time>
<speed>1.1</speed>
</trkpt>
<trkpt lat="47.240592" lon="8.841607">
<ele>431.7</ele>
<time>2003-06-13T09:41:27Z</time>
<speed>1.4</speed>
</trkpt>
<trkpt lat="47.240567" lon="8.841523">
<ele>431.6</ele>
<time>2003-06-13T09:41:32Z</time>
<speed>1.1</speed>
</trkpt>
<trkpt lat="47.240555" lon="8.841427">
<ele>431.5</ele>
<time>2003-06-13T09:41:37Z</time>
<speed>1.1</speed>
</trkpt>
<trkpt lat="47.240535" lon="8.841343">
<ele>432.2</ele>
<time>2003-06-13T09:41:42Z</time>
<speed>1.1</speed>
</trkpt>
<trkpt lat="47.240509" lon="8.841258">
<ele>432.1</ele>
<time>2003-06-13T09:41:47Z</time>
<speed>1.4</speed>
</trkpt>
<trkpt lat="47.240485" lon="8.841161">
<ele>431.9</ele>
<time>2003-06-13T09:41:52Z</time>
<speed>1.1</speed>
</trkpt>
<trkpt lat="47.240471" lon="8.841092">
<ele>432.0</ele>
<time>2003-06-13T09:41:57Z</time>
<speed>1.1</speed>
</trkpt>
<trkpt lat="47.240445" lon="8.841007">
<ele>431.9</ele>
<time>2003-06-13T09:42:02Z</time>
<speed>1.1</speed>
</trkpt>
<trkpt lat="47.240425" lon="8.840923">
<ele>432.6</ele>
<time>2003-06-13T09:42:07Z</time>
<speed>1.1</speed>
</trkpt>
<trkpt lat="47.240400" lon="8.840840">
<ele>431.1</ele>
<time>2003-06-13T09:42:12Z</time>
<speed>1.1</speed>
</trkpt>
<trkpt lat="47.240380" lon="8.840756">
<ele>431.7</ele>
<time>2003-06-13T09:42:17Z</time>
<speed>1.1</speed>
</trkpt>
<trkpt lat="47.240361" lon="8.840672">
<ele>432.4</ele>
<time>2003-06-13T09:42:22Z</time>
<speed>1.1</speed>
</trkpt>
<trkpt lat="47.240335" lon="8.840587">
<ele>432.3</ele>
<time>2003-06-13T09:42:27Z</time>
<speed>1.1</speed>
</trkpt>
<trkpt lat="47.240314" lon="8.840516">
<ele>433.1</ele>
<time>2003-06-13T09:42:32Z</time>
<speed>0.8</speed>
</trkpt>
<trkpt lat="47.240289" lon="8.840432">
<ele>433.0</ele>
<time>2003-06-13T09:42:37Z</time>
<speed>0.8</speed>
</trkpt>
<trkpt lat="47.240268" lon="8.840360">
<ele>433.7</ele>
<time>2003-06-13T09:42:42Z</time>
<speed>0.8</speed>
</trkpt>
<trkpt lat="47.240230" lon="8.840274">
<ele>433.6</ele>
<time>2003-06-13T09:42:47Z</time>
<speed>1.1</speed>
</trkpt>
<trkpt lat="47.240203" lon="8.840202">
<ele>433.6</ele>
<time>2003-06-13T09:42:52Z</time>
<speed>0.8</speed>
</trkpt>
<trkpt lat="47.240176" lon="8.840131">
<ele>433.6</ele>
<time>2003-06-13T09:42:57Z</time>
<speed>0.8</speed>
</trkpt>
<trkpt lat="47.240156" lon="8.840060">
<ele>434.4</ele>
<time>2003-06-13T09:43:02Z</time>
<speed>0.8</speed>
</trkpt>
<trkpt lat="47.240123" lon="8.839986">
<ele>435.1</ele>
<time>2003-06-13T09:43:07Z</time>
<speed>0.8</speed>
</trkpt>
<trkpt lat="47.240098" lon="8.839889">
<ele>434.9</ele>
<time>2003-06-13T09:43:12Z</time>
<speed>1.1</speed>
</trkpt>
<trkpt lat="47.240079" lon="8.839790">
<ele>436.8</ele>
<time>2003-06-13T09:43:17Z</time>
<speed>1.1</speed>
</trkpt>
<trkpt lat="47.240058" lon="8.839718">
<ele>437.6</ele>
<time>2003-06-13T09:43:22Z</time>
<speed>0.8</speed>
</trkpt>
<trkpt lat="47.240051" lon="8.839636">
<ele>438.3</ele>
<time>2003-06-13T09:43:27Z</time>
<speed>0.6</speed>
</trkpt>
<trkpt lat="47.240043" lon="8.839582">
<ele>437.8</ele>
<time>2003-06-13T09:43:32Z</time>
<speed>0.8</speed>
</trkpt>
<trkpt lat="47.240023" lon="8.839497">
<ele>438.5</ele>
<time>2003-06-13T09:43:37Z</time>
<speed>0.8</speed>
</trkpt>
<trkpt lat="47.239989" lon="8.839422">
<ele>440.6</ele>
<time>2003-06-13T09:43:42Z</time>
<speed>0.8</speed>
</trkpt>
<trkpt lat="47.239974" lon="8.839366">
<ele>440.8</ele>
<time>2003-06-13T09:43:47Z</time>
<speed>0.8</speed>
</trkpt>
<trkpt lat="47.239954" lon="8.839296">
<ele>440.1</ele>
<time>2003-06-13T09:43:52Z</time>
<speed>0.8</speed>
</trkpt>
<trkpt lat="47.239934" lon="8.839227">
<ele>439.5</ele>
<time>2003-06-13T09:43:57Z</time>
<speed>0.8</speed>
</trkpt>
<trkpt lat="47.239922" lon="8.839134">
<ele>438.0</ele>
<time>2003-06-13T09:44:02Z</time>
<speed>1.1</speed>
</trkpt>
<trkpt lat="47.239902" lon="8.839064">
<ele>437.3</ele>
<time>2003-06-13T09:44:07Z</time>
<speed>1.1</speed>
</trkpt>
<trkpt lat="47.239882" lon="8.838993">
<ele>438.1</ele>
<time>2003-06-13T09:44:12Z</time>
<speed>0.8</speed>
</trkpt>
<trkpt lat="47.239862" lon="8.838911">
<ele>437.3</ele>
<time>2003-06-13T09:44:17Z</time>
<speed>0.8</speed>
</trkpt>
<trkpt lat="47.239856" lon="8.838830">
<ele>436.6</ele>
<time>2003-06-13T09:44:22Z</time>
<speed>0.8</speed>
</trkpt>
<trkpt lat="47.239831" lon="8.838731">
<ele>437.8</ele>
<time>2003-06-13T09:44:27Z</time>
<speed>0.8</speed>
</trkpt>
<trkpt lat="47.239799" lon="8.838644">
<ele>438.4</ele>
<time>2003-06-13T09:44:32Z</time>
<speed>1.1</speed>
</trkpt>
<trkpt lat="47.239773" lon="8.838560">
<ele>438.3</ele>
<time>2003-06-13T09:44:37Z</time>
<speed>0.8</speed>
</trkpt>
<trkpt lat="47.239761" lon="8.838465">
<ele>438.2</ele>
<time>2003-06-13T09:44:42Z</time>
<speed>1.1</speed>
</trkpt>
<trkpt lat="47.239749" lon="8.838369">
<ele>438.1</ele>
<time>2003-06-13T09:44:47Z</time>
<speed>1.1</speed>
</trkpt>
<trkpt lat="47.239741" lon="8.838302">
<ele>437.5</ele>
<time>2003-06-13T09:44:52Z</time>
<speed>0.8</speed>
</trkpt>
<trkpt lat="47.239703" lon="8.838200">
<ele>438.7</ele>
<time>2003-06-13T09:44:58Z</time>
<speed>0.8</speed>
</trkpt>
<trkpt lat="47.239677" lon="8.838129">
<ele>438.7</ele>
<time>2003-06-13T09:45:03Z</time>
<speed>0.8</speed>
</trkpt>
<trkpt lat="47.239643" lon="8.838056">
<ele>439.4</ele>
<time>2003-06-13T09:45:08Z</time>
<speed>1.1</speed>
</trkpt>
<trkpt lat="47.239618" lon="8.837973">
<ele>437.9</ele>
<time>2003-06-13T09:45:13Z</time>
<speed>1.1</speed>
</trkpt>
<trkpt lat="47.239605" lon="8.837891">
<ele>437.9</ele>
<time>2003-06-13T09:45:18Z</time>
<speed>1.1</speed>
</trkpt>
<trkpt lat="47.239592" lon="8.837811">
<ele>436.5</ele>
<time>2003-06-13T09:45:23Z</time>
<speed>0.8</speed>
</trkpt>
<trkpt lat="47.239585" lon="8.837743">
<ele>435.9</ele>
<time>2003-06-13T09:45:28Z</time>
<speed>0.8</speed>
</trkpt>
<trkpt lat="47.239578" lon="8.837663">
<ele>435.2</ele>
<time>2003-06-13T09:45:33Z</time>
<speed>0.8</speed>
</trkpt>
<trkpt lat="47.239565" lon="8.837581">
<ele>435.2</ele>
<time>2003-06-13T09:45:38Z</time>
<speed>0.8</speed>
</trkpt>
<trkpt lat="47.239553" lon="8.837485">
<ele>435.0</ele>
<time>2003-06-13T09:45:43Z</time>
<speed>0.6</speed>
</trkpt>
<trkpt lat="47.239533" lon="8.837414">
<ele>435.8</ele>
<time>2003-06-13T09:45:48Z</time>
<speed>1.1</speed>
</trkpt>
<trkpt lat="47.239499" lon="8.837341">
<ele>436.5</ele>
<time>2003-06-13T09:45:53Z</time>
<speed>1.1</speed>
</trkpt>
<trkpt lat="47.239448" lon="8.837267">
<ele>435.0</ele>
<time>2003-06-13T09:45:58Z</time>
<speed>1.1</speed>
</trkpt>
<trkpt lat="47.239414" lon="8.837207">
<ele>435.8</ele>
<time>2003-06-13T09:46:03Z</time>
<speed>0.8</speed>
</trkpt>
<trkpt lat="47.239375" lon="8.837136">
<ele>434.3</ele>
<time>2003-06-13T09:46:08Z</time>
<speed>0.8</speed>
</trkpt>
<trkpt lat="47.239327" lon="8.837088">
<ele>433.8</ele>
<time>2003-06-13T09:46:13Z</time>
<speed>1.1</speed>
</trkpt>
<trkpt lat="47.239273" lon="8.837054">
<ele>432.6</ele>
<time>2003-06-13T09:46:18Z</time>
<speed>0.8</speed>
</trkpt>
<trkpt lat="47.239204" lon="8.837031">
<ele>431.4</ele>
<time>2003-06-13T09:46:23Z</time>
<speed>1.1</speed>
</trkpt>
<trkpt lat="47.239149" lon="8.837010">
<ele>430.3</ele>
<time>2003-06-13T09:46:28Z</time>
<speed>0.8</speed>
</trkpt>
<trkpt lat="47.239080" lon="8.836985">
<ele>430.6</ele>
<time>2003-06-13T09:46:33Z</time>
<speed>1.1</speed>
</trkpt>
<trkpt lat="47.239024" lon="8.836963">
<ele>429.5</ele>
<time>2003-06-13T09:46:38Z</time>
<speed>1.1</speed>
</trkpt>
<trkpt lat="47.238967" lon="8.836953">
<ele>429.9</ele>
<time>2003-06-13T09:46:43Z</time>
<speed>1.1</speed>
</trkpt>
<trkpt lat="47.238905" lon="8.836930">
<ele>429.5</ele>
<time>2003-06-13T09:46:48Z</time>
<speed>1.1</speed>
</trkpt>
<trkpt lat="47.238849" lon="8.836907">
<ele>429.8</ele>
<time>2003-06-13T09:46:53Z</time>
<speed>1.1</speed>
</trkpt>
<trkpt lat="47.238794" lon="8.836886">
<ele>428.7</ele>
<time>2003-06-13T09:46:58Z</time>
<speed>1.1</speed>
</trkpt>
<trkpt lat="47.238743" lon="8.836878">
<ele>428.5</ele>
<time>2003-06-13T09:47:03Z</time>
<speed>0.8</speed>
</trkpt>
<trkpt lat="47.238700" lon="8.836856">
<ele>428.8</ele>
<time>2003-06-13T09:47:08Z</time>
<speed>1.1</speed>
</trkpt>
<trkpt lat="47.238651" lon="8.836822">
<ele>428.4</ele>
<time>2003-06-13T09:47:13Z</time>
<speed>0.8</speed>
</trkpt>
<trkpt lat="47.238607" lon="8.836814">
<ele>428.8</ele>
<time>2003-06-13T09:47:18Z</time>
<speed>0.8</speed>
</trkpt>
<trkpt lat="47.238549" lon="8.836819">
<ele>428.0</ele>
<time>2003-06-13T09:47:23Z</time>
<speed>1.1</speed>
</trkpt>
<trkpt lat="47.238493" lon="8.836796">
<ele>428.3</ele>
<time>2003-06-13T09:47:28Z</time>
<speed>1.1</speed>
</trkpt>
<trkpt lat="47.238457" lon="8.836764">
<ele>427.9</ele>
<time>2003-06-13T09:47:33Z</time>
<speed>0.8</speed>
</trkpt>
<trkpt lat="47.238404" lon="8.836795">
<ele>427.9</ele>
<time>2003-06-13T09:47:38Z</time>
<speed>1.1</speed>
</trkpt>
<trkpt lat="47.238356" lon="8.836841">
<ele>427.4</ele>
<time>2003-06-13T09:47:43Z</time>
<speed>1.1</speed>
</trkpt>
<trkpt lat="47.238308" lon="8.836872">
<ele>428.2</ele>
<time>2003-06-13T09:47:48Z</time>
<speed>1.1</speed>
</trkpt>
<trkpt lat="47.238248" lon="8.836903">
<ele>427.6</ele>
<time>2003-06-13T09:47:53Z</time>
<speed>1.1</speed>
</trkpt>
<trkpt lat="47.238195" lon="8.836934">
<ele>427.6</ele>
<time>2003-06-13T09:47:58Z</time>
<speed>1.1</speed>
</trkpt>
<trkpt lat="47.238141" lon="8.836965">
<ele>427.7</ele>
<time>2003-06-13T09:48:03Z</time>
<speed>1.1</speed>
</trkpt>
<trkpt lat="47.238088" lon="8.836998">
<ele>426.3</ele>
<time>2003-06-13T09:48:08Z</time>
<speed>1.1</speed>
</trkpt>
<trkpt lat="47.238035" lon="8.837029">
<ele>426.4</ele>
<time>2003-06-13T09:48:13Z</time>
<speed>1.1</speed>
</trkpt>
<trkpt lat="47.237981" lon="8.837060">
<ele>426.4</ele>
<time>2003-06-13T09:48:18Z</time>
<speed>1.1</speed>
</trkpt>
<trkpt lat="47.237928" lon="8.837078">
<ele>426.4</ele>
<time>2003-06-13T09:48:23Z</time>
<speed>1.1</speed>
</trkpt>
<trkpt lat="47.237868" lon="8.837107">
<ele>427.1</ele>
<time>2003-06-13T09:48:28Z</time>
<speed>1.1</speed>
</trkpt>
<trkpt lat="47.237809" lon="8.837138">
<ele>426.5</ele>
<time>2003-06-13T09:48:33Z</time>
<speed>1.1</speed>
</trkpt>
<trkpt lat="47.237755" lon="8.837169">
<ele>426.5</ele>
<time>2003-06-13T09:48:38Z</time>
<speed>1.4</speed>
</trkpt>
<trkpt lat="47.237696" lon="8.837185">
<ele>427.1</ele>
<time>2003-06-13T09:48:43Z</time>
<speed>0.8</speed>
</trkpt>
<trkpt lat="47.237642" lon="8.837214">
<ele>428.6</ele>
<time>2003-06-13T09:48:48Z</time>
<speed>1.4</speed>
</trkpt>
<trkpt lat="47.237583" lon="8.837232">
<ele>427.8</ele>
<time>2003-06-13T09:48:53Z</time>
<speed>1.4</speed>
</trkpt>
<trkpt lat="47.237504" lon="8.837259">
<ele>427.8</ele>
<time>2003-06-13T09:48:59Z</time>
<speed>1.1</speed>
</trkpt>
<trkpt lat="47.237452" lon="8.837277">
<ele>427.7</ele>
<time>2003-06-13T09:49:04Z</time>
<speed>1.1</speed>
</trkpt>
<trkpt lat="47.237393" lon="8.837295">
<ele>426.9</ele>
<time>2003-06-13T09:49:09Z</time>
<speed>1.1</speed>
</trkpt>
<trkpt lat="47.237340" lon="8.837326">
<ele>427.0</ele>
<time>2003-06-13T09:49:14Z</time>
<speed>1.1</speed>
</trkpt>
<trkpt lat="47.237287" lon="8.837344">
<ele>427.0</ele>
<time>2003-06-13T09:49:19Z</time>
<speed>1.1</speed>
</trkpt>
<trkpt lat="47.237221" lon="8.837373">
<ele>427.0</ele>
<time>2003-06-13T09:49:24Z</time>
<speed>1.4</speed>
</trkpt>
<trkpt lat="47.237167" lon="8.837404">
<ele>427.0</ele>
<time>2003-06-13T09:49:29Z</time>
<speed>1.1</speed>
</trkpt>
<trkpt lat="47.237125" lon="8.837450">
<ele>427.2</ele>
<time>2003-06-13T09:49:34Z</time>
<speed>0.8</speed>
</trkpt>
<trkpt lat="47.237083" lon="8.837496">
<ele>427.5</ele>
<time>2003-06-13T09:49:39Z</time>
<speed>1.1</speed>
</trkpt>
<trkpt lat="47.237047" lon="8.837555">
<ele>428.5</ele>
<time>2003-06-13T09:49:44Z</time>
<speed>1.1</speed>
</trkpt>
<trkpt lat="47.237029" lon="8.837619">
<ele>429.0</ele>
<time>2003-06-13T09:49:49Z</time>
<speed>0.8</speed>
</trkpt>
<trkpt lat="47.236993" lon="8.837667">
<ele>428.5</ele>
<time>2003-06-13T09:49:54Z</time>
<speed>1.1</speed>
</trkpt>
<trkpt lat="47.236936" lon="8.837752">
<ele>427.6</ele>
<time>2003-06-13T09:49:59Z</time>
<speed>1.1</speed>
</trkpt>
<trkpt lat="47.236881" lon="8.837809">
<ele>427.9</ele>
<time>2003-06-13T09:50:04Z</time>
<speed>1.4</speed>
</trkpt>
<trkpt lat="47.236815" lon="8.837825">
<ele>427.8</ele>
<time>2003-06-13T09:50:09Z</time>
<speed>1.1</speed>
</trkpt>
<trkpt lat="47.236758" lon="8.837830">
<ele>426.9</ele>
<time>2003-06-13T09:50:14Z</time>
<speed>1.1</speed>
</trkpt>
<trkpt lat="47.236731" lon="8.837759">
<ele>426.9</ele>
<time>2003-06-13T09:50:19Z</time>
<speed>0.8</speed>
</trkpt>
<trkpt lat="47.236711" lon="8.837687">
<ele>427.7</ele>
<time>2003-06-13T09:50:24Z</time>
<speed>0.8</speed>
</trkpt>
<trkpt lat="47.236696" lon="8.837618">
<ele>427.8</ele>
<time>2003-06-13T09:50:29Z</time>
<speed>0.8</speed>
</trkpt>
<trkpt lat="47.236676" lon="8.837547">
<ele>428.5</ele>
<time>2003-06-13T09:50:34Z</time>
<speed>1.1</speed>
</trkpt>
<trkpt lat="47.236656" lon="8.837477">
<ele>427.9</ele>
<time>2003-06-13T09:50:39Z</time>
<speed>1.1</speed>
</trkpt>
<trkpt lat="47.236609" lon="8.837415">
<ele>428.6</ele>
<time>2003-06-13T09:50:44Z</time>
<speed>0.8</speed>
</trkpt>
<trkpt lat="47.236567" lon="8.837368">
<ele>428.8</ele>
<time>2003-06-13T09:50:49Z</time>
<speed>1.1</speed>
</trkpt>
<trkpt lat="47.236527" lon="8.837308">
<ele>428.8</ele>
<time>2003-06-13T09:50:54Z</time>
<speed>1.1</speed>
</trkpt>
<trkpt lat="47.236473" lon="8.837258">
<ele>428.9</ele>
<time>2003-06-13T09:50:59Z</time>
<speed>1.1</speed>
</trkpt>
<trkpt lat="47.236420" lon="8.837196">
<ele>428.9</ele>
<time>2003-06-13T09:51:04Z</time>
<speed>1.1</speed>
</trkpt>
<trkpt lat="47.236372" lon="8.837162">
<ele>428.5</ele>
<time>2003-06-13T09:51:09Z</time>
<speed>1.1</speed>
</trkpt>
<trkpt lat="47.236317" lon="8.837112">
<ele>428.6</ele>
<time>2003-06-13T09:51:14Z</time>
<speed>1.1</speed>
</trkpt>
<trkpt lat="47.236262" lon="8.837076">
<ele>428.8</ele>
<time>2003-06-13T09:51:19Z</time>
<speed>0.8</speed>
</trkpt>
<trkpt lat="47.236204" lon="8.837079">
<ele>429.3</ele>
<time>2003-06-13T09:51:24Z</time>
<speed>1.1</speed>
</trkpt>
<trkpt lat="47.236142" lon="8.837056">
<ele>428.9</ele>
<time>2003-06-13T09:51:29Z</time>
<speed>1.1</speed>
</trkpt>
<trkpt lat="47.236086" lon="8.837033">
<ele>429.2</ele>
<time>2003-06-13T09:51:34Z</time>
<speed>1.1</speed>
</trkpt>
<trkpt lat="47.236030" lon="8.837007">
<ele>430.9</ele>
<time>2003-06-13T09:51:39Z</time>
<speed>1.1</speed>
</trkpt>
<trkpt lat="47.235966" lon="8.836995">
<ele>432.0</ele>
<time>2003-06-13T09:51:44Z</time>
<speed>0.8</speed>
</trkpt>
<trkpt lat="47.235918" lon="8.836961">
<ele>431.6</ele>
<time>2003-06-13T09:51:49Z</time>
<speed>1.1</speed>
</trkpt>
<trkpt lat="47.235869" lon="8.836927">
<ele>431.1</ele>
<time>2003-06-13T09:51:54Z</time>
<speed>1.1</speed>
</trkpt>
<trkpt lat="47.235820" lon="8.836908">
<ele>429.3</ele>
<time>2003-06-13T09:51:59Z</time>
<speed>1.1</speed>
</trkpt>
<trkpt lat="47.235770" lon="8.836900">
<ele>429.1</ele>
<time>2003-06-13T09:52:04Z</time>
<speed>1.1</speed>
</trkpt>
<trkpt lat="47.235726" lon="8.836894">
<ele>428.2</ele>
<time>2003-06-13T09:52:09Z</time>
<speed>0.3</speed>
</trkpt>
<trkpt lat="47.235701" lon="8.836876">
<ele>427.9</ele>
<time>2003-06-13T09:52:14Z</time>
<speed>1.1</speed>
</trkpt>
<trkpt lat="47.235646" lon="8.836840">
<ele>428.1</ele>
<time>2003-06-13T09:52:19Z</time>
<speed>1.1</speed>
</trkpt>
<trkpt lat="47.235585" lon="8.836804">
<ele>427.6</ele>
<time>2003-06-13T09:52:24Z</time>
<speed>1.1</speed>
</trkpt>
<trkpt lat="47.235537" lon="8.836770">
<ele>427.2</ele>
<time>2003-06-13T09:52:29Z</time>
<speed>1.1</speed>
</trkpt>
<trkpt lat="47.235487" lon="8.836749">
<ele>426.8</ele>
<time>2003-06-13T09:52:34Z</time>
<speed>1.1</speed>
</trkpt>
<trkpt lat="47.235437" lon="8.836725">
<ele>427.8</ele>
<time>2003-06-13T09:52:39Z</time>
<speed>1.1</speed>
</trkpt>
<trkpt lat="47.235375" lon="8.836700">
<ele>428.8</ele>
<time>2003-06-13T09:52:44Z</time>
<speed>1.1</speed>
</trkpt>
<trkpt lat="47.235320" lon="8.836664">
<ele>429.0</ele>
<time>2003-06-13T09:52:49Z</time>
<speed>1.1</speed>
</trkpt>
<trkpt lat="47.235274" lon="8.836606">
<ele>427.0</ele>
<time>2003-06-13T09:52:54Z</time>
<speed>0.8</speed>
</trkpt>
<trkpt lat="47.235247" lon="8.836536">
<ele>425.6</ele>
<time>2003-06-13T09:52:59Z</time>
<speed>1.1</speed>
</trkpt>
<trkpt lat="47.235214" lon="8.836465">
<ele>424.9</ele>
<time>2003-06-13T09:53:04Z</time>
<speed>0.8</speed>
</trkpt>
<trkpt lat="47.235174" lon="8.836405">
<ele>424.9</ele>
<time>2003-06-13T09:53:09Z</time>
<speed>1.1</speed>
</trkpt>
<trkpt lat="47.235120" lon="8.836355">
<ele>425.0</ele>
<time>2003-06-13T09:53:14Z</time>
<speed>1.1</speed>
</trkpt>
<trkpt lat="47.235073" lon="8.836308">
<ele>424.5</ele>
<time>2003-06-13T09:53:19Z</time>
<speed>1.1</speed>
</trkpt>
<trkpt lat="47.235026" lon="8.836248">
<ele>423.8</ele>
<time>2003-06-13T09:53:24Z</time>
<speed>1.1</speed>
</trkpt>
<trkpt lat="47.234979" lon="8.836185">
<ele>424.5</ele>
<time>2003-06-13T09:53:29Z</time>
<speed>1.1</speed>
</trkpt>
<trkpt lat="47.234925" lon="8.836136">
<ele>424.6</ele>
<time>2003-06-13T09:53:34Z</time>
<speed>1.1</speed>
</trkpt>
<trkpt lat="47.234883" lon="8.836102">
<ele>424.9</ele>
<time>2003-06-13T09:53:39Z</time>
<speed>1.1</speed>
</trkpt>
<trkpt lat="47.234829" lon="8.836053">
<ele>425.0</ele>
<time>2003-06-13T09:53:44Z</time>
<speed>0.8</speed>
</trkpt>
<trkpt lat="47.234786" lon="8.836018">
<ele>425.3</ele>
<time>2003-06-13T09:53:49Z</time>
<speed>0.8</speed>
</trkpt>
<trkpt lat="47.234728" lon="8.836036">
<ele>424.5</ele>
<time>2003-06-13T09:53:54Z</time>
<speed>1.1</speed>
</trkpt>
<trkpt lat="47.234710" lon="8.836100">
<ele>425.0</ele>
<time>2003-06-13T09:53:59Z</time>
<speed>1.1</speed>
</trkpt>
<trkpt lat="47.234704" lon="8.836178">
<ele>425.6</ele>
<time>2003-06-13T09:54:04Z</time>
<speed>1.1</speed>
</trkpt>
<trkpt lat="47.234691" lon="8.836269">
<ele>425.6</ele>
<time>2003-06-13T09:54:09Z</time>
<speed>1.4</speed>
</trkpt>
<trkpt lat="47.234653" lon="8.836344">
<ele>425.4</ele>
<time>2003-06-13T09:54:14Z</time>
<speed>1.1</speed>
</trkpt>
<trkpt lat="47.234593" lon="8.836388">
<ele>424.8</ele>
<time>2003-06-13T09:54:19Z</time>
<speed>1.1</speed>
</trkpt>
<trkpt lat="47.234535" lon="8.836391">
<ele>425.3</ele>
<time>2003-06-13T09:54:24Z</time>
<speed>1.1</speed>
</trkpt>
<trkpt lat="47.234472" lon="8.836367">
<ele>424.9</ele>
<time>2003-06-13T09:54:29Z</time>
<speed>1.4</speed>
</trkpt>
<trkpt lat="47.234410" lon="8.836342">
<ele>425.9</ele>
<time>2003-06-13T09:54:34Z</time>
<speed>1.1</speed>
</trkpt>
<trkpt lat="47.234354" lon="8.836321">
<ele>424.8</ele>
<time>2003-06-13T09:54:39Z</time>
<speed>1.1</speed>
</trkpt>
<trkpt lat="47.234292" lon="8.836298">
<ele>424.4</ele>
<time>2003-06-13T09:54:44Z</time>
<speed>1.1</speed>
</trkpt>
<trkpt lat="47.234223" lon="8.836273">
<ele>424.6</ele>
<time>2003-06-13T09:54:49Z</time>
<speed>1.1</speed>
</trkpt>
<trkpt lat="47.234166" lon="8.836262">
<ele>425.0</ele>
<time>2003-06-13T09:54:54Z</time>
<speed>1.4</speed>
</trkpt>
<trkpt lat="47.234098" lon="8.836239">
<ele>423.9</ele>
<time>2003-06-13T09:54:59Z</time>
<speed>1.1</speed>
</trkpt>
<trkpt lat="47.234048" lon="8.836231">
<ele>423.6</ele>
<time>2003-06-13T09:55:04Z</time>
<speed>1.1</speed>
</trkpt>
<trkpt lat="47.233985" lon="8.836208">
<ele>423.2</ele>
<time>2003-06-13T09:55:09Z</time>
<speed>1.4</speed>
</trkpt>
<trkpt lat="47.233923" lon="8.836185">
<ele>422.8</ele>
<time>2003-06-13T09:55:14Z</time>
<speed>1.1</speed>
</trkpt>
<trkpt lat="47.233860" lon="8.836175">
<ele>422.5</ele>
<time>2003-06-13T09:55:19Z</time>
<speed>1.1</speed>
</trkpt>
<trkpt lat="47.233804" lon="8.836151">
<ele>422.8</ele>
<time>2003-06-13T09:55:24Z</time>
<speed>1.1</speed>
</trkpt>
<trkpt lat="47.233754" lon="8.836143">
<ele>422.5</ele>
<time>2003-06-13T09:55:29Z</time>
<speed>1.1</speed>
</trkpt>
<trkpt lat="47.233698" lon="8.836120">
<ele>422.8</ele>
<time>2003-06-13T09:55:34Z</time>
<speed>1.1</speed>
</trkpt>
<trkpt lat="47.233635" lon="8.836097">
<ele>422.4</ele>
<time>2003-06-13T09:55:39Z</time>
<speed>0.8</speed>
</trkpt>
<trkpt lat="47.233578" lon="8.836087">
<ele>422.8</ele>
<time>2003-06-13T09:55:44Z</time>
<speed>1.1</speed>
</trkpt>
<trkpt lat="47.233510" lon="8.836062">
<ele>423.1</ele>
<time>2003-06-13T09:55:49Z</time>
<speed>1.1</speed>
</trkpt>
<trkpt lat="47.233454" lon="8.836038">
<ele>423.4</ele>
<time>2003-06-13T09:55:54Z</time>
<speed>1.1</speed>
</trkpt>
<trkpt lat="47.233391" lon="8.836013">
<ele>424.4</ele>
<time>2003-06-13T09:55:59Z</time>
<speed>1.1</speed>
</trkpt>
<trkpt lat="47.233336" lon="8.835977">
<ele>424.6</ele>
<time>2003-06-13T09:56:04Z</time>
<speed>1.4</speed>
</trkpt>
<trkpt lat="47.233280" lon="8.835956">
<ele>423.5</ele>
<time>2003-06-13T09:56:09Z</time>
<speed>0.8</speed>
</trkpt>
<trkpt lat="47.233238" lon="8.835922">
<ele>423.8</ele>
<time>2003-06-13T09:56:14Z</time>
<speed>1.1</speed>
</trkpt>
<trkpt lat="47.233191" lon="8.835874">
<ele>423.2</ele>
<time>2003-06-13T09:56:19Z</time>
<speed>1.1</speed>
</trkpt>
<trkpt lat="47.233150" lon="8.835814">
<ele>423.3</ele>
<time>2003-06-13T09:56:24Z</time>
<speed>1.1</speed>
</trkpt>
<trkpt lat="47.233123" lon="8.835756">
<ele>423.4</ele>
<time>2003-06-13T09:56:29Z</time>
<speed>1.1</speed>
</trkpt>
<trkpt lat="47.233089" lon="8.835682">
<ele>424.1</ele>
<time>2003-06-13T09:56:34Z</time>
<speed>0.8</speed>
</trkpt>
<trkpt lat="47.233056" lon="8.835609">
<ele>424.8</ele>
<time>2003-06-13T09:56:39Z</time>
<speed>0.8</speed>
</trkpt>
<trkpt lat="47.233010" lon="8.835534">
<ele>425.4</ele>
<time>2003-06-13T09:56:45Z</time>
<speed>1.1</speed>
</trkpt>
<trkpt lat="47.232941" lon="8.835508">
<ele>425.7</ele>
<time>2003-06-13T09:56:50Z</time>
<speed>1.1</speed>
</trkpt>
<trkpt lat="47.232879" lon="8.835485">
<ele>425.3</ele>
<time>2003-06-13T09:56:55Z</time>
<speed>1.1</speed>
</trkpt>
<trkpt lat="47.232836" lon="8.835464">
<ele>425.6</ele>
<time>2003-06-13T09:57:00Z</time>
<speed>0.8</speed>
</trkpt>
<trkpt lat="47.232785" lon="8.835456">
<ele>425.4</ele>
<time>2003-06-13T09:57:05Z</time>
<speed>0.8</speed>
</trkpt>
<trkpt lat="47.232736" lon="8.835435">
<ele>425.0</ele>
<time>2003-06-13T09:57:10Z</time>
<speed>1.1</speed>
</trkpt>
<trkpt lat="47.232673" lon="8.835425">
<ele>424.7</ele>
<time>2003-06-13T09:57:15Z</time>
<speed>1.1</speed>
</trkpt>
<trkpt lat="47.232610" lon="8.835399">
<ele>425.7</ele>
<time>2003-06-13T09:57:20Z</time>
<speed>1.1</speed>
</trkpt>
<trkpt lat="47.232553" lon="8.835389">
<ele>426.1</ele>
<time>2003-06-13T09:57:25Z</time>
<speed>0.6</speed>
</trkpt>
<trkpt lat="47.232517" lon="8.835357">
<ele>425.7</ele>
<time>2003-06-13T09:57:30Z</time>
<speed>0.3</speed>
</trkpt>
<trkpt lat="47.232506" lon="8.835342">
<ele>425.6</ele>
<time>2003-06-13T09:57:35Z</time>
<speed>0.0</speed>
</trkpt>
<trkpt lat="47.232507" lon="8.835329">
<ele>425.4</ele>
<time>2003-06-13T09:57:40Z</time>
<speed>0.0</speed>
</trkpt>
<trkpt lat="47.232487" lon="8.835340">
<ele>424.8</ele>
<time>2003-06-13T09:57:45Z</time>
<speed>0.6</speed>
</trkpt>
<trkpt lat="47.232442" lon="8.835332">
<ele>425.2</ele>
<time>2003-06-13T09:57:50Z</time>
<speed>0.8</speed>
</trkpt>
<trkpt lat="47.232386" lon="8.835324">
<ele>424.2</ele>
<time>2003-06-13T09:57:55Z</time>
<speed>1.1</speed>
</trkpt>
<trkpt lat="47.232317" lon="8.835299">
<ele>424.5</ele>
<time>2003-06-13T09:58:00Z</time>
<speed>1.1</speed>
</trkpt>
<trkpt lat="47.232260" lon="8.835288">
<ele>424.9</ele>
<time>2003-06-13T09:58:05Z</time>
<speed>1.1</speed>
</trkpt>
<trkpt lat="47.232204" lon="8.835265">
<ele>425.2</ele>
<time>2003-06-13T09:58:10Z</time>
<speed>1.1</speed>
</trkpt>
<trkpt lat="47.232153" lon="8.835270">
<ele>425.1</ele>
<time>2003-06-13T09:58:15Z</time>
<speed>0.8</speed>
</trkpt>
<trkpt lat="47.232092" lon="8.835299">
<ele>425.8</ele>
<time>2003-06-13T09:58:20Z</time>
<speed>1.1</speed>
</trkpt>
<trkpt lat="47.232045" lon="8.835332">
<ele>425.2</ele>
<time>2003-06-13T09:58:25Z</time>
<speed>1.1</speed>
</trkpt>
<trkpt lat="47.232004" lon="8.835365">
<ele>425.3</ele>
<time>2003-06-13T09:58:30Z</time>
<speed>1.1</speed>
</trkpt>
<trkpt lat="47.231958" lon="8.835385">
<ele>424.6</ele>
<time>2003-06-13T09:58:35Z</time>
<speed>1.1</speed>
</trkpt>
<trkpt lat="47.231918" lon="8.835418">
<ele>424.7</ele>
<time>2003-06-13T09:58:40Z</time>
<speed>1.1</speed>
</trkpt>
<trkpt lat="47.231864" lon="8.835449">
<ele>424.8</ele>
<time>2003-06-13T09:58:45Z</time>
<speed>1.1</speed>
</trkpt>
<trkpt lat="47.231803" lon="8.835493">
<ele>424.2</ele>
<time>2003-06-13T09:58:50Z</time>
<speed>1.1</speed>
</trkpt>
<trkpt lat="47.231749" lon="8.835537">
<ele>424.4</ele>
<time>2003-06-13T09:58:55Z</time>
<speed>1.1</speed>
</trkpt>
<trkpt lat="47.231694" lon="8.835582">
<ele>424.6</ele>
<time>2003-06-13T09:59:00Z</time>
<speed>1.1</speed>
</trkpt>
<trkpt lat="47.231632" lon="8.835635">
<ele>426.9</ele>
<time>2003-06-13T09:59:05Z</time>
<speed>1.1</speed>
</trkpt>
<trkpt lat="47.231577" lon="8.835679">
<ele>427.1</ele>
<time>2003-06-13T09:59:10Z</time>
<speed>1.1</speed>
</trkpt>
<trkpt lat="47.231530" lon="8.835712">
<ele>426.5</ele>
<time>2003-06-13T09:59:15Z</time>
<speed>1.1</speed>
</trkpt>
<trkpt lat="47.231469" lon="8.835754">
<ele>427.3</ele>
<time>2003-06-13T09:59:20Z</time>
<speed>1.1</speed>
</trkpt>
<trkpt lat="47.231409" lon="8.835783">
<ele>428.0</ele>
<time>2003-06-13T09:59:25Z</time>
<speed>1.1</speed>
</trkpt>
<trkpt lat="47.231371" lon="8.835777">
<ele>427.8</ele>
<time>2003-06-13T09:59:30Z</time>
<speed>0.8</speed>
</trkpt>
<trkpt lat="47.231339" lon="8.835771">
<ele>428.4</ele>
<time>2003-06-13T09:59:35Z</time>
<speed>0.0</speed>
</trkpt>
<trkpt lat="47.231307" lon="8.835780">
<ele>427.6</ele>
<time>2003-06-13T09:59:40Z</time>
<speed>0.8</speed>
</trkpt>
<trkpt lat="47.231260" lon="8.835798">
<ele>428.3</ele>
<time>2003-06-13T09:59:45Z</time>
<speed>0.0</speed>
</trkpt>
<trkpt lat="47.231219" lon="8.835831">
<ele>428.4</ele>
<time>2003-06-13T09:59:50Z</time>
<speed>1.1</speed>
</trkpt>
<trkpt lat="47.231155" lon="8.835834">
<ele>428.2</ele>
<time>2003-06-13T09:59:55Z</time>
<speed>1.1</speed>
</trkpt>
<trkpt lat="47.231114" lon="8.835867">
<ele>428.3</ele>
<time>2003-06-13T10:00:00Z</time>
<speed>0.8</speed>
</trkpt>
<trkpt lat="47.231042" lon="8.835896">
<ele>427.6</ele>
<time>2003-06-13T10:00:05Z</time>
<speed>1.1</speed>
</trkpt>
<trkpt lat="47.230982" lon="8.835927">
<ele>426.9</ele>
<time>2003-06-13T10:00:10Z</time>
<speed>1.1</speed>
</trkpt>
<trkpt lat="47.230912" lon="8.835989">
<ele>431.5</ele>
<time>2003-06-13T10:00:15Z</time>
<speed>1.1</speed>
</trkpt>
<trkpt lat="47.230852" lon="8.836018">
<ele>432.2</ele>
<time>2003-06-13T10:00:20Z</time>
<speed>1.1</speed>
</trkpt>
<trkpt lat="47.230799" lon="8.836036">
<ele>432.2</ele>
<time>2003-06-13T10:00:25Z</time>
<speed>1.1</speed>
</trkpt>
<trkpt lat="47.230752" lon="8.836069">
<ele>431.5</ele>
<time>2003-06-13T10:00:30Z</time>
<speed>0.8</speed>
</trkpt>
<trkpt lat="47.230706" lon="8.836087">
<ele>432.2</ele>
<time>2003-06-13T10:00:35Z</time>
<speed>0.8</speed>
</trkpt>
<trkpt lat="47.230638" lon="8.836129">
<ele>432.3</ele>
<time>2003-06-13T10:00:40Z</time>
<speed>1.1</speed>
</trkpt>
<trkpt lat="47.230568" lon="8.836191">
<ele>436.9</ele>
<time>2003-06-13T10:00:45Z</time>
<speed>0.8</speed>
</trkpt>
<trkpt lat="47.230516" lon="8.836211">
<ele>435.4</ele>
<time>2003-06-13T10:00:51Z</time>
<speed>0.8</speed>
</trkpt>
<trkpt lat="47.230477" lon="8.836201">
<ele>438.0</ele>
<time>2003-06-13T10:00:56Z</time>
<speed>0.3</speed>
</trkpt>
<trkpt lat="47.230478" lon="8.836268">
<ele>437.9</ele>
<time>2003-06-13T10:01:01Z</time>
<speed>0.8</speed>
</trkpt>
<trkpt lat="47.230475" lon="8.836324">
<ele>435.5</ele>
<time>2003-06-13T10:01:06Z</time>
<speed>0.8</speed>
</trkpt>
<trkpt lat="47.230472" lon="8.836383">
<ele>431.7</ele>
<time>2003-06-13T10:01:11Z</time>
<speed>1.1</speed>
</trkpt>
<trkpt lat="47.230454" lon="8.836461">
<ele>430.8</ele>
<time>2003-06-13T10:01:16Z</time>
<speed>0.6</speed>
</trkpt>
<trkpt lat="47.230406" lon="8.836507">
<ele>430.3</ele>
<time>2003-06-13T10:01:21Z</time>
<speed>0.8</speed>
</trkpt>
<trkpt lat="47.230358" lon="8.836553">
<ele>429.8</ele>
<time>2003-06-13T10:01:26Z</time>
<speed>0.8</speed>
</trkpt>
<trkpt lat="47.230324" lon="8.836588">
<ele>429.3</ele>
<time>2003-06-13T10:01:31Z</time>
<speed>0.8</speed>
</trkpt>
<trkpt lat="47.230289" lon="8.836638">
<ele>427.4</ele>
<time>2003-06-13T10:01:36Z</time>
<speed>0.8</speed>
</trkpt>
<trkpt lat="47.230256" lon="8.836647">
<ele>426.7</ele>
<time>2003-06-13T10:01:41Z</time>
<speed>0.3</speed>
</trkpt>
<trkpt lat="47.230203" lon="8.836742">
<ele>429.4</ele>
<time>2003-06-13T10:01:46Z</time>
<speed>0.6</speed>
</trkpt>
<trkpt lat="47.230162" lon="8.836775">
<ele>429.5</ele>
<time>2003-06-13T10:01:51Z</time>
<speed>0.8</speed>
</trkpt>
<trkpt lat="47.230138" lon="8.836759">
<ele>427.9</ele>
<time>2003-06-13T10:01:56Z</time>
<speed>0.8</speed>
</trkpt>
<trkpt lat="47.230099" lon="8.836686">
<ele>427.9</ele>
<time>2003-06-13T10:02:01Z</time>
<speed>1.1</speed>
</trkpt>
<trkpt lat="47.230073" lon="8.836598">
<ele>430.6</ele>
<time>2003-06-13T10:02:06Z</time>
<speed>0.6</speed>
</trkpt>
<trkpt lat="47.229985" lon="8.836536">
<ele>435.4</ele>
<time>2003-06-13T10:02:11Z</time>
<speed>1.1</speed>
</trkpt>
<trkpt lat="47.229931" lon="8.836580">
<ele>435.6</ele>
<time>2003-06-13T10:02:16Z</time>
<speed>0.8</speed>
</trkpt>
<trkpt lat="47.229901" lon="8.836646">
<ele>433.2</ele>
<time>2003-06-13T10:02:21Z</time>
<speed>0.8</speed>
</trkpt>
<trkpt lat="47.229885" lon="8.836698">
<ele>432.1</ele>
<time>2003-06-13T10:02:26Z</time>
<speed>0.8</speed>
</trkpt>
<trkpt lat="47.229870" lon="8.836737">
<ele>431.0</ele>
<time>2003-06-13T10:02:31Z</time>
<speed>0.8</speed>
</trkpt>
<trkpt lat="47.229861" lon="8.836776">
<ele>430.6</ele>
<time>2003-06-13T10:02:36Z</time>
<speed>0.6</speed>
</trkpt>
<trkpt lat="47.229839" lon="8.836813">
<ele>430.1</ele>
<time>2003-06-13T10:02:41Z</time>
<speed>1.1</speed>
</trkpt>
<trkpt lat="47.229778" lon="8.836872">
<ele>428.2</ele>
<time>2003-06-13T10:02:46Z</time>
<speed>0.8</speed>
</trkpt>
<trkpt lat="47.229716" lon="8.836929">
<ele>427.8</ele>
<time>2003-06-13T10:02:51Z</time>
<speed>1.1</speed>
</trkpt>
<trkpt lat="47.229662" lon="8.836976">
<ele>426.5</ele>
<time>2003-06-13T10:02:56Z</time>
<speed>1.1</speed>
</trkpt>
<trkpt lat="47.229603" lon="8.836994">
<ele>425.7</ele>
<time>2003-06-13T10:03:01Z</time>
<speed>1.1</speed>
</trkpt>
<trkpt lat="47.229569" lon="8.837031">
<ele>423.8</ele>
<time>2003-06-13T10:03:06Z</time>
<speed>1.1</speed>
</trkpt>
<trkpt lat="47.229521" lon="8.837077">
<ele>423.3</ele>
<time>2003-06-13T10:03:11Z</time>
<speed>0.8</speed>
</trkpt>
<trkpt lat="47.229473" lon="8.837123">
<ele>422.8</ele>
<time>2003-06-13T10:03:16Z</time>
<speed>0.8</speed>
</trkpt>
<trkpt lat="47.229426" lon="8.837156">
<ele>422.2</ele>
<time>2003-06-13T10:03:21Z</time>
<speed>0.8</speed>
</trkpt>
<trkpt lat="47.229372" lon="8.837187">
<ele>422.2</ele>
<time>2003-06-13T10:03:26Z</time>
<speed>1.1</speed>
</trkpt>
<trkpt lat="47.229326" lon="8.837222">
<ele>420.2</ele>
<time>2003-06-13T10:03:31Z</time>
<speed>1.1</speed>
</trkpt>
<trkpt lat="47.229272" lon="8.837253">
<ele>420.3</ele>
<time>2003-06-13T10:03:36Z</time>
<speed>1.1</speed>
</trkpt>
<trkpt lat="47.229218" lon="8.837297">
<ele>420.4</ele>
<time>2003-06-13T10:03:41Z</time>
<speed>1.1</speed>
</trkpt>
<trkpt lat="47.229177" lon="8.837330">
<ele>420.6</ele>
<time>2003-06-13T10:03:46Z</time>
<speed>1.1</speed>
</trkpt>
<trkpt lat="47.229123" lon="8.837361">
<ele>420.6</ele>
<time>2003-06-13T10:03:51Z</time>
<speed>1.1</speed>
</trkpt>
<trkpt lat="47.229062" lon="8.837405">
<ele>420.0</ele>
<time>2003-06-13T10:03:56Z</time>
<speed>1.1</speed>
</trkpt>
<trkpt lat="47.229010" lon="8.837423">
<ele>420.0</ele>
<time>2003-06-13T10:04:01Z</time>
<speed>1.1</speed>
</trkpt>
<trkpt lat="47.228953" lon="8.837413">
<ele>420.4</ele>
<time>2003-06-13T10:04:06Z</time>
<speed>0.8</speed>
</trkpt>
<trkpt lat="47.228903" lon="8.837392">
<ele>420.1</ele>
<time>2003-06-13T10:04:11Z</time>
<speed>0.8</speed>
</trkpt>
<trkpt lat="47.228870" lon="8.837399">
<ele>420.7</ele>
<time>2003-06-13T10:04:16Z</time>
<speed>0.8</speed>
</trkpt>
<trkpt lat="47.228831" lon="8.837419">
<ele>420.7</ele>
<time>2003-06-13T10:04:21Z</time>
<speed>0.3</speed>
</trkpt>
<trkpt lat="47.228790" lon="8.837452">
<ele>420.9</ele>
<time>2003-06-13T10:04:26Z</time>
<speed>0.8</speed>
</trkpt>
<trkpt lat="47.228728" lon="8.837509">
<ele>420.4</ele>
<time>2003-06-13T10:04:31Z</time>
<speed>0.8</speed>
</trkpt>
<trkpt lat="47.228682" lon="8.837529">
<ele>419.7</ele>
<time>2003-06-13T10:04:36Z</time>
<speed>0.8</speed>
</trkpt>
<trkpt lat="47.228614" lon="8.837584">
<ele>419.9</ele>
<time>2003-06-13T10:04:42Z</time>
<speed>1.1</speed>
</trkpt>
<trkpt lat="47.228566" lon="8.837615">
<ele>420.7</ele>
<time>2003-06-13T10:04:47Z</time>
<speed>0.8</speed>
</trkpt>
<trkpt lat="47.228531" lon="8.837648">
<ele>421.5</ele>
<time>2003-06-13T10:04:52Z</time>
<speed>0.6</speed>
</trkpt>
<trkpt lat="47.228497" lon="8.837681">
<ele>422.4</ele>
<time>2003-06-13T10:04:57Z</time>
<speed>0.3</speed>
</trkpt>
<trkpt lat="47.228428" lon="8.837736">
<ele>422.6</ele>
<time>2003-06-13T10:05:02Z</time>
<speed>0.6</speed>
</trkpt>
<trkpt lat="47.228381" lon="8.837769">
<ele>422.0</ele>
<time>2003-06-13T10:05:07Z</time>
<speed>0.0</speed>
</trkpt>
<trkpt lat="47.228333" lon="8.837816">
<ele>421.5</ele>
<time>2003-06-13T10:05:12Z</time>
<speed>1.1</speed>
</trkpt>
<trkpt lat="47.228266" lon="8.837858">
<ele>421.6</ele>
<time>2003-06-13T10:05:17Z</time>
<speed>1.1</speed>
</trkpt>
<trkpt lat="47.228225" lon="8.837891">
<ele>421.7</ele>
<time>2003-06-13T10:05:22Z</time>
<speed>0.6</speed>
</trkpt>
<trkpt lat="47.228171" lon="8.837922">
<ele>421.8</ele>
<time>2003-06-13T10:05:27Z</time>
<speed>0.8</speed>
</trkpt>
<trkpt lat="47.228117" lon="8.837966">
<ele>421.9</ele>
<time>2003-06-13T10:05:32Z</time>
<speed>1.1</speed>
</trkpt>
<trkpt lat="47.228069" lon="8.838012">
<ele>421.4</ele>
<time>2003-06-13T10:05:37Z</time>
<speed>1.1</speed>
</trkpt>
<trkpt lat="47.228048" lon="8.838034">
<ele>422.2</ele>
<time>2003-06-13T10:05:42Z</time>
<speed>0.0</speed>
</trkpt>
<trkpt lat="47.227993" lon="8.838080">
<ele>421.0</ele>
<time>2003-06-13T10:05:47Z</time>
<speed>1.1</speed>
</trkpt>
<trkpt lat="47.227952" lon="8.838126">
<ele>421.2</ele>
<time>2003-06-13T10:05:52Z</time>
<speed>1.1</speed>
</trkpt>
<trkpt lat="47.227924" lon="8.838148">
<ele>421.3</ele>
<time>2003-06-13T10:05:57Z</time>
<speed>0.3</speed>
</trkpt>
<trkpt lat="47.227902" lon="8.838183">
<ele>422.2</ele>
<time>2003-06-13T10:06:02Z</time>
<speed>0.3</speed>
</trkpt>
<trkpt lat="47.227801" lon="8.838245">
<ele>423.1</ele>
<time>2003-06-13T10:06:07Z</time>
<speed>1.1</speed>
</trkpt>
<trkpt lat="47.227705" lon="8.838322">
<ele>423.4</ele>
<time>2003-06-13T10:06:12Z</time>
<speed>0.8</speed>
</trkpt>
<trkpt lat="47.227650" lon="8.838364">
<ele>425.0</ele>
<time>2003-06-13T10:06:17Z</time>
<speed>0.8</speed>
</trkpt>
<trkpt lat="47.227642" lon="8.838389">
<ele>425.8</ele>
<time>2003-06-13T10:06:22Z</time>
<speed>0.0</speed>
</trkpt>
<trkpt lat="47.227625" lon="8.838439">
<ele>426.2</ele>
<time>2003-06-13T10:06:27Z</time>
<speed>1.1</speed>
</trkpt>
<trkpt lat="47.227601" lon="8.838517">
<ele>424.6</ele>
<time>2003-06-13T10:06:32Z</time>
<speed>0.8</speed>
</trkpt>
<trkpt lat="47.227601" lon="8.838614">
<ele>421.9</ele>
<time>2003-06-13T10:06:37Z</time>
<speed>1.1</speed>
</trkpt>
<trkpt lat="47.227575" lon="8.838702">
<ele>423.2</ele>
<time>2003-06-13T10:06:42Z</time>
<speed>0.8</speed>
</trkpt>
<trkpt lat="47.227558" lon="8.838752">
<ele>423.6</ele>
<time>2003-06-13T10:06:47Z</time>
<speed>0.8</speed>
</trkpt>
<trkpt lat="47.227549" lon="8.838791">
<ele>423.1</ele>
<time>2003-06-13T10:06:52Z</time>
<speed>0.6</speed>
</trkpt>
<trkpt lat="47.227526" lon="8.838841">
<ele>422.8</ele>
<time>2003-06-13T10:06:57Z</time>
<speed>0.8</speed>
</trkpt>
<trkpt lat="47.227479" lon="8.838889">
<ele>420.8</ele>
<time>2003-06-13T10:07:02Z</time>
<speed>0.8</speed>
</trkpt>
<trkpt lat="47.227435" lon="8.838963">
<ele>419.9</ele>
<time>2003-06-13T10:07:07Z</time>
<speed>0.8</speed>
</trkpt>
<trkpt lat="47.227396" lon="8.839051">
<ele>419.7</ele>
<time>2003-06-13T10:07:12Z</time>
<speed>1.1</speed>
</trkpt>
<trkpt lat="47.227360" lon="8.839112">
<ele>419.4</ele>
<time>2003-06-13T10:07:17Z</time>
<speed>0.6</speed>
</trkpt>
<trkpt lat="47.227341" lon="8.839188">
<ele>420.0</ele>
<time>2003-06-13T10:07:22Z</time>
<speed>0.8</speed>
</trkpt>
<trkpt lat="47.227311" lon="8.839249">
<ele>420.4</ele>
<time>2003-06-13T10:07:27Z</time>
<speed>0.6</speed>
</trkpt>
<trkpt lat="47.227281" lon="8.839313">
<ele>419.4</ele>
<time>2003-06-13T10:07:32Z</time>
<speed>0.8</speed>
</trkpt>
<trkpt lat="47.227251" lon="8.839374">
<ele>419.8</ele>
<time>2003-06-13T10:07:37Z</time>
<speed>0.6</speed>
</trkpt>
<trkpt lat="47.227201" lon="8.839446">
<ele>419.5</ele>
<time>2003-06-13T10:07:42Z</time>
<speed>0.8</speed>
</trkpt>
<trkpt lat="47.227163" lon="8.839520">
<ele>419.2</ele>
<time>2003-06-13T10:07:47Z</time>
<speed>1.1</speed>
</trkpt>
<trkpt lat="47.227121" lon="8.839581">
<ele>418.1</ele>
<time>2003-06-13T10:07:52Z</time>
<speed>0.8</speed>
</trkpt>
<trkpt lat="47.227104" lon="8.839631">
<ele>418.5</ele>
<time>2003-06-13T10:07:57Z</time>
<speed>1.1</speed>
</trkpt>
<trkpt lat="47.227073" lon="8.839706">
<ele>419.0</ele>
<time>2003-06-13T10:08:02Z</time>
<speed>1.1</speed>
</trkpt>
<trkpt lat="47.227021" lon="8.839791">
<ele>418.8</ele>
<time>2003-06-13T10:08:07Z</time>
<speed>1.1</speed>
</trkpt>
<trkpt lat="47.226983" lon="8.839878">
<ele>418.7</ele>
<time>2003-06-13T10:08:12Z</time>
<speed>1.1</speed>
</trkpt>
<trkpt lat="47.226947" lon="8.839939">
<ele>418.3</ele>
<time>2003-06-13T10:08:17Z</time>
<speed>1.1</speed>
</trkpt>
<trkpt lat="47.226915" lon="8.840014">
<ele>418.8</ele>
<time>2003-06-13T10:08:22Z</time>
<speed>1.1</speed>
</trkpt>
<trkpt lat="47.226885" lon="8.840075">
<ele>419.2</ele>
<time>2003-06-13T10:08:27Z</time>
<speed>1.1</speed>
</trkpt>
<trkpt lat="47.226847" lon="8.840149">
<ele>419.0</ele>
<time>2003-06-13T10:08:32Z</time>
<speed>1.1</speed>
</trkpt>
<trkpt lat="47.226810" lon="8.840223">
<ele>418.8</ele>
<time>2003-06-13T10:08:37Z</time>
<speed>1.1</speed>
</trkpt>
<trkpt lat="47.226784" lon="8.840312">
<ele>418.7</ele>
<time>2003-06-13T10:08:43Z</time>
<speed>1.1</speed>
</trkpt>
<trkpt lat="47.226748" lon="8.840374">
<ele>418.4</ele>
<time>2003-06-13T10:08:48Z</time>
<speed>0.8</speed>
</trkpt>
<trkpt lat="47.226716" lon="8.840448">
<ele>418.9</ele>
<time>2003-06-13T10:08:53Z</time>
<speed>1.1</speed>
</trkpt>
<trkpt lat="47.226694" lon="8.840498">
<ele>418.5</ele>
<time>2003-06-13T10:08:58Z</time>
<speed>0.6</speed>
</trkpt>
<trkpt lat="47.226671" lon="8.840548">
<ele>418.1</ele>
<time>2003-06-13T10:09:03Z</time>
<speed>0.3</speed>
</trkpt>
<trkpt lat="47.226654" lon="8.840598">
<ele>418.5</ele>
<time>2003-06-13T10:09:08Z</time>
<speed>0.6</speed>
</trkpt>
<trkpt lat="47.226604" lon="8.840673">
<ele>416.8</ele>
<time>2003-06-13T10:09:13Z</time>
<speed>0.6</speed>
</trkpt>
<trkpt lat="47.226580" lon="8.840734">
<ele>417.9</ele>
<time>2003-06-13T10:09:18Z</time>
<speed>0.8</speed>
</trkpt>
<trkpt lat="47.226549" lon="8.840808">
<ele>418.4</ele>
<time>2003-06-13T10:09:23Z</time>
<speed>1.4</speed>
</trkpt>
<trkpt lat="47.226531" lon="8.840869">
<ele>420.3</ele>
<time>2003-06-13T10:09:28Z</time>
<speed>0.8</speed>
</trkpt>
<trkpt lat="47.226494" lon="8.840930">
<ele>419.9</ele>
<time>2003-06-13T10:09:33Z</time>
<speed>1.1</speed>
</trkpt>
<trkpt lat="47.226423" lon="8.841027">
<ele>419.0</ele>
<time>2003-06-13T10:09:38Z</time>
<speed>1.4</speed>
</trkpt>
<trkpt lat="47.226391" lon="8.841116">
<ele>418.2</ele>
<time>2003-06-13T10:09:43Z</time>
<speed>1.1</speed>
</trkpt>
<trkpt lat="47.226367" lon="8.841177">
<ele>419.4</ele>
<time>2003-06-13T10:09:48Z</time>
<speed>1.1</speed>
</trkpt>
<trkpt lat="47.226343" lon="8.841240">
<ele>419.1</ele>
<time>2003-06-13T10:09:53Z</time>
<speed>1.1</speed>
</trkpt>
<trkpt lat="47.226293" lon="8.841312">
<ele>418.8</ele>
<time>2003-06-13T10:09:58Z</time>
<speed>1.4</speed>
</trkpt>
<trkpt lat="47.226262" lon="8.841387">
<ele>419.3</ele>
<time>2003-06-13T10:10:03Z</time>
<speed>0.8</speed>
</trkpt>
<trkpt lat="47.226245" lon="8.841437">
<ele>419.6</ele>
<time>2003-06-13T10:10:08Z</time>
<speed>0.8</speed>
</trkpt>
<trkpt lat="47.226203" lon="8.841498">
<ele>418.6</ele>
<time>2003-06-13T10:10:13Z</time>
<speed>0.8</speed>
</trkpt>
<trkpt lat="47.226170" lon="8.841585">
<ele>419.2</ele>
<time>2003-06-13T10:10:18Z</time>
<speed>1.1</speed>
</trkpt>
<trkpt lat="47.226161" lon="8.841624">
<ele>418.8</ele>
<time>2003-06-13T10:10:23Z</time>
<speed>0.8</speed>
</trkpt>
<trkpt lat="47.226116" lon="8.841693">
<ele>422.0</ele>
<time>2003-06-13T10:10:28Z</time>
<speed>0.6</speed>
</trkpt>
<trkpt lat="47.226086" lon="8.841754">
<ele>422.4</ele>
<time>2003-06-13T10:10:33Z</time>
<speed>0.6</speed>
</trkpt>
<trkpt lat="47.226048" lon="8.841841">
<ele>422.3</ele>
<time>2003-06-13T10:10:38Z</time>
<speed>1.1</speed>
</trkpt>
<trkpt lat="47.225970" lon="8.841950">
<ele>420.8</ele>
<time>2003-06-13T10:10:43Z</time>
<speed>1.1</speed>
</trkpt>
<trkpt lat="47.225932" lon="8.842024">
<ele>420.5</ele>
<time>2003-06-13T10:10:48Z</time>
<speed>1.1</speed>
</trkpt>
<trkpt lat="47.225895" lon="8.842099">
<ele>420.3</ele>
<time>2003-06-13T10:10:53Z</time>
<speed>1.1</speed>
</trkpt>
<trkpt lat="47.225864" lon="8.842175">
<ele>419.4</ele>
<time>2003-06-13T10:10:58Z</time>
<speed>1.1</speed>
</trkpt>
<trkpt lat="47.225833" lon="8.842236">
<ele>419.8</ele>
<time>2003-06-13T10:11:03Z</time>
<speed>0.8</speed>
</trkpt>
<trkpt lat="47.225797" lon="8.842299">
<ele>418.0</ele>
<time>2003-06-13T10:11:08Z</time>
<speed>1.1</speed>
</trkpt>
<trkpt lat="47.225754" lon="8.842358">
<ele>418.4</ele>
<time>2003-06-13T10:11:13Z</time>
<speed>0.8</speed>
</trkpt>
<trkpt lat="47.225731" lon="8.842422">
<ele>418.1</ele>
<time>2003-06-13T10:11:18Z</time>
<speed>1.1</speed>
</trkpt>
<trkpt lat="47.225693" lon="8.842496">
<ele>417.9</ele>
<time>2003-06-13T10:11:23Z</time>
<speed>1.1</speed>
</trkpt>
<trkpt lat="47.225662" lon="8.842570">
<ele>418.4</ele>
<time>2003-06-13T10:11:28Z</time>
<speed>1.1</speed>
</trkpt>
<trkpt lat="47.225644" lon="8.842633">
<ele>418.8</ele>
<time>2003-06-13T10:11:33Z</time>
<speed>1.1</speed>
</trkpt>
<trkpt lat="47.225601" lon="8.842694">
<ele>417.7</ele>
<time>2003-06-13T10:11:38Z</time>
<speed>1.1</speed>
</trkpt>
<trkpt lat="47.225551" lon="8.842767">
<ele>417.4</ele>
<time>2003-06-13T10:11:43Z</time>
<speed>1.1</speed>
</trkpt>
<trkpt lat="47.225522" lon="8.842817">
<ele>416.3</ele>
<time>2003-06-13T10:11:48Z</time>
<speed>0.6</speed>
</trkpt>
<trkpt lat="47.225491" lon="8.842891">
<ele>416.8</ele>
<time>2003-06-13T10:11:53Z</time>
<speed>1.1</speed>
</trkpt>
<trkpt lat="47.225447" lon="8.842963">
<ele>417.3</ele>
<time>2003-06-13T10:11:58Z</time>
<speed>1.1</speed>
</trkpt>
<trkpt lat="47.225411" lon="8.843009">
<ele>418.2</ele>
<time>2003-06-13T10:12:03Z</time>
<speed>1.1</speed>
</trkpt>
<trkpt lat="47.225381" lon="8.843068">
<ele>420.0</ele>
<time>2003-06-13T10:12:08Z</time>
<speed>0.8</speed>
</trkpt>
<trkpt lat="47.225351" lon="8.843117">
<ele>420.3</ele>
<time>2003-06-13T10:12:13Z</time>
<speed>1.1</speed>
</trkpt>
<trkpt lat="47.225326" lon="8.843193">
<ele>420.2</ele>
<time>2003-06-13T10:12:18Z</time>
<speed>1.1</speed>
</trkpt>
<trkpt lat="47.225302" lon="8.843254">
<ele>421.3</ele>
<time>2003-06-13T10:12:24Z</time>
<speed>0.8</speed>
</trkpt>
<trkpt lat="47.225279" lon="8.843302">
<ele>422.3</ele>
<time>2003-06-13T10:12:29Z</time>
<speed>0.8</speed>
</trkpt>
<trkpt lat="47.225254" lon="8.843376">
<ele>423.5</ele>
<time>2003-06-13T10:12:34Z</time>
<speed>1.4</speed>
</trkpt>
<trkpt lat="47.225198" lon="8.843451">
<ele>421.1</ele>
<time>2003-06-13T10:12:39Z</time>
<speed>1.1</speed>
</trkpt>
<trkpt lat="47.225168" lon="8.843512">
<ele>421.5</ele>
<time>2003-06-13T10:12:44Z</time>
<speed>0.8</speed>
</trkpt>
<trkpt lat="47.225146" lon="8.843549">
<ele>421.0</ele>
<time>2003-06-13T10:12:49Z</time>
<speed>0.8</speed>
</trkpt>
<trkpt lat="47.225116" lon="8.843597">
<ele>421.3</ele>
<time>2003-06-13T10:12:54Z</time>
<speed>0.6</speed>
</trkpt>
<trkpt lat="47.225085" lon="8.843671">
<ele>421.8</ele>
<time>2003-06-13T10:12:59Z</time>
<speed>1.1</speed>
</trkpt>
<trkpt lat="47.225064" lon="8.843789">
<ele>421.3</ele>
<time>2003-06-13T10:13:04Z</time>
<speed>0.8</speed>
</trkpt>
<trkpt lat="47.225021" lon="8.843850">
<ele>420.2</ele>
<time>2003-06-13T10:13:09Z</time>
<speed>0.6</speed>
</trkpt>
<trkpt lat="47.224986" lon="8.843898">
<ele>419.8</ele>
<time>2003-06-13T10:13:14Z</time>
<speed>0.8</speed>
</trkpt>
<trkpt lat="47.224954" lon="8.843972">
<ele>420.3</ele>
<time>2003-06-13T10:13:19Z</time>
<speed>1.1</speed>
</trkpt>
<trkpt lat="47.224910" lon="8.844044">
<ele>420.7</ele>
<time>2003-06-13T10:13:24Z</time>
<speed>0.8</speed>
</trkpt>
<trkpt lat="47.224888" lon="8.844096">
<ele>418.9</ele>
<time>2003-06-13T10:13:29Z</time>
<speed>0.8</speed>
</trkpt>
<trkpt lat="47.224853" lon="8.844145">
<ele>418.5</ele>
<time>2003-06-13T10:13:34Z</time>
<speed>0.8</speed>
</trkpt>
<trkpt lat="47.224829" lon="8.844208">
<ele>418.2</ele>
<time>2003-06-13T10:13:39Z</time>
<speed>0.8</speed>
</trkpt>
<trkpt lat="47.224798" lon="8.844269">
<ele>418.6</ele>
<time>2003-06-13T10:13:44Z</time>
<speed>0.8</speed>
</trkpt>
<trkpt lat="47.224761" lon="8.844343">
<ele>418.4</ele>
<time>2003-06-13T10:13:49Z</time>
<speed>1.1</speed>
</trkpt>
<trkpt lat="47.224731" lon="8.844406">
<ele>417.4</ele>
<time>2003-06-13T10:13:54Z</time>
<speed>0.8</speed>
</trkpt>
<trkpt lat="47.224687" lon="8.844479">
<ele>417.8</ele>
<time>2003-06-13T10:13:59Z</time>
<speed>1.1</speed>
</trkpt>
<trkpt lat="47.224657" lon="8.844540">
<ele>418.2</ele>
<time>2003-06-13T10:14:04Z</time>
<speed>0.8</speed>
</trkpt>
<trkpt lat="47.224620" lon="8.844601">
<ele>417.9</ele>
<time>2003-06-13T10:14:09Z</time>
<speed>0.8</speed>
</trkpt>
<trkpt lat="47.224608" lon="8.844662">
<ele>420.5</ele>
<time>2003-06-13T10:14:14Z</time>
<speed>0.6</speed>
</trkpt>
<trkpt lat="47.224605" lon="8.844716">
<ele>419.5</ele>
<time>2003-06-13T10:14:19Z</time>
<speed>1.1</speed>
</trkpt>
<trkpt lat="47.224537" lon="8.844773">
<ele>418.3</ele>
<time>2003-06-13T10:14:24Z</time>
<speed>0.3</speed>
</trkpt>
<trkpt lat="47.224502" lon="8.844806">
<ele>419.1</ele>
<time>2003-06-13T10:14:29Z</time>
<speed>0.3</speed>
</trkpt>
<trkpt lat="47.224501" lon="8.844864">
<ele>426.0</ele>
<time>2003-06-13T10:14:34Z</time>
<speed>0.3</speed>
</trkpt>
<trkpt lat="47.224501" lon="8.844938">
<ele>430.2</ele>
<time>2003-06-13T10:14:39Z</time>
<speed>0.6</speed>
</trkpt>
<trkpt lat="47.224513" lon="8.845018">
<ele>431.6</ele>
<time>2003-06-13T10:14:44Z</time>
<speed>0.8</speed>
</trkpt>
<trkpt lat="47.224455" lon="8.845118">
<ele>429.4</ele>
<time>2003-06-13T10:14:49Z</time>
<speed>0.8</speed>
</trkpt>
<trkpt lat="47.224386" lon="8.845206">
<ele>425.6</ele>
<time>2003-06-13T10:14:54Z</time>
<speed>1.1</speed>
</trkpt>
<trkpt lat="47.224363" lon="8.845269">
<ele>425.3</ele>
<time>2003-06-13T10:14:59Z</time>
<speed>0.8</speed>
</trkpt>
<trkpt lat="47.224337" lon="8.845341">
<ele>427.9</ele>
<time>2003-06-13T10:15:04Z</time>
<speed>1.1</speed>
</trkpt>
<trkpt lat="47.224300" lon="8.845400">
<ele>429.0</ele>
<time>2003-06-13T10:15:09Z</time>
<speed>1.1</speed>
</trkpt>
<trkpt lat="47.224296" lon="8.845450">
<ele>430.8</ele>
<time>2003-06-13T10:15:14Z</time>
<speed>0.6</speed>
</trkpt>
<trkpt lat="47.224278" lon="8.845498">
<ele>432.6</ele>
<time>2003-06-13T10:15:19Z</time>
<speed>0.8</speed>
</trkpt>
<trkpt lat="47.224266" lon="8.845560">
<ele>435.2</ele>
<time>2003-06-13T10:15:24Z</time>
<speed>1.1</speed>
</trkpt>
<trkpt lat="47.224260" lon="8.845634">
<ele>438.6</ele>
<time>2003-06-13T10:15:29Z</time>
<speed>1.1</speed>
</trkpt>
<trkpt lat="47.224234" lon="8.845706">
<ele>441.3</ele>
<time>2003-06-13T10:15:34Z</time>
<speed>1.1</speed>
</trkpt>
<trkpt lat="47.224208" lon="8.845793">
<ele>442.6</ele>
<time>2003-06-13T10:15:39Z</time>
<speed>0.8</speed>
</trkpt>
<trkpt lat="47.224214" lon="8.845856">
<ele>446.0</ele>
<time>2003-06-13T10:15:44Z</time>
<speed>0.8</speed>
</trkpt>
<trkpt lat="47.224231" lon="8.845867">
<ele>449.7</ele>
<time>2003-06-13T10:15:49Z</time>
<speed>0.3</speed>
</trkpt>
<trkpt lat="47.224212" lon="8.845944">
<ele>450.3</ele>
<time>2003-06-13T10:15:54Z</time>
<speed>0.8</speed>
</trkpt>
<trkpt lat="47.224192" lon="8.846031">
<ele>452.3</ele>
<time>2003-06-13T10:16:00Z</time>
<speed>0.3</speed>
</trkpt>
<trkpt lat="47.224187" lon="8.846094">
<ele>454.3</ele>
<time>2003-06-13T10:16:05Z</time>
<speed>0.3</speed>
</trkpt>
<trkpt lat="47.224169" lon="8.846157">
<ele>454.7</ele>
<time>2003-06-13T10:16:10Z</time>
<speed>0.6</speed>
</trkpt>
<trkpt lat="47.224161" lon="8.846181">
<ele>455.6</ele>
<time>2003-06-13T10:16:15Z</time>
<speed>0.0</speed>
</trkpt>
<trkpt lat="47.224142" lon="8.846164">
<ele>456.1</ele>
<time>2003-06-13T10:16:20Z</time>
<speed>0.6</speed>
</trkpt>
<trkpt lat="47.224147" lon="8.846194">
<ele>454.3</ele>
<time>2003-06-13T10:16:25Z</time>
<speed>0.0</speed>
</trkpt>
<trkpt lat="47.224121" lon="8.846284">
<ele>454.2</ele>
<time>2003-06-13T10:16:30Z</time>
<speed>0.6</speed>
</trkpt>
<trkpt lat="47.224023" lon="8.846417">
<ele>452.1</ele>
<time>2003-06-13T10:16:35Z</time>
<speed>0.6</speed>
</trkpt>
<trkpt lat="47.223756" lon="8.846630">
<ele>440.1</ele>
<time>2003-06-13T10:16:40Z</time>
<speed>1.1</speed>
</trkpt>
<trkpt lat="47.223570" lon="8.846774">
<ele>429.2</ele>
<time>2003-06-13T10:16:45Z</time>
<speed>0.8</speed>
</trkpt>
<trkpt lat="47.223534" lon="8.846837">
<ele>427.4</ele>
<time>2003-06-13T10:16:50Z</time>
<speed>0.8</speed>
</trkpt>
<trkpt lat="47.223517" lon="8.846902">
<ele>426.5</ele>
<time>2003-06-13T10:16:55Z</time>
<speed>0.8</speed>
</trkpt>
<trkpt lat="47.223468" lon="8.846964">
<ele>424.7</ele>
<time>2003-06-13T10:17:00Z</time>
<speed>1.1</speed>
</trkpt>
<trkpt lat="47.223430" lon="8.847038">
<ele>424.5</ele>
<time>2003-06-13T10:17:05Z</time>
<speed>0.8</speed>
</trkpt>
<trkpt lat="47.223409" lon="8.847077">
<ele>422.6</ele>
<time>2003-06-13T10:17:10Z</time>
<speed>0.8</speed>
</trkpt>
<trkpt lat="47.223378" lon="8.847153">
<ele>421.7</ele>
<time>2003-06-13T10:17:15Z</time>
<speed>1.1</speed>
</trkpt>
<trkpt lat="47.223355" lon="8.847218">
<ele>420.0</ele>
<time>2003-06-13T10:17:20Z</time>
<speed>0.8</speed>
</trkpt>
<trkpt lat="47.223333" lon="8.847255">
<ele>419.5</ele>
<time>2003-06-13T10:17:25Z</time>
<speed>0.8</speed>
</trkpt>
<trkpt lat="47.223279" lon="8.847302">
<ele>418.3</ele>
<time>2003-06-13T10:17:30Z</time>
<speed>0.6</speed>
</trkpt>
<trkpt lat="47.223261" lon="8.847284">
<ele>418.8</ele>
<time>2003-06-13T10:17:35Z</time>
<speed>0.3</speed>
</trkpt>
<trkpt lat="47.223223" lon="8.847278">
<ele>418.6</ele>
<time>2003-06-13T10:17:40Z</time>
<speed>0.6</speed>
</trkpt>
<trkpt lat="47.223171" lon="8.847283">
<ele>418.4</ele>
<time>2003-06-13T10:17:45Z</time>
<speed>0.8</speed>
</trkpt>
<trkpt lat="47.223100" lon="8.847299">
<ele>417.6</ele>
<time>2003-06-13T10:17:50Z</time>
<speed>1.1</speed>
</trkpt>
<trkpt lat="47.223047" lon="8.847317">
<ele>417.6</ele>
<time>2003-06-13T10:17:55Z</time>
<speed>0.8</speed>
</trkpt>
<trkpt lat="47.222982" lon="8.847331">
<ele>418.9</ele>
<time>2003-06-13T10:18:00Z</time>
<speed>0.6</speed>
</trkpt>
<trkpt lat="47.222928" lon="8.847360">
<ele>420.3</ele>
<time>2003-06-13T10:18:05Z</time>
<speed>1.1</speed>
</trkpt>
<trkpt lat="47.222865" lon="8.847430">
<ele>420.0</ele>
<time>2003-06-13T10:18:10Z</time>
<speed>1.1</speed>
</trkpt>
<trkpt lat="47.222811" lon="8.847461">
<ele>420.0</ele>
<time>2003-06-13T10:18:15Z</time>
<speed>1.1</speed>
</trkpt>
<trkpt lat="47.222744" lon="8.847503">
<ele>420.1</ele>
<time>2003-06-13T10:18:20Z</time>
<speed>1.1</speed>
</trkpt>
<trkpt lat="47.222683" lon="8.847545">
<ele>421.0</ele>
<time>2003-06-13T10:18:25Z</time>
<speed>0.8</speed>
</trkpt>
<trkpt lat="47.222636" lon="8.847578">
<ele>420.4</ele>
<time>2003-06-13T10:18:30Z</time>
<speed>1.1</speed>
</trkpt>
<trkpt lat="47.222570" lon="8.847607">
<ele>420.4</ele>
<time>2003-06-13T10:18:35Z</time>
<speed>1.1</speed>
</trkpt>
<trkpt lat="47.222531" lon="8.847616">
<ele>418.9</ele>
<time>2003-06-13T10:18:40Z</time>
<speed>1.1</speed>
</trkpt>
<trkpt lat="47.222505" lon="8.847627">
<ele>417.4</ele>
<time>2003-06-13T10:18:45Z</time>
<speed>0.6</speed>
</trkpt>
<trkpt lat="47.222446" lon="8.847658">
<ele>416.8</ele>
<time>2003-06-13T10:18:50Z</time>
<speed>1.1</speed>
</trkpt>
<trkpt lat="47.222381" lon="8.847674">
<ele>416.7</ele>
<time>2003-06-13T10:18:55Z</time>
<speed>0.8</speed>
</trkpt>
<trkpt lat="47.222334" lon="8.847707">
<ele>416.0</ele>
<time>2003-06-13T10:19:00Z</time>
<speed>0.8</speed>
</trkpt>
<trkpt lat="47.222281" lon="8.847727">
<ele>414.6</ele>
<time>2003-06-13T10:19:05Z</time>
<speed>1.1</speed>
</trkpt>
<trkpt lat="47.222229" lon="8.847745">
<ele>414.6</ele>
<time>2003-06-13T10:19:10Z</time>
<speed>1.1</speed>
</trkpt>
<trkpt lat="47.222176" lon="8.847763">
<ele>414.5</ele>
<time>2003-06-13T10:19:15Z</time>
<speed>1.1</speed>
</trkpt>
<trkpt lat="47.222125" lon="8.847768">
<ele>414.4</ele>
<time>2003-06-13T10:19:20Z</time>
<speed>1.1</speed>
</trkpt>
<trkpt lat="47.222079" lon="8.847773">
<ele>415.0</ele>
<time>2003-06-13T10:19:25Z</time>
<speed>1.1</speed>
</trkpt>
<trkpt lat="47.222021" lon="8.847791">
<ele>414.2</ele>
<time>2003-06-13T10:19:30Z</time>
<speed>0.8</speed>
</trkpt>
<trkpt lat="47.221955" lon="8.847807">
<ele>414.1</ele>
<time>2003-06-13T10:19:35Z</time>
<speed>1.1</speed>
</trkpt>
<trkpt lat="47.221891" lon="8.847810">
<ele>413.9</ele>
<time>2003-06-13T10:19:40Z</time>
<speed>1.4</speed>
</trkpt>
<trkpt lat="47.221826" lon="8.847826">
<ele>413.8</ele>
<time>2003-06-13T10:19:45Z</time>
<speed>1.1</speed>
</trkpt>
<trkpt lat="47.221774" lon="8.847844">
<ele>413.7</ele>
<time>2003-06-13T10:19:50Z</time>
<speed>1.1</speed>
</trkpt>
<trkpt lat="47.221716" lon="8.847849">
<ele>412.8</ele>
<time>2003-06-13T10:19:55Z</time>
<speed>1.1</speed>
</trkpt>
<trkpt lat="47.221664" lon="8.847854">
<ele>412.7</ele>
<time>2003-06-13T10:20:00Z</time>
<speed>1.1</speed>
</trkpt>
<trkpt lat="47.221600" lon="8.847856">
<ele>412.5</ele>
<time>2003-06-13T10:20:05Z</time>
<speed>0.8</speed>
</trkpt>
<trkpt lat="47.221543" lon="8.847846">
<ele>412.9</ele>
<time>2003-06-13T10:20:10Z</time>
<speed>1.1</speed>
</trkpt>
<trkpt lat="47.221492" lon="8.847851">
<ele>412.7</ele>
<time>2003-06-13T10:20:15Z</time>
<speed>0.8</speed>
</trkpt>
<trkpt lat="47.221427" lon="8.847852">
<ele>413.9</ele>
<time>2003-06-13T10:20:20Z</time>
<speed>0.8</speed>
</trkpt>
<trkpt lat="47.221364" lon="8.847842">
<ele>413.6</ele>
<time>2003-06-13T10:20:25Z</time>
<speed>1.1</speed>
</trkpt>
<trkpt lat="47.221311" lon="8.847860">
<ele>413.6</ele>
<time>2003-06-13T10:20:30Z</time>
<speed>0.8</speed>
</trkpt>
<trkpt lat="47.221247" lon="8.847863">
<ele>413.4</ele>
<time>2003-06-13T10:20:35Z</time>
<speed>1.1</speed>
</trkpt>
<trkpt lat="47.221184" lon="8.847853">
<ele>413.1</ele>
<time>2003-06-13T10:20:40Z</time>
<speed>1.1</speed>
</trkpt>
<trkpt lat="47.221132" lon="8.847856">
<ele>414.3</ele>
<time>2003-06-13T10:20:45Z</time>
<speed>1.1</speed>
</trkpt>
<trkpt lat="47.221074" lon="8.847860">
<ele>413.4</ele>
<time>2003-06-13T10:20:50Z</time>
<speed>1.1</speed>
</trkpt>
<trkpt lat="47.221010" lon="8.847863">
<ele>413.2</ele>
<time>2003-06-13T10:20:55Z</time>
<speed>1.1</speed>
</trkpt>
<trkpt lat="47.220959" lon="8.847868">
<ele>413.1</ele>
<time>2003-06-13T10:21:00Z</time>
<speed>1.1</speed>
</trkpt>
<trkpt lat="47.220907" lon="8.847873">
<ele>412.9</ele>
<time>2003-06-13T10:21:05Z</time>
<speed>0.8</speed>
</trkpt>
<trkpt lat="47.220850" lon="8.847865">
<ele>411.9</ele>
<time>2003-06-13T10:21:10Z</time>
<speed>0.8</speed>
</trkpt>
<trkpt lat="47.220800" lon="8.847857">
<ele>411.7</ele>
<time>2003-06-13T10:21:15Z</time>
<speed>0.8</speed>
</trkpt>
<trkpt lat="47.220742" lon="8.847860">
<ele>412.2</ele>
<time>2003-06-13T10:21:20Z</time>
<speed>0.8</speed>
</trkpt>
<trkpt lat="47.220679" lon="8.847850">
<ele>411.9</ele>
<time>2003-06-13T10:21:25Z</time>
<speed>1.1</speed>
</trkpt>
<trkpt lat="47.220622" lon="8.847840">
<ele>412.3</ele>
<time>2003-06-13T10:21:30Z</time>
<speed>0.8</speed>
</trkpt>
<trkpt lat="47.220591" lon="8.847820">
<ele>412.8</ele>
<time>2003-06-13T10:21:35Z</time>
<speed>0.0</speed>
</trkpt>
<trkpt lat="47.220534" lon="8.847812">
<ele>411.8</ele>
<time>2003-06-13T10:21:40Z</time>
<speed>1.1</speed>
</trkpt>
<trkpt lat="47.220479" lon="8.847791">
<ele>410.7</ele>
<time>2003-06-13T10:21:45Z</time>
<speed>0.0</speed>
</trkpt>
<trkpt lat="47.220435" lon="8.847770">
<ele>411.1</ele>
<time>2003-06-13T10:21:50Z</time>
<speed>0.8</speed>
</trkpt>
<trkpt lat="47.220379" lon="8.847747">
<ele>411.4</ele>
<time>2003-06-13T10:21:55Z</time>
<speed>0.8</speed>
</trkpt>
<trkpt lat="47.220341" lon="8.847741">
<ele>411.2</ele>
<time>2003-06-13T10:22:00Z</time>
<speed>0.8</speed>
</trkpt>
<trkpt lat="47.220286" lon="8.847720">
<ele>410.1</ele>
<time>2003-06-13T10:22:05Z</time>
<speed>0.8</speed>
</trkpt>
<trkpt lat="47.220224" lon="8.847681">
<ele>411.0</ele>
<time>2003-06-13T10:22:10Z</time>
<speed>1.1</speed>
</trkpt>
<trkpt lat="47.220181" lon="8.847660">
<ele>411.4</ele>
<time>2003-06-13T10:22:15Z</time>
<speed>0.0</speed>
</trkpt>
<trkpt lat="47.220168" lon="8.847658">
<ele>411.3</ele>
<time>2003-06-13T10:22:20Z</time>
<speed>0.6</speed>
</trkpt>
<trkpt lat="47.220163" lon="8.847643">
<ele>411.9</ele>
<time>2003-06-13T10:22:25Z</time>
<speed>0.0</speed>
</trkpt>
<trkpt lat="47.220163" lon="8.847643">
<ele>411.9</ele>
<time>2003-06-13T10:22:30Z</time>
<speed>0.6</speed>
</trkpt>
<trkpt lat="47.220120" lon="8.847609">
<ele>412.1</ele>
<time>2003-06-13T10:22:35Z</time>
<speed>0.6</speed>
</trkpt>
<trkpt lat="47.220071" lon="8.847588">
<ele>411.8</ele>
<time>2003-06-13T10:22:40Z</time>
<speed>0.8</speed>
</trkpt>
<trkpt lat="47.220023" lon="8.847540">
<ele>411.2</ele>
<time>2003-06-13T10:22:45Z</time>
<speed>0.3</speed>
</trkpt>
<trkpt lat="47.219987" lon="8.847508">
<ele>410.8</ele>
<time>2003-06-13T10:22:50Z</time>
<speed>0.8</speed>
</trkpt>
<trkpt lat="47.219940" lon="8.847461">
<ele>410.3</ele>
<time>2003-06-13T10:22:55Z</time>
<speed>0.8</speed>
</trkpt>
<trkpt lat="47.219898" lon="8.847414">
<ele>410.4</ele>
<time>2003-06-13T10:23:00Z</time>
<speed>0.8</speed>
</trkpt>
<trkpt lat="47.219844" lon="8.847364">
<ele>410.5</ele>
<time>2003-06-13T10:23:05Z</time>
<speed>1.1</speed>
</trkpt>
<trkpt lat="47.219804" lon="8.847304">
<ele>410.6</ele>
<time>2003-06-13T10:23:10Z</time>
<speed>0.8</speed>
</trkpt>
<trkpt lat="47.219764" lon="8.847244">
<ele>410.7</ele>
<time>2003-06-13T10:23:15Z</time>
<speed>1.1</speed>
</trkpt>
<trkpt lat="47.219723" lon="8.847183">
<ele>410.7</ele>
<time>2003-06-13T10:23:20Z</time>
<speed>0.8</speed>
</trkpt>
<trkpt lat="47.219670" lon="8.847121">
<ele>410.7</ele>
<time>2003-06-13T10:23:25Z</time>
<speed>0.8</speed>
</trkpt>
<trkpt lat="47.219630" lon="8.847061">
<ele>410.8</ele>
<time>2003-06-13T10:23:30Z</time>
<speed>1.1</speed>
</trkpt>
<trkpt lat="47.219583" lon="8.847014">
<ele>410.2</ele>
<time>2003-06-13T10:23:35Z</time>
<speed>0.8</speed>
</trkpt>
<trkpt lat="47.219542" lon="8.846953">
<ele>410.3</ele>
<time>2003-06-13T10:23:40Z</time>
<speed>1.1</speed>
</trkpt>
<trkpt lat="47.219507" lon="8.846906">
<ele>411.2</ele>
<time>2003-06-13T10:23:45Z</time>
<speed>0.8</speed>
</trkpt>
<trkpt lat="47.219473" lon="8.846848">
<ele>410.6</ele>
<time>2003-06-13T10:23:50Z</time>
<speed>0.8</speed>
</trkpt>
<trkpt lat="47.219427" lon="8.846787">
<ele>409.9</ele>
<time>2003-06-13T10:23:55Z</time>
<speed>0.8</speed>
</trkpt>
<trkpt lat="47.219392" lon="8.846727">
<ele>410.7</ele>
<time>2003-06-13T10:24:00Z</time>
<speed>1.1</speed>
</trkpt>
<trkpt lat="47.219345" lon="8.846680">
<ele>410.2</ele>
<time>2003-06-13T10:24:05Z</time>
<speed>0.8</speed>
</trkpt>
<trkpt lat="47.219305" lon="8.846620">
<ele>410.2</ele>
<time>2003-06-13T10:24:10Z</time>
<speed>1.1</speed>
</trkpt>
<trkpt lat="47.219264" lon="8.846574">
<ele>409.0</ele>
<time>2003-06-13T10:24:15Z</time>
<speed>0.8</speed>
</trkpt>
<trkpt lat="47.219229" lon="8.846514">
<ele>409.8</ele>
<time>2003-06-13T10:24:20Z</time>
<speed>0.8</speed>
</trkpt>
<trkpt lat="47.219195" lon="8.846469">
<ele>409.3</ele>
<time>2003-06-13T10:24:25Z</time>
<speed>1.1</speed>
</trkpt>
<trkpt lat="47.219142" lon="8.846407">
<ele>409.3</ele>
<time>2003-06-13T10:24:30Z</time>
<speed>0.8</speed>
</trkpt>
<trkpt lat="47.219088" lon="8.846357">
<ele>409.4</ele>
<time>2003-06-13T10:24:35Z</time>
<speed>0.8</speed>
</trkpt>
<trkpt lat="47.219034" lon="8.846293">
<ele>410.8</ele>
<time>2003-06-13T10:24:40Z</time>
<speed>0.8</speed>
</trkpt>
<trkpt lat="47.218979" lon="8.846257">
<ele>411.0</ele>
<time>2003-06-13T10:24:45Z</time>
<speed>1.1</speed>
</trkpt>
<trkpt lat="47.218932" lon="8.846209">
<ele>410.4</ele>
<time>2003-06-13T10:24:50Z</time>
<speed>0.8</speed>
</trkpt>
<trkpt lat="47.218883" lon="8.846173">
<ele>411.4</ele>
<time>2003-06-13T10:24:55Z</time>
<speed>0.8</speed>
</trkpt>
<trkpt lat="47.218828" lon="8.846137">
<ele>411.6</ele>
<time>2003-06-13T10:25:00Z</time>
<speed>1.1</speed>
</trkpt>
<trkpt lat="47.218778" lon="8.846116">
<ele>411.2</ele>
<time>2003-06-13T10:25:05Z</time>
<speed>0.8</speed>
</trkpt>
<trkpt lat="47.218730" lon="8.846082">
<ele>410.8</ele>
<time>2003-06-13T10:25:10Z</time>
<speed>0.8</speed>
</trkpt>
<trkpt lat="47.218687" lon="8.846047">
<ele>411.1</ele>
<time>2003-06-13T10:25:15Z</time>
<speed>1.1</speed>
</trkpt>
<trkpt lat="47.218633" lon="8.845998">
<ele>411.2</ele>
<time>2003-06-13T10:25:20Z</time>
<speed>0.8</speed>
</trkpt>
<trkpt lat="47.218585" lon="8.845964">
<ele>410.7</ele>
<time>2003-06-13T10:25:25Z</time>
<speed>1.1</speed>
</trkpt>
<trkpt lat="47.218524" lon="8.845913">
<ele>411.5</ele>
<time>2003-06-13T10:25:30Z</time>
<speed>0.8</speed>
</trkpt>
<trkpt lat="47.218476" lon="8.845878">
<ele>411.0</ele>
<time>2003-06-13T10:25:35Z</time>
<speed>1.1</speed>
</trkpt>
<trkpt lat="47.218433" lon="8.845844">
<ele>411.3</ele>
<time>2003-06-13T10:25:40Z</time>
<speed>1.1</speed>
</trkpt>
<trkpt lat="47.218372" lon="8.845808">
<ele>410.8</ele>
<time>2003-06-13T10:25:45Z</time>
<speed>1.1</speed>
</trkpt>
<trkpt lat="47.218323" lon="8.845787">
<ele>410.4</ele>
<time>2003-06-13T10:25:50Z</time>
<speed>0.8</speed>
</trkpt>
<trkpt lat="47.218281" lon="8.845739">
<ele>410.6</ele>
<time>2003-06-13T10:25:55Z</time>
<speed>1.1</speed>
</trkpt>
<trkpt lat="47.218226" lon="8.845703">
<ele>410.8</ele>
<time>2003-06-13T10:26:00Z</time>
<speed>1.1</speed>
</trkpt>
<trkpt lat="47.218171" lon="8.845667">
<ele>411.0</ele>
<time>2003-06-13T10:26:05Z</time>
<speed>0.8</speed>
</trkpt>
<trkpt lat="47.218123" lon="8.845633">
<ele>410.5</ele>
<time>2003-06-13T10:26:10Z</time>
<speed>0.8</speed>
</trkpt>
<trkpt lat="47.218074" lon="8.845599">
<ele>410.1</ele>
<time>2003-06-13T10:26:15Z</time>
<speed>0.8</speed>
</trkpt>
<trkpt lat="47.218045" lon="8.845566">
<ele>410.4</ele>
<time>2003-06-13T10:26:20Z</time>
<speed>0.3</speed>
</trkpt>
<trkpt lat="47.218038" lon="8.845564">
<ele>411.1</ele>
<time>2003-06-13T10:26:25Z</time>
<speed>0.0</speed>
</trkpt>
<trkpt lat="47.218038" lon="8.845564">
<ele>411.1</ele>
<time>2003-06-13T10:26:30Z</time>
<speed>0.0</speed>
</trkpt>
<trkpt lat="47.218038" lon="8.845564">
<ele>411.1</ele>
<time>2003-06-13T10:26:35Z</time>
<speed>0.0</speed>
</trkpt>
<trkpt lat="47.218039" lon="8.845551">
<ele>411.0</ele>
<time>2003-06-13T10:26:41Z</time>
<speed>0.0</speed>
</trkpt>
<trkpt lat="47.218026" lon="8.845549">
<ele>410.9</ele>
<time>2003-06-13T10:26:46Z</time>
<speed>0.0</speed>
</trkpt>
<trkpt lat="47.218026" lon="8.845549">
<ele>410.9</ele>
<time>2003-06-13T10:26:51Z</time>
<speed>0.0</speed>
</trkpt>
<trkpt lat="47.218026" lon="8.845549">
<ele>410.9</ele>
<time>2003-06-13T10:26:56Z</time>
<speed>0.0</speed>
</trkpt>
<trkpt lat="47.218026" lon="8.845549">
<ele>410.9</ele>
<time>2003-06-13T10:27:01Z</time>
<speed>0.0</speed>
</trkpt>
<trkpt lat="47.218026" lon="8.845549">
<ele>410.9</ele>
<time>2003-06-13T10:27:06Z</time>
<speed>0.0</speed>
</trkpt>
<trkpt lat="47.218026" lon="8.845549">
<ele>410.9</ele>
<time>2003-06-13T10:27:11Z</time>
<speed>0.0</speed>
</trkpt>
<trkpt lat="47.218015" lon="8.845534">
<ele>410.8</ele>
<time>2003-06-13T10:27:16Z</time>
<speed>0.3</speed>
</trkpt>
<trkpt lat="47.217978" lon="8.845515">
<ele>410.5</ele>
<time>2003-06-13T10:27:21Z</time>
<speed>0.3</speed>
</trkpt>
<trkpt lat="47.217954" lon="8.845498">
<ele>410.2</ele>
<time>2003-06-13T10:27:26Z</time>
<speed>0.3</speed>
</trkpt>
<trkpt lat="47.217943" lon="8.845470">
<ele>410.0</ele>
<time>2003-06-13T10:27:31Z</time>
<speed>0.3</speed>
</trkpt>
<trkpt lat="47.217952" lon="8.845446">
<ele>409.1</ele>
<time>2003-06-13T10:27:36Z</time>
<speed>0.3</speed>
</trkpt>
<trkpt lat="47.217969" lon="8.845383">
<ele>408.6</ele>
<time>2003-06-13T10:27:41Z</time>
<speed>1.1</speed>
</trkpt>
<trkpt lat="47.217970" lon="8.845289">
<ele>408.6</ele>
<time>2003-06-13T10:27:46Z</time>
<speed>1.1</speed>
</trkpt>
<trkpt lat="47.217983" lon="8.845198">
<ele>408.6</ele>
<time>2003-06-13T10:27:51Z</time>
<speed>1.1</speed>
</trkpt>
<trkpt lat="47.217984" lon="8.845105">
<ele>408.5</ele>
<time>2003-06-13T10:27:56Z</time>
<speed>1.1</speed>
</trkpt>
<trkpt lat="47.217983" lon="8.845024">
<ele>408.6</ele>
<time>2003-06-13T10:28:01Z</time>
<speed>0.8</speed>
</trkpt>
<trkpt lat="47.217977" lon="8.844944">
<ele>407.9</ele>
<time>2003-06-13T10:28:06Z</time>
<speed>1.1</speed>
</trkpt>
<trkpt lat="47.217976" lon="8.844864">
<ele>407.9</ele>
<time>2003-06-13T10:28:11Z</time>
<speed>1.1</speed>
</trkpt>
<trkpt lat="47.217969" lon="8.844781">
<ele>408.6</ele>
<time>2003-06-13T10:28:16Z</time>
<speed>1.1</speed>
</trkpt>
<trkpt lat="47.217970" lon="8.844688">
<ele>408.6</ele>
<time>2003-06-13T10:28:21Z</time>
<speed>1.1</speed>
</trkpt>
<trkpt lat="47.217963" lon="8.844608">
<ele>407.9</ele>
<time>2003-06-13T10:28:26Z</time>
<speed>1.1</speed>
</trkpt>
<trkpt lat="47.217963" lon="8.844527">
<ele>407.9</ele>
<time>2003-06-13T10:28:31Z</time>
<speed>1.1</speed>
</trkpt>
<trkpt lat="47.217969" lon="8.844449">
<ele>407.3</ele>
<time>2003-06-13T10:28:36Z</time>
<speed>1.1</speed>
</trkpt>
<trkpt lat="47.217970" lon="8.844356">
<ele>407.2</ele>
<time>2003-06-13T10:28:41Z</time>
<speed>0.8</speed>
</trkpt>
<trkpt lat="47.217969" lon="8.844276">
<ele>407.3</ele>
<time>2003-06-13T10:28:46Z</time>
<speed>1.4</speed>
</trkpt>
<trkpt lat="47.217976" lon="8.844182">
<ele>408.0</ele>
<time>2003-06-13T10:28:51Z</time>
<speed>1.1</speed>
</trkpt>
<trkpt lat="47.217976" lon="8.844089">
<ele>407.9</ele>
<time>2003-06-13T10:28:56Z</time>
<speed>1.1</speed>
</trkpt>
<trkpt lat="47.217977" lon="8.843996">
<ele>407.8</ele>
<time>2003-06-13T10:29:01Z</time>
<speed>1.1</speed>
</trkpt>
<trkpt lat="47.217978" lon="8.843902">
<ele>407.8</ele>
<time>2003-06-13T10:29:06Z</time>
<speed>1.1</speed>
</trkpt>
<trkpt lat="47.217978" lon="8.843809">
<ele>407.7</ele>
<time>2003-06-13T10:29:11Z</time>
<speed>1.1</speed>
</trkpt>
<trkpt lat="47.217978" lon="8.843729">
<ele>407.8</ele>
<time>2003-06-13T10:29:16Z</time>
<speed>1.4</speed>
</trkpt>
<trkpt lat="47.217972" lon="8.843633">
<ele>408.4</ele>
<time>2003-06-13T10:29:21Z</time>
<speed>1.4</speed>
</trkpt>
<trkpt lat="47.217972" lon="8.843540">
<ele>408.3</ele>
<time>2003-06-13T10:29:26Z</time>
<speed>1.1</speed>
</trkpt>
<trkpt lat="47.217966" lon="8.843460">
<ele>407.6</ele>
<time>2003-06-13T10:29:31Z</time>
<speed>1.1</speed>
</trkpt>
<trkpt lat="47.217965" lon="8.843379">
<ele>407.7</ele>
<time>2003-06-13T10:29:36Z</time>
<speed>1.1</speed>
</trkpt>
<trkpt lat="47.217966" lon="8.843286">
<ele>407.6</ele>
<time>2003-06-13T10:29:41Z</time>
<speed>1.1</speed>
</trkpt>
<trkpt lat="47.217966" lon="8.843206">
<ele>407.6</ele>
<time>2003-06-13T10:29:46Z</time>
<speed>1.1</speed>
</trkpt>
<trkpt lat="47.217972" lon="8.843112">
<ele>408.3</ele>
<time>2003-06-13T10:29:51Z</time>
<speed>1.4</speed>
</trkpt>
<trkpt lat="47.217973" lon="8.843019">
<ele>408.3</ele>
<time>2003-06-13T10:29:56Z</time>
<speed>1.1</speed>
</trkpt>
<trkpt lat="47.217986" lon="8.842928">
<ele>408.3</ele>
<time>2003-06-13T10:30:01Z</time>
<speed>1.1</speed>
</trkpt>
<trkpt lat="47.217973" lon="8.842845">
<ele>408.2</ele>
<time>2003-06-13T10:30:06Z</time>
<speed>1.1</speed>
</trkpt>
<trkpt lat="47.217968" lon="8.842752">
<ele>407.5</ele>
<time>2003-06-13T10:30:11Z</time>
<speed>1.1</speed>
</trkpt>
<trkpt lat="47.217973" lon="8.842672">
<ele>408.2</ele>
<time>2003-06-13T10:30:16Z</time>
<speed>1.1</speed>
</trkpt>
<trkpt lat="47.217947" lon="8.842587">
<ele>408.2</ele>
<time>2003-06-13T10:30:21Z</time>
<speed>1.1</speed>
</trkpt>
<trkpt lat="47.217907" lon="8.842527">
<ele>408.2</ele>
<time>2003-06-13T10:30:26Z</time>
<speed>0.8</speed>
</trkpt>
<trkpt lat="47.217858" lon="8.842506">
<ele>407.9</ele>
<time>2003-06-13T10:30:31Z</time>
<speed>1.1</speed>
</trkpt>
<trkpt lat="47.217795" lon="8.842483">
<ele>407.4</ele>
<time>2003-06-13T10:30:36Z</time>
<speed>1.1</speed>
</trkpt>
<trkpt lat="47.217737" lon="8.842486">
<ele>408.0</ele>
<time>2003-06-13T10:30:41Z</time>
<speed>1.1</speed>
</trkpt>
<trkpt lat="47.217680" lon="8.842491">
<ele>407.1</ele>
<time>2003-06-13T10:30:46Z</time>
<speed>1.1</speed>
</trkpt>
<trkpt lat="47.217615" lon="8.842491">
<ele>408.3</ele>
<time>2003-06-13T10:30:51Z</time>
<speed>1.1</speed>
</trkpt>
<trkpt lat="47.217558" lon="8.842496">
<ele>407.4</ele>
<time>2003-06-13T10:30:56Z</time>
<speed>1.1</speed>
</trkpt>
<trkpt lat="47.217494" lon="8.842484">
<ele>408.5</ele>
<time>2003-06-13T10:31:01Z</time>
<speed>1.1</speed>
</trkpt>
<trkpt lat="47.217436" lon="8.842489">
<ele>407.6</ele>
<time>2003-06-13T10:31:06Z</time>
<speed>1.1</speed>
</trkpt>
<trkpt lat="47.217378" lon="8.842507">
<ele>406.8</ele>
<time>2003-06-13T10:31:11Z</time>
<speed>1.1</speed>
</trkpt>
<trkpt lat="47.217321" lon="8.842497">
<ele>407.3</ele>
<time>2003-06-13T10:31:16Z</time>
<speed>1.1</speed>
</trkpt>
<trkpt lat="47.217250" lon="8.842498">
<ele>407.7</ele>
<time>2003-06-13T10:31:21Z</time>
<speed>1.1</speed>
</trkpt>
<trkpt lat="47.217191" lon="8.842516">
<ele>406.9</ele>
<time>2003-06-13T10:31:26Z</time>
<speed>1.1</speed>
</trkpt>
<trkpt lat="47.217147" lon="8.842510">
<ele>406.0</ele>
<time>2003-06-13T10:31:31Z</time>
<speed>1.1</speed>
</trkpt>
<trkpt lat="47.217108" lon="8.842517">
<ele>405.9</ele>
<time>2003-06-13T10:31:36Z</time>
<speed>0.0</speed>
</trkpt>
<trkpt lat="47.217052" lon="8.842509">
<ele>404.9</ele>
<time>2003-06-13T10:31:41Z</time>
<speed>1.1</speed>
</trkpt>
<trkpt lat="47.216988" lon="8.842496">
<ele>406.0</ele>
<time>2003-06-13T10:31:46Z</time>
<speed>1.1</speed>
</trkpt>
<trkpt lat="47.216949" lon="8.842423">
<ele>406.0</ele>
<time>2003-06-13T10:31:51Z</time>
<speed>1.1</speed>
</trkpt>
<trkpt lat="47.216934" lon="8.842352">
<ele>407.5</ele>
<time>2003-06-13T10:31:56Z</time>
<speed>1.1</speed>
</trkpt>
<trkpt lat="47.216927" lon="8.842269">
<ele>408.2</ele>
<time>2003-06-13T10:32:01Z</time>
<speed>0.8</speed>
</trkpt>
<trkpt lat="47.216923" lon="8.842163">
<ele>407.3</ele>
<time>2003-06-13T10:32:06Z</time>
<speed>1.1</speed>
</trkpt>
<trkpt lat="47.216929" lon="8.842085">
<ele>406.7</ele>
<time>2003-06-13T10:32:11Z</time>
<speed>1.1</speed>
</trkpt>
<trkpt lat="47.216923" lon="8.841989">
<ele>407.3</ele>
<time>2003-06-13T10:32:16Z</time>
<speed>1.1</speed>
</trkpt>
<trkpt lat="47.216935" lon="8.841911">
<ele>407.4</ele>
<time>2003-06-13T10:32:21Z</time>
<speed>0.8</speed>
</trkpt>
<trkpt lat="47.216935" lon="8.841831">
<ele>407.4</ele>
<time>2003-06-13T10:32:26Z</time>
<speed>0.8</speed>
</trkpt>
<trkpt lat="47.216947" lon="8.841753">
<ele>407.6</ele>
<time>2003-06-13T10:32:31Z</time>
<speed>0.8</speed>
</trkpt>
<trkpt lat="47.216946" lon="8.841672">
<ele>407.6</ele>
<time>2003-06-13T10:32:36Z</time>
<speed>0.8</speed>
</trkpt>
<trkpt lat="47.216940" lon="8.841592">
<ele>406.9</ele>
<time>2003-06-13T10:32:41Z</time>
<speed>1.1</speed>
</trkpt>
<trkpt lat="47.216920" lon="8.841523">
<ele>406.3</ele>
<time>2003-06-13T10:32:46Z</time>
<speed>1.1</speed>
</trkpt>
<trkpt lat="47.216908" lon="8.841427">
<ele>406.1</ele>
<time>2003-06-13T10:32:51Z</time>
<speed>1.1</speed>
</trkpt>
<trkpt lat="47.216888" lon="8.841345">
<ele>405.4</ele>
<time>2003-06-13T10:32:56Z</time>
<speed>1.1</speed>
</trkpt>
<trkpt lat="47.216882" lon="8.841263">
<ele>406.1</ele>
<time>2003-06-13T10:33:01Z</time>
<speed>1.1</speed>
</trkpt>
<trkpt lat="47.216895" lon="8.841156">
<ele>407.4</ele>
<time>2003-06-13T10:33:06Z</time>
<speed>1.1</speed>
</trkpt>
<trkpt lat="47.216888" lon="8.841074">
<ele>408.1</ele>
<time>2003-06-13T10:33:11Z</time>
<speed>1.1</speed>
</trkpt>
<trkpt lat="47.216889" lon="8.840981">
<ele>408.1</ele>
<time>2003-06-13T10:33:16Z</time>
<speed>1.1</speed>
</trkpt>
<trkpt lat="47.216870" lon="8.840898">
<ele>407.3</ele>
<time>2003-06-13T10:33:21Z</time>
<speed>1.4</speed>
</trkpt>
<trkpt lat="47.216864" lon="8.840803">
<ele>407.9</ele>
<time>2003-06-13T10:33:26Z</time>
<speed>1.1</speed>
</trkpt>
<trkpt lat="47.216870" lon="8.840708">
<ele>410.0</ele>
<time>2003-06-13T10:33:31Z</time>
<speed>0.8</speed>
</trkpt>
<trkpt lat="47.216870" lon="8.840627">
<ele>410.0</ele>
<time>2003-06-13T10:33:36Z</time>
<speed>1.1</speed>
</trkpt>
<trkpt lat="47.216864" lon="8.840534">
<ele>409.3</ele>
<time>2003-06-13T10:33:41Z</time>
<speed>1.4</speed>
</trkpt>
<trkpt lat="47.216872" lon="8.840428">
<ele>409.8</ele>
<time>2003-06-13T10:33:46Z</time>
<speed>1.1</speed>
</trkpt>
<trkpt lat="47.216858" lon="8.840358">
<ele>409.9</ele>
<time>2003-06-13T10:33:51Z</time>
<speed>0.8</speed>
</trkpt>
<trkpt lat="47.216852" lon="8.840263">
<ele>410.5</ele>
<time>2003-06-13T10:33:56Z</time>
<speed>1.1</speed>
</trkpt>
<trkpt lat="47.216838" lon="8.840194">
<ele>410.6</ele>
<time>2003-06-13T10:34:01Z</time>
<speed>1.1</speed>
</trkpt>
<trkpt lat="47.216831" lon="8.840113">
<ele>409.9</ele>
<time>2003-06-13T10:34:06Z</time>
<speed>1.1</speed>
</trkpt>
<trkpt lat="47.216849" lon="8.840050">
<ele>409.5</ele>
<time>2003-06-13T10:34:11Z</time>
<speed>1.1</speed>
</trkpt>
<trkpt lat="47.216909" lon="8.840019">
<ele>410.1</ele>
<time>2003-06-13T10:34:16Z</time>
<speed>1.4</speed>
</trkpt>
<trkpt lat="47.216967" lon="8.840016">
<ele>409.6</ele>
<time>2003-06-13T10:34:21Z</time>
<speed>1.1</speed>
</trkpt>
<trkpt lat="47.217026" lon="8.840000">
<ele>409.0</ele>
<time>2003-06-13T10:34:26Z</time>
<speed>1.4</speed>
</trkpt>
<trkpt lat="47.217078" lon="8.839997">
<ele>407.7</ele>
<time>2003-06-13T10:34:31Z</time>
<speed>1.1</speed>
</trkpt>
<trkpt lat="47.217142" lon="8.839994">
<ele>407.9</ele>
<time>2003-06-13T10:34:36Z</time>
<speed>1.4</speed>
</trkpt>
<trkpt lat="47.217194" lon="8.839977">
<ele>408.0</ele>
<time>2003-06-13T10:34:41Z</time>
<speed>1.1</speed>
</trkpt>
<trkpt lat="47.217253" lon="8.839959">
<ele>408.8</ele>
<time>2003-06-13T10:34:46Z</time>
<speed>1.1</speed>
</trkpt>
<trkpt lat="47.217306" lon="8.839941">
<ele>408.8</ele>
<time>2003-06-13T10:34:51Z</time>
<speed>1.1</speed>
</trkpt>
<trkpt lat="47.217364" lon="8.839938">
<ele>408.3</ele>
<time>2003-06-13T10:34:56Z</time>
<speed>0.8</speed>
</trkpt>
<trkpt lat="47.217416" lon="8.839920">
<ele>408.3</ele>
<time>2003-06-13T10:35:01Z</time>
<speed>0.8</speed>
</trkpt>
<trkpt lat="47.217463" lon="8.839887">
<ele>408.9</ele>
<time>2003-06-13T10:35:06Z</time>
<speed>0.3</speed>
</trkpt>
<trkpt lat="47.217475" lon="8.839808">
<ele>409.0</ele>
<time>2003-06-13T10:35:11Z</time>
<speed>1.1</speed>
</trkpt>
<trkpt lat="47.217494" lon="8.839730">
<ele>409.9</ele>
<time>2003-06-13T10:35:16Z</time>
<speed>1.1</speed>
</trkpt>
<trkpt lat="47.217494" lon="8.839637">
<ele>409.8</ele>
<time>2003-06-13T10:35:21Z</time>
<speed>1.4</speed>
</trkpt>
<trkpt lat="47.217482" lon="8.839541">
<ele>409.7</ele>
<time>2003-06-13T10:35:26Z</time>
<speed>1.1</speed>
</trkpt>
<trkpt lat="47.217469" lon="8.839459">
<ele>409.7</ele>
<time>2003-06-13T10:35:31Z</time>
<speed>1.1</speed>
</trkpt>
<trkpt lat="47.217463" lon="8.839379">
<ele>409.0</ele>
<time>2003-06-13T10:35:36Z</time>
<speed>1.1</speed>
</trkpt>
<trkpt lat="47.217450" lon="8.839296">
<ele>409.0</ele>
<time>2003-06-13T10:35:41Z</time>
<speed>1.1</speed>
</trkpt>
<trkpt lat="47.217449" lon="8.839216">
<ele>409.0</ele>
<time>2003-06-13T10:35:46Z</time>
<speed>1.1</speed>
</trkpt>
<trkpt lat="47.217437" lon="8.839121">
<ele>408.9</ele>
<time>2003-06-13T10:35:51Z</time>
<speed>1.1</speed>
</trkpt>
<trkpt lat="47.217437" lon="8.839041">
<ele>408.9</ele>
<time>2003-06-13T10:35:56Z</time>
<speed>1.1</speed>
</trkpt>
<trkpt lat="47.217436" lon="8.838960">
<ele>409.0</ele>
<time>2003-06-13T10:36:01Z</time>
<speed>1.4</speed>
</trkpt>
<trkpt lat="47.217436" lon="8.838865">
<ele>410.3</ele>
<time>2003-06-13T10:36:06Z</time>
<speed>1.1</speed>
</trkpt>
<trkpt lat="47.217436" lon="8.838785">
<ele>410.4</ele>
<time>2003-06-13T10:36:11Z</time>
<speed>1.1</speed>
</trkpt>
<trkpt lat="47.217442" lon="8.838706">
<ele>409.7</ele>
<time>2003-06-13T10:36:16Z</time>
<speed>1.1</speed>
</trkpt>
<trkpt lat="47.217455" lon="8.838615">
<ele>409.7</ele>
<time>2003-06-13T10:36:21Z</time>
<speed>1.1</speed>
</trkpt>
<trkpt lat="47.217456" lon="8.838522">
<ele>409.7</ele>
<time>2003-06-13T10:36:26Z</time>
<speed>1.4</speed>
</trkpt>
<trkpt lat="47.217462" lon="8.838443">
<ele>409.1</ele>
<time>2003-06-13T10:36:31Z</time>
<speed>1.1</speed>
</trkpt>
<trkpt lat="47.217468" lon="8.838365">
<ele>408.4</ele>
<time>2003-06-13T10:36:36Z</time>
<speed>1.1</speed>
</trkpt>
<trkpt lat="47.217479" lon="8.838300">
<ele>408.6</ele>
<time>2003-06-13T10:36:41Z</time>
<speed>1.1</speed>
</trkpt>
<trkpt lat="47.217480" lon="8.838207">
<ele>408.6</ele>
<time>2003-06-13T10:36:46Z</time>
<speed>0.8</speed>
</trkpt>
<trkpt lat="47.217487" lon="8.838115">
<ele>407.9</ele>
<time>2003-06-13T10:36:51Z</time>
<speed>1.1</speed>
</trkpt>
<trkpt lat="47.217494" lon="8.838024">
<ele>407.1</ele>
<time>2003-06-13T10:36:56Z</time>
<speed>0.8</speed>
</trkpt>
<trkpt lat="47.217501" lon="8.837933">
<ele>406.4</ele>
<time>2003-06-13T10:37:01Z</time>
<speed>1.1</speed>
</trkpt>
<trkpt lat="47.217527" lon="8.837843">
<ele>406.5</ele>
<time>2003-06-13T10:37:06Z</time>
<speed>1.4</speed>
</trkpt>
<trkpt lat="47.217546" lon="8.837752">
<ele>407.2</ele>
<time>2003-06-13T10:37:11Z</time>
<speed>1.1</speed>
</trkpt>
<trkpt lat="47.217565" lon="8.837676">
<ele>406.6</ele>
<time>2003-06-13T10:37:16Z</time>
<speed>0.8</speed>
</trkpt>
<trkpt lat="47.217589" lon="8.837613">
<ele>406.9</ele>
<time>2003-06-13T10:37:21Z</time>
<speed>1.1</speed>
</trkpt>
<trkpt lat="47.217625" lon="8.837551">
<ele>407.2</ele>
<time>2003-06-13T10:37:26Z</time>
<speed>0.8</speed>
</trkpt>
<trkpt lat="47.217674" lon="8.837492">
<ele>407.6</ele>
<time>2003-06-13T10:37:31Z</time>
<speed>1.1</speed>
</trkpt>
<trkpt lat="47.217723" lon="8.837433">
<ele>408.0</ele>
<time>2003-06-13T10:37:36Z</time>
<speed>1.1</speed>
</trkpt>
<trkpt lat="47.217773" lon="8.837359">
<ele>409.7</ele>
<time>2003-06-13T10:37:41Z</time>
<speed>1.4</speed>
</trkpt>
<trkpt lat="47.217817" lon="8.837287">
<ele>409.3</ele>
<time>2003-06-13T10:37:46Z</time>
<speed>1.1</speed>
</trkpt>
<trkpt lat="47.217853" lon="8.837226">
<ele>409.6</ele>
<time>2003-06-13T10:37:51Z</time>
<speed>0.6</speed>
</trkpt>
<trkpt lat="47.217895" lon="8.837180">
<ele>409.4</ele>
<time>2003-06-13T10:37:56Z</time>
<speed>0.8</speed>
</trkpt>
<trkpt lat="47.217931" lon="8.837131">
<ele>409.9</ele>
<time>2003-06-13T10:38:01Z</time>
<speed>1.4</speed>
</trkpt>
<trkpt lat="47.217969" lon="8.837042">
<ele>411.4</ele>
<time>2003-06-13T10:38:06Z</time>
<speed>0.8</speed>
</trkpt>
<trkpt lat="47.217968" lon="8.836960">
<ele>412.8</ele>
<time>2003-06-13T10:38:11Z</time>
<speed>1.1</speed>
</trkpt>
<trkpt lat="47.217968" lon="8.836864">
<ele>414.2</ele>
<time>2003-06-13T10:38:16Z</time>
<speed>1.1</speed>
</trkpt>
<trkpt lat="47.217968" lon="8.836784">
<ele>414.2</ele>
<time>2003-06-13T10:38:21Z</time>
<speed>1.1</speed>
</trkpt>
<trkpt lat="47.217961" lon="8.836704">
<ele>413.5</ele>
<time>2003-06-13T10:38:26Z</time>
<speed>1.1</speed>
</trkpt>
<trkpt lat="47.217955" lon="8.836608">
<ele>414.2</ele>
<time>2003-06-13T10:38:31Z</time>
<speed>1.1</speed>
</trkpt>
<trkpt lat="47.217949" lon="8.836528">
<ele>413.5</ele>
<time>2003-06-13T10:38:36Z</time>
<speed>1.1</speed>
</trkpt>
<trkpt lat="47.217949" lon="8.836435">
<ele>413.4</ele>
<time>2003-06-13T10:38:41Z</time>
<speed>1.1</speed>
</trkpt>
<trkpt lat="47.217957" lon="8.836328">
<ele>414.0</ele>
<time>2003-06-13T10:38:46Z</time>
<speed>1.1</speed>
</trkpt>
<trkpt lat="47.217950" lon="8.836246">
<ele>414.7</ele>
<time>2003-06-13T10:38:51Z</time>
<speed>1.1</speed>
</trkpt>
<trkpt lat="47.217963" lon="8.836153">
<ele>416.1</ele>
<time>2003-06-13T10:38:56Z</time>
<speed>1.1</speed>
</trkpt>
<trkpt lat="47.217957" lon="8.836059">
<ele>415.3</ele>
<time>2003-06-13T10:39:01Z</time>
<speed>1.1</speed>
</trkpt>
<trkpt lat="47.217932" lon="8.835975">
<ele>415.2</ele>
<time>2003-06-13T10:39:06Z</time>
<speed>1.1</speed>
</trkpt>
<trkpt lat="47.217892" lon="8.835902">
<ele>415.2</ele>
<time>2003-06-13T10:39:11Z</time>
<speed>1.1</speed>
</trkpt>
<trkpt lat="47.217877" lon="8.835846">
<ele>415.4</ele>
<time>2003-06-13T10:39:16Z</time>
<speed>1.1</speed>
</trkpt>
<trkpt lat="47.217858" lon="8.835763">
<ele>414.6</ele>
<time>2003-06-13T10:39:21Z</time>
<speed>1.1</speed>
</trkpt>
<trkpt lat="47.217846" lon="8.835668">
<ele>414.5</ele>
<time>2003-06-13T10:39:26Z</time>
<speed>1.1</speed>
</trkpt>
<trkpt lat="47.217827" lon="8.835586">
<ele>413.8</ele>
<time>2003-06-13T10:39:31Z</time>
<speed>0.8</speed>
</trkpt>
<trkpt lat="47.217813" lon="8.835516">
<ele>413.8</ele>
<time>2003-06-13T10:39:36Z</time>
<speed>0.3</speed>
</trkpt>
<trkpt lat="47.217807" lon="8.835516">
<ele>413.1</ele>
<time>2003-06-13T10:39:41Z</time>
<speed>0.0</speed>
</trkpt>
<trkpt lat="47.217806" lon="8.835529">
<ele>413.2</ele>
<time>2003-06-13T10:39:46Z</time>
<speed>0.0</speed>
</trkpt>
<trkpt lat="47.217806" lon="8.835529">
<ele>413.2</ele>
<time>2003-06-13T10:39:51Z</time>
<speed>0.0</speed>
</trkpt>
<trkpt lat="47.217806" lon="8.835529">
<ele>413.2</ele>
<time>2003-06-13T10:39:56Z</time>
<speed>0.0</speed>
</trkpt>
<trkpt lat="47.217799" lon="8.835529">
<ele>412.5</ele>
<time>2003-06-13T10:40:01Z</time>
<speed>0.0</speed>
</trkpt>
<trkpt lat="47.217786" lon="8.835540">
<ele>412.5</ele>
<time>2003-06-13T10:40:06Z</time>
<speed>0.0</speed>
</trkpt>
<trkpt lat="47.217780" lon="8.835525">
<ele>413.1</ele>
<time>2003-06-13T10:40:11Z</time>
<speed>0.0</speed>
</trkpt>
<trkpt lat="47.217774" lon="8.835525">
<ele>412.4</ele>
<time>2003-06-13T10:40:16Z</time>
<speed>0.0</speed>
</trkpt>
<trkpt lat="47.217774" lon="8.835525">
<ele>412.4</ele>
<time>2003-06-13T10:40:21Z</time>
<speed>0.0</speed>
</trkpt>
<trkpt lat="47.217774" lon="8.835525">
<ele>412.4</ele>
<time>2003-06-13T10:40:26Z</time>
<speed>0.0</speed>
</trkpt>
<trkpt lat="47.217785" lon="8.835475">
<ele>411.3</ele>
<time>2003-06-13T10:40:31Z</time>
<speed>0.3</speed>
</trkpt>
<trkpt lat="47.217786" lon="8.835462">
<ele>411.2</ele>
<time>2003-06-13T10:40:36Z</time>
<speed>0.0</speed>
</trkpt>
<trkpt lat="47.217786" lon="8.835462">
<ele>411.2</ele>
<time>2003-06-13T10:40:41Z</time>
<speed>0.0</speed>
</trkpt>
<trkpt lat="47.217784" lon="8.835410">
<ele>410.0</ele>
<time>2003-06-13T10:40:46Z</time>
<speed>1.1</speed>
</trkpt>
<trkpt lat="47.217770" lon="8.835341">
<ele>410.1</ele>
<time>2003-06-13T10:40:51Z</time>
<speed>0.8</speed>
</trkpt>
<trkpt lat="47.217764" lon="8.835247">
<ele>409.3</ele>
<time>2003-06-13T10:40:56Z</time>
<speed>1.1</speed>
</trkpt>
<trkpt lat="47.217751" lon="8.835165">
<ele>409.3</ele>
<time>2003-06-13T10:41:01Z</time>
<speed>1.1</speed>
</trkpt>
<trkpt lat="47.217738" lon="8.835083">
<ele>409.3</ele>
<time>2003-06-13T10:41:06Z</time>
<speed>1.4</speed>
</trkpt>
<trkpt lat="47.217725" lon="8.835000">
<ele>409.3</ele>
<time>2003-06-13T10:41:11Z</time>
<speed>0.8</speed>
</trkpt>
<trkpt lat="47.217724" lon="8.834920">
<ele>409.3</ele>
<time>2003-06-13T10:41:16Z</time>
<speed>1.1</speed>
</trkpt>
<trkpt lat="47.217717" lon="8.834838">
<ele>410.0</ele>
<time>2003-06-13T10:41:21Z</time>
<speed>1.1</speed>
</trkpt>
<trkpt lat="47.217712" lon="8.834744">
<ele>409.2</ele>
<time>2003-06-13T10:41:26Z</time>
<speed>1.1</speed>
</trkpt>
<trkpt lat="47.217699" lon="8.834662">
<ele>409.2</ele>
<time>2003-06-13T10:41:31Z</time>
<speed>1.4</speed>
</trkpt>
<trkpt lat="47.217686" lon="8.834580">
<ele>409.2</ele>
<time>2003-06-13T10:41:36Z</time>
<speed>1.4</speed>
</trkpt>
<trkpt lat="47.217680" lon="8.834484">
<ele>409.8</ele>
<time>2003-06-13T10:41:41Z</time>
<speed>1.1</speed>
</trkpt>
<trkpt lat="47.217673" lon="8.834402">
<ele>410.5</ele>
<time>2003-06-13T10:41:46Z</time>
<speed>1.1</speed>
</trkpt>
<trkpt lat="47.217673" lon="8.834309">
<ele>410.5</ele>
<time>2003-06-13T10:41:51Z</time>
<speed>1.1</speed>
</trkpt>
<trkpt lat="47.217655" lon="8.834211">
<ele>411.0</ele>
<time>2003-06-13T10:41:56Z</time>
<speed>1.4</speed>
</trkpt>
<trkpt lat="47.217648" lon="8.834129">
<ele>411.7</ele>
<time>2003-06-13T10:42:01Z</time>
<speed>1.1</speed>
</trkpt>
<trkpt lat="47.217629" lon="8.834047">
<ele>411.0</ele>
<time>2003-06-13T10:42:06Z</time>
<speed>1.1</speed>
</trkpt>
<trkpt lat="47.217617" lon="8.833951">
<ele>410.9</ele>
<time>2003-06-13T10:42:11Z</time>
<speed>1.4</speed>
</trkpt>
<trkpt lat="47.217605" lon="8.833856">
<ele>410.7</ele>
<time>2003-06-13T10:42:16Z</time>
<speed>1.1</speed>
</trkpt>
<trkpt lat="47.217605" lon="8.833763">
<ele>410.7</ele>
<time>2003-06-13T10:42:21Z</time>
<speed>1.1</speed>
</trkpt>
<trkpt lat="47.217592" lon="8.833695">
<ele>409.4</ele>
<time>2003-06-13T10:42:26Z</time>
<speed>0.3</speed>
</trkpt>
<trkpt lat="47.217595" lon="8.833656">
<ele>409.0</ele>
<time>2003-06-13T10:42:31Z</time>
<speed>1.1</speed>
</trkpt>
<trkpt lat="47.217585" lon="8.833615">
<ele>408.7</ele>
<time>2003-06-13T10:42:36Z</time>
<speed>0.6</speed>
</trkpt>
<trkpt lat="47.217571" lon="8.833546">
<ele>408.8</ele>
<time>2003-06-13T10:42:41Z</time>
<speed>1.1</speed>
</trkpt>
<trkpt lat="47.217568" lon="8.833492">
<ele>409.0</ele>
<time>2003-06-13T10:42:46Z</time>
<speed>0.8</speed>
</trkpt>
<trkpt lat="47.217560" lon="8.833437">
<ele>408.5</ele>
<time>2003-06-13T10:42:51Z</time>
<speed>0.6</speed>
</trkpt>
<trkpt lat="47.217557" lon="8.833383">
<ele>408.8</ele>
<time>2003-06-13T10:42:56Z</time>
<speed>0.8</speed>
</trkpt>
<trkpt lat="47.217555" lon="8.833329">
<ele>409.0</ele>
<time>2003-06-13T10:43:01Z</time>
<speed>0.8</speed>
</trkpt>
<trkpt lat="47.217560" lon="8.833264">
<ele>408.5</ele>
<time>2003-06-13T10:43:06Z</time>
<speed>0.6</speed>
</trkpt>
<trkpt lat="47.217554" lon="8.833264">
<ele>407.8</ele>
<time>2003-06-13T10:43:11Z</time>
<speed>0.3</speed>
</trkpt>
<trkpt lat="47.217581" lon="8.833242">
<ele>407.7</ele>
<time>2003-06-13T10:43:16Z</time>
<speed>0.3</speed>
</trkpt>
<trkpt lat="47.217581" lon="8.833242">
<ele>407.7</ele>
<time>2003-06-13T10:43:21Z</time>
<speed>0.0</speed>
</trkpt>
<trkpt lat="47.217581" lon="8.833242">
<ele>407.7</ele>
<time>2003-06-13T10:43:26Z</time>
<speed>0.0</speed>
</trkpt>
<trkpt lat="47.217570" lon="8.833227">
<ele>407.5</ele>
<time>2003-06-13T10:43:31Z</time>
<speed>0.3</speed>
</trkpt>
<trkpt lat="47.217565" lon="8.833198">
<ele>408.0</ele>
<time>2003-06-13T10:43:36Z</time>
<speed>0.0</speed>
</trkpt>
<trkpt lat="47.217565" lon="8.833198">
<ele>408.0</ele>
<time>2003-06-13T10:43:41Z</time>
<speed>0.0</speed>
</trkpt>
<trkpt lat="47.217571" lon="8.833198">
<ele>408.7</ele>
<time>2003-06-13T10:43:46Z</time>
<speed>0.0</speed>
</trkpt>
<trkpt lat="47.217552" lon="8.833194">
<ele>409.3</ele>
<time>2003-06-13T10:43:51Z</time>
<speed>0.0</speed>
</trkpt>
<trkpt lat="47.217551" lon="8.833209">
<ele>408.0</ele>
<time>2003-06-13T10:43:56Z</time>
<speed>0.0</speed>
</trkpt>
<trkpt lat="47.217538" lon="8.833220">
<ele>408.1</ele>
<time>2003-06-13T10:44:01Z</time>
<speed>0.0</speed>
</trkpt>
<trkpt lat="47.217543" lon="8.833234">
<ele>408.9</ele>
<time>2003-06-13T10:44:06Z</time>
<speed>0.3</speed>
</trkpt>
<trkpt lat="47.217518" lon="8.833229">
<ele>408.8</ele>
<time>2003-06-13T10:44:11Z</time>
<speed>0.8</speed>
</trkpt>
<trkpt lat="47.217491" lon="8.833238">
<ele>408.8</ele>
<time>2003-06-13T10:44:16Z</time>
<speed>0.3</speed>
</trkpt>
<trkpt lat="47.217440" lon="8.833243">
<ele>408.6</ele>
<time>2003-06-13T10:44:21Z</time>
<speed>1.1</speed>
</trkpt>
<trkpt lat="47.217382" lon="8.833246">
<ele>409.1</ele>
<time>2003-06-13T10:44:26Z</time>
<speed>0.6</speed>
</trkpt>
<trkpt lat="47.217403" lon="8.833224">
<ele>408.3</ele>
<time>2003-06-13T10:44:31Z</time>
<speed>0.8</speed>
</trkpt>
<trkpt lat="47.217476" lon="8.833199">
<ele>406.2</ele>
<time>2003-06-13T10:44:36Z</time>
<speed>0.8</speed>
</trkpt>
<trkpt lat="47.217534" lon="8.833196">
<ele>405.7</ele>
<time>2003-06-13T10:44:41Z</time>
<speed>0.8</speed>
</trkpt>
<trkpt lat="47.217598" lon="8.833191">
<ele>407.3</ele>
<time>2003-06-13T10:44:46Z</time>
<speed>1.1</speed>
</trkpt>
<trkpt lat="47.217639" lon="8.833158">
<ele>407.2</ele>
<time>2003-06-13T10:44:51Z</time>
<speed>1.1</speed>
</trkpt>
<trkpt lat="47.217664" lon="8.833084">
<ele>406.0</ele>
<time>2003-06-13T10:44:56Z</time>
<speed>0.8</speed>
</trkpt>
<trkpt lat="47.217694" lon="8.833021">
<ele>407.0</ele>
<time>2003-06-13T10:45:01Z</time>
<speed>0.8</speed>
</trkpt>
<trkpt lat="47.217730" lon="8.832960">
<ele>407.3</ele>
<time>2003-06-13T10:45:06Z</time>
<speed>1.4</speed>
</trkpt>
<trkpt lat="47.217784" lon="8.832912">
<ele>410.0</ele>
<time>2003-06-13T10:45:11Z</time>
<speed>0.6</speed>
</trkpt>
<trkpt lat="47.217808" lon="8.832849">
<ele>410.2</ele>
<time>2003-06-13T10:45:16Z</time>
<speed>0.8</speed>
</trkpt>
<trkpt lat="47.217839" lon="8.832772">
<ele>411.2</ele>
<time>2003-06-13T10:45:21Z</time>
<speed>1.1</speed>
</trkpt>
<trkpt lat="47.217852" lon="8.832681">
<ele>411.2</ele>
<time>2003-06-13T10:45:26Z</time>
<speed>1.4</speed>
</trkpt>
<trkpt lat="47.217858" lon="8.832603">
<ele>410.5</ele>
<time>2003-06-13T10:45:31Z</time>
<speed>1.1</speed>
</trkpt>
<trkpt lat="47.217864" lon="8.832522">
<ele>411.3</ele>
<time>2003-06-13T10:45:36Z</time>
<speed>0.8</speed>
</trkpt>
<trkpt lat="47.217890" lon="8.832433">
<ele>411.4</ele>
<time>2003-06-13T10:45:41Z</time>
<speed>0.8</speed>
</trkpt>
<trkpt lat="47.217896" lon="8.832355">
<ele>410.8</ele>
<time>2003-06-13T10:45:46Z</time>
<speed>1.1</speed>
</trkpt>
<trkpt lat="47.217927" lon="8.832264">
<ele>413.0</ele>
<time>2003-06-13T10:45:51Z</time>
<speed>1.1</speed>
</trkpt>
<trkpt lat="47.217952" lon="8.832187">
<ele>413.1</ele>
<time>2003-06-13T10:45:56Z</time>
<speed>0.8</speed>
</trkpt>
<trkpt lat="47.217977" lon="8.832111">
<ele>413.3</ele>
<time>2003-06-13T10:46:01Z</time>
<speed>0.8</speed>
</trkpt>
<trkpt lat="47.217996" lon="8.832035">
<ele>412.7</ele>
<time>2003-06-13T10:46:06Z</time>
<speed>0.8</speed>
</trkpt>
<trkpt lat="47.218014" lon="8.831957">
<ele>413.6</ele>
<time>2003-06-13T10:46:11Z</time>
<speed>0.8</speed>
</trkpt>
<trkpt lat="47.218033" lon="8.831880">
<ele>413.0</ele>
<time>2003-06-13T10:46:16Z</time>
<speed>0.8</speed>
</trkpt>
<trkpt lat="47.218065" lon="8.831793">
<ele>412.4</ele>
<time>2003-06-13T10:46:21Z</time>
<speed>0.8</speed>
</trkpt>
<trkpt lat="47.218090" lon="8.831717">
<ele>412.6</ele>
<time>2003-06-13T10:46:26Z</time>
<speed>1.1</speed>
</trkpt>
<trkpt lat="47.218128" lon="8.831628">
<ele>414.1</ele>
<time>2003-06-13T10:46:31Z</time>
<speed>1.1</speed>
</trkpt>
<trkpt lat="47.218148" lon="8.831538">
<ele>413.4</ele>
<time>2003-06-13T10:46:36Z</time>
<speed>1.1</speed>
</trkpt>
<trkpt lat="47.218172" lon="8.831462">
<ele>413.6</ele>
<time>2003-06-13T10:46:41Z</time>
<speed>1.1</speed>
</trkpt>
<trkpt lat="47.218204" lon="8.831388">
<ele>413.1</ele>
<time>2003-06-13T10:46:46Z</time>
<speed>0.8</speed>
</trkpt>
<trkpt lat="47.218243" lon="8.831303">
<ele>411.8</ele>
<time>2003-06-13T10:46:51Z</time>
<speed>1.1</speed>
</trkpt>
<trkpt lat="47.218266" lon="8.831239">
<ele>412.1</ele>
<time>2003-06-13T10:46:56Z</time>
<speed>0.8</speed>
</trkpt>
<trkpt lat="47.218321" lon="8.831193">
<ele>413.4</ele>
<time>2003-06-13T10:47:01Z</time>
<speed>0.8</speed>
</trkpt>
<trkpt lat="47.218368" lon="8.831145">
<ele>415.3</ele>
<time>2003-06-13T10:47:06Z</time>
<speed>1.1</speed>
</trkpt>
<trkpt lat="47.218424" lon="8.831088">
<ele>415.0</ele>
<time>2003-06-13T10:47:11Z</time>
<speed>0.8</speed>
</trkpt>
<trkpt lat="47.218466" lon="8.831044">
<ele>413.4</ele>
<time>2003-06-13T10:47:16Z</time>
<speed>1.1</speed>
</trkpt>
<trkpt lat="47.218509" lon="8.830985">
<ele>413.0</ele>
<time>2003-06-13T10:47:21Z</time>
<speed>1.1</speed>
</trkpt>
<trkpt lat="47.218551" lon="8.830939">
<ele>412.8</ele>
<time>2003-06-13T10:47:26Z</time>
<speed>1.1</speed>
</trkpt>
<trkpt lat="47.218601" lon="8.830882">
<ele>411.8</ele>
<time>2003-06-13T10:47:31Z</time>
<speed>0.8</speed>
</trkpt>
<trkpt lat="47.218650" lon="8.830824">
<ele>410.8</ele>
<time>2003-06-13T10:47:36Z</time>
<speed>0.8</speed>
</trkpt>
<trkpt lat="47.218688" lon="8.830752">
<ele>409.6</ele>
<time>2003-06-13T10:47:41Z</time>
<speed>1.1</speed>
</trkpt>
<trkpt lat="47.218725" lon="8.830678">
<ele>409.9</ele>
<time>2003-06-13T10:47:46Z</time>
<speed>1.1</speed>
</trkpt>
<trkpt lat="47.218764" lon="8.830593">
<ele>408.6</ele>
<time>2003-06-13T10:47:51Z</time>
<speed>1.4</speed>
</trkpt>
<trkpt lat="47.218802" lon="8.830519">
<ele>408.8</ele>
<time>2003-06-13T10:47:56Z</time>
<speed>1.4</speed>
</trkpt>
<trkpt lat="47.218821" lon="8.830429">
<ele>408.1</ele>
<time>2003-06-13T10:48:02Z</time>
<speed>1.1</speed>
</trkpt>
<trkpt lat="47.218858" lon="8.830368">
<ele>408.5</ele>
<time>2003-06-13T10:48:07Z</time>
<speed>0.8</speed>
</trkpt>
<trkpt lat="47.218895" lon="8.830294">
<ele>408.7</ele>
<time>2003-06-13T10:48:12Z</time>
<speed>1.1</speed>
</trkpt>
<trkpt lat="47.218926" lon="8.830233">
<ele>408.3</ele>
<time>2003-06-13T10:48:17Z</time>
<speed>0.8</speed>
</trkpt>
<trkpt lat="47.218962" lon="8.830172">
<ele>408.7</ele>
<time>2003-06-13T10:48:22Z</time>
<speed>0.8</speed>
</trkpt>
<trkpt lat="47.218999" lon="8.830112">
<ele>407.6</ele>
<time>2003-06-13T10:48:27Z</time>
<speed>0.8</speed>
</trkpt>
<trkpt lat="47.219036" lon="8.830053">
<ele>406.5</ele>
<time>2003-06-13T10:48:32Z</time>
<speed>0.8</speed>
</trkpt>
<trkpt lat="47.219086" lon="8.829981">
<ele>406.8</ele>
<time>2003-06-13T10:48:37Z</time>
<speed>1.1</speed>
</trkpt>
<trkpt lat="47.219123" lon="8.829922">
<ele>405.8</ele>
<time>2003-06-13T10:48:42Z</time>
<speed>1.1</speed>
</trkpt>
<trkpt lat="47.219165" lon="8.829876">
<ele>405.5</ele>
<time>2003-06-13T10:48:47Z</time>
<speed>0.8</speed>
</trkpt>
<trkpt lat="47.219214" lon="8.829817">
<ele>405.9</ele>
<time>2003-06-13T10:48:52Z</time>
<speed>0.8</speed>
</trkpt>
<trkpt lat="47.219263" lon="8.829758">
<ele>406.3</ele>
<time>2003-06-13T10:48:57Z</time>
<speed>1.1</speed>
</trkpt>
<trkpt lat="47.219290" lon="8.829736">
<ele>406.3</ele>
<time>2003-06-13T10:49:02Z</time>
<speed>0.3</speed>
</trkpt>
<trkpt lat="47.219331" lon="8.829702">
<ele>406.1</ele>
<time>2003-06-13T10:49:07Z</time>
<speed>0.0</speed>
</trkpt>
<trkpt lat="47.219373" lon="8.829656">
<ele>405.9</ele>
<time>2003-06-13T10:49:12Z</time>
<speed>1.1</speed>
</trkpt>
<trkpt lat="47.219434" lon="8.829614">
<ele>405.1</ele>
<time>2003-06-13T10:49:17Z</time>
<speed>1.4</speed>
</trkpt>
<trkpt lat="47.219502" lon="8.829559">
<ele>404.9</ele>
<time>2003-06-13T10:49:22Z</time>
<speed>1.4</speed>
</trkpt>
<trkpt lat="47.219564" lon="8.829502">
<ele>405.3</ele>
<time>2003-06-13T10:49:27Z</time>
<speed>0.8</speed>
</trkpt>
<trkpt lat="47.219621" lon="8.829432">
<ele>404.9</ele>
<time>2003-06-13T10:49:32Z</time>
<speed>1.1</speed>
</trkpt>
<trkpt lat="47.219671" lon="8.829360">
<ele>405.2</ele>
<time>2003-06-13T10:49:37Z</time>
<speed>1.4</speed>
</trkpt>
<trkpt lat="47.219725" lon="8.829316">
<ele>405.1</ele>
<time>2003-06-13T10:49:42Z</time>
<speed>1.1</speed>
</trkpt>
<trkpt lat="47.219783" lon="8.829230">
<ele>406.0</ele>
<time>2003-06-13T10:49:47Z</time>
<speed>1.4</speed>
</trkpt>
<trkpt lat="47.219839" lon="8.829160">
<ele>405.6</ele>
<time>2003-06-13T10:49:52Z</time>
<speed>1.1</speed>
</trkpt>
<trkpt lat="47.219883" lon="8.829088">
<ele>405.2</ele>
<time>2003-06-13T10:49:57Z</time>
<speed>1.1</speed>
</trkpt>
<trkpt lat="47.219920" lon="8.829027">
<ele>405.5</ele>
<time>2003-06-13T10:50:02Z</time>
<speed>1.1</speed>
</trkpt>
<trkpt lat="47.219964" lon="8.828955">
<ele>405.1</ele>
<time>2003-06-13T10:50:07Z</time>
<speed>1.1</speed>
</trkpt>
<trkpt lat="47.220009" lon="8.828869">
<ele>404.6</ele>
<time>2003-06-13T10:50:12Z</time>
<speed>1.7</speed>
</trkpt>
<trkpt lat="47.220060" lon="8.828784">
<ele>404.7</ele>
<time>2003-06-13T10:50:17Z</time>
<speed>1.4</speed>
</trkpt>
<trkpt lat="47.220091" lon="8.828710">
<ele>404.2</ele>
<time>2003-06-13T10:50:22Z</time>
<speed>1.4</speed>
</trkpt>
<trkpt lat="47.220116" lon="8.828634">
<ele>404.4</ele>
<time>2003-06-13T10:50:27Z</time>
<speed>0.8</speed>
</trkpt>
<trkpt lat="47.220128" lon="8.828556">
<ele>404.5</ele>
<time>2003-06-13T10:50:32Z</time>
<speed>1.4</speed>
</trkpt>
<trkpt lat="47.220152" lon="8.828492">
<ele>404.8</ele>
<time>2003-06-13T10:50:37Z</time>
<speed>0.8</speed>
</trkpt>
<trkpt lat="47.220182" lon="8.828431">
<ele>404.4</ele>
<time>2003-06-13T10:50:42Z</time>
<speed>1.1</speed>
</trkpt>
<trkpt lat="47.220220" lon="8.828357">
<ele>404.6</ele>
<time>2003-06-13T10:50:47Z</time>
<speed>1.1</speed>
</trkpt>
<trkpt lat="47.220257" lon="8.828283">
<ele>404.9</ele>
<time>2003-06-13T10:50:52Z</time>
<speed>1.7</speed>
</trkpt>
<trkpt lat="47.220285" lon="8.828248">
<ele>404.7</ele>
<time>2003-06-13T10:50:57Z</time>
<speed>0.8</speed>
</trkpt>
<trkpt lat="47.220314" lon="8.828197">
<ele>405.8</ele>
<time>2003-06-13T10:51:02Z</time>
<speed>0.8</speed>
</trkpt>
<trkpt lat="47.220357" lon="8.828138">
<ele>405.5</ele>
<time>2003-06-13T10:51:07Z</time>
<speed>1.4</speed>
</trkpt>
<trkpt lat="47.220399" lon="8.828092">
<ele>405.2</ele>
<time>2003-06-13T10:51:12Z</time>
<speed>1.1</speed>
</trkpt>
<trkpt lat="47.220436" lon="8.828031">
<ele>405.6</ele>
<time>2003-06-13T10:51:17Z</time>
<speed>1.1</speed>
</trkpt>
<trkpt lat="47.220478" lon="8.827985">
<ele>405.3</ele>
<time>2003-06-13T10:51:22Z</time>
<speed>1.1</speed>
</trkpt>
<trkpt lat="47.220527" lon="8.827926">
<ele>405.7</ele>
<time>2003-06-13T10:51:27Z</time>
<speed>1.1</speed>
</trkpt>
<trkpt lat="47.220569" lon="8.827880">
<ele>405.5</ele>
<time>2003-06-13T10:51:32Z</time>
<speed>1.1</speed>
</trkpt>
<trkpt lat="47.220619" lon="8.827807">
<ele>405.8</ele>
<time>2003-06-13T10:51:37Z</time>
<speed>1.1</speed>
</trkpt>
<trkpt lat="47.220668" lon="8.827748">
<ele>406.2</ele>
<time>2003-06-13T10:51:42Z</time>
<speed>1.1</speed>
</trkpt>
<trkpt lat="47.220730" lon="8.827693">
<ele>405.3</ele>
<time>2003-06-13T10:51:47Z</time>
<speed>1.4</speed>
</trkpt>
<trkpt lat="47.220755" lon="8.827617">
<ele>405.5</ele>
<time>2003-06-13T10:51:52Z</time>
<speed>0.8</speed>
</trkpt>
<trkpt lat="47.220804" lon="8.827558">
<ele>405.9</ele>
<time>2003-06-13T10:51:57Z</time>
<speed>1.4</speed>
</trkpt>
<trkpt lat="47.220848" lon="8.827486">
<ele>405.4</ele>
<time>2003-06-13T10:52:02Z</time>
<speed>1.4</speed>
</trkpt>
<trkpt lat="47.220898" lon="8.827413">
<ele>405.7</ele>
<time>2003-06-13T10:52:07Z</time>
<speed>1.4</speed>
</trkpt>
<trkpt lat="47.220933" lon="8.827365">
<ele>406.2</ele>
<time>2003-06-13T10:52:12Z</time>
<speed>1.1</speed>
</trkpt>
<trkpt lat="47.220976" lon="8.827306">
<ele>405.8</ele>
<time>2003-06-13T10:52:17Z</time>
<speed>1.1</speed>
</trkpt>
<trkpt lat="47.221025" lon="8.827247">
<ele>406.2</ele>
<time>2003-06-13T10:52:22Z</time>
<speed>1.1</speed>
</trkpt>
<trkpt lat="47.221068" lon="8.827188">
<ele>405.9</ele>
<time>2003-06-13T10:52:27Z</time>
<speed>1.1</speed>
</trkpt>
<trkpt lat="47.221113" lon="8.827103">
<ele>405.4</ele>
<time>2003-06-13T10:52:32Z</time>
<speed>1.4</speed>
</trkpt>
<trkpt lat="47.221163" lon="8.827030">
<ele>405.6</ele>
<time>2003-06-13T10:52:37Z</time>
<speed>1.1</speed>
</trkpt>
<trkpt lat="47.221226" lon="8.826960">
<ele>406.0</ele>
<time>2003-06-13T10:52:42Z</time>
<speed>1.7</speed>
</trkpt>
<trkpt lat="47.221283" lon="8.826890">
<ele>405.6</ele>
<time>2003-06-13T10:52:47Z</time>
<speed>1.4</speed>
</trkpt>
<trkpt lat="47.221318" lon="8.826842">
<ele>406.1</ele>
<time>2003-06-13T10:52:52Z</time>
<speed>1.1</speed>
</trkpt>
<trkpt lat="47.221348" lon="8.826781">
<ele>405.7</ele>
<time>2003-06-13T10:52:57Z</time>
<speed>1.1</speed>
</trkpt>
<trkpt lat="47.221397" lon="8.826722">
<ele>406.1</ele>
<time>2003-06-13T10:53:02Z</time>
<speed>1.4</speed>
</trkpt>
<trkpt lat="47.221448" lon="8.826649">
<ele>406.4</ele>
<time>2003-06-13T10:53:07Z</time>
<speed>1.4</speed>
</trkpt>
<trkpt lat="47.221491" lon="8.826577">
<ele>405.9</ele>
<time>2003-06-13T10:53:12Z</time>
<speed>1.4</speed>
</trkpt>
<trkpt lat="47.221541" lon="8.826518">
<ele>406.3</ele>
<time>2003-06-13T10:53:17Z</time>
<speed>1.4</speed>
</trkpt>
<trkpt lat="47.221584" lon="8.826459">
<ele>406.0</ele>
<time>2003-06-13T10:53:22Z</time>
<speed>1.4</speed>
</trkpt>
<trkpt lat="47.221633" lon="8.826400">
<ele>406.4</ele>
<time>2003-06-13T10:53:27Z</time>
<speed>1.4</speed>
</trkpt>
<trkpt lat="47.221677" lon="8.826328">
<ele>406.0</ele>
<time>2003-06-13T10:53:32Z</time>
<speed>1.4</speed>
</trkpt>
<trkpt lat="47.221721" lon="8.826255">
<ele>405.5</ele>
<time>2003-06-13T10:53:37Z</time>
<speed>1.4</speed>
</trkpt>
<trkpt lat="47.221771" lon="8.826183">
<ele>405.8</ele>
<time>2003-06-13T10:53:42Z</time>
<speed>1.4</speed>
</trkpt>
<trkpt lat="47.221807" lon="8.826122">
<ele>406.2</ele>
<time>2003-06-13T10:53:47Z</time>
<speed>1.1</speed>
</trkpt>
<trkpt lat="47.221838" lon="8.826048">
<ele>405.7</ele>
<time>2003-06-13T10:53:52Z</time>
<speed>1.1</speed>
</trkpt>
<trkpt lat="47.221870" lon="8.825959">
<ele>406.5</ele>
<time>2003-06-13T10:53:57Z</time>
<speed>1.4</speed>
</trkpt>
<trkpt lat="47.221914" lon="8.825886">
<ele>406.0</ele>
<time>2003-06-13T10:54:02Z</time>
<speed>1.4</speed>
</trkpt>
<trkpt lat="47.221953" lon="8.825799">
<ele>406.2</ele>
<time>2003-06-13T10:54:07Z</time>
<speed>1.4</speed>
</trkpt>
<trkpt lat="47.221977" lon="8.825736">
<ele>406.4</ele>
<time>2003-06-13T10:54:12Z</time>
<speed>0.8</speed>
</trkpt>
<trkpt lat="47.222002" lon="8.825647">
<ele>406.5</ele>
<time>2003-06-13T10:54:17Z</time>
<speed>1.1</speed>
</trkpt>
<trkpt lat="47.222020" lon="8.825583">
<ele>406.1</ele>
<time>2003-06-13T10:54:22Z</time>
<speed>1.1</speed>
</trkpt>
<trkpt lat="47.222034" lon="8.825479">
<ele>406.0</ele>
<time>2003-06-13T10:54:27Z</time>
<speed>1.4</speed>
</trkpt>
<trkpt lat="47.222054" lon="8.825388">
<ele>406.7</ele>
<time>2003-06-13T10:54:32Z</time>
<speed>1.1</speed>
</trkpt>
<trkpt lat="47.222072" lon="8.825311">
<ele>406.1</ele>
<time>2003-06-13T10:54:37Z</time>
<speed>1.1</speed>
</trkpt>
<trkpt lat="47.222091" lon="8.825235">
<ele>405.6</ele>
<time>2003-06-13T10:54:42Z</time>
<speed>1.4</speed>
</trkpt>
<trkpt lat="47.222098" lon="8.825142">
<ele>406.2</ele>
<time>2003-06-13T10:54:47Z</time>
<speed>1.1</speed>
</trkpt>
<trkpt lat="47.222118" lon="8.825039">
<ele>405.5</ele>
<time>2003-06-13T10:54:53Z</time>
<speed>1.1</speed>
</trkpt>
<trkpt lat="47.222138" lon="8.824948">
<ele>406.2</ele>
<time>2003-06-13T10:54:58Z</time>
<speed>1.4</speed>
</trkpt>
<trkpt lat="47.222151" lon="8.824857">
<ele>406.2</ele>
<time>2003-06-13T10:55:03Z</time>
<speed>1.1</speed>
</trkpt>
<trkpt lat="47.222154" lon="8.824818">
<ele>405.9</ele>
<time>2003-06-13T10:55:08Z</time>
<speed>0.6</speed>
</trkpt>
<trkpt lat="47.222154" lon="8.824818">
<ele>405.9</ele>
<time>2003-06-13T10:55:13Z</time>
<speed>0.0</speed>
</trkpt>
<trkpt lat="47.222151" lon="8.824777">
<ele>406.3</ele>
<time>2003-06-13T10:55:18Z</time>
<speed>0.8</speed>
</trkpt>
<trkpt lat="47.222144" lon="8.824694">
<ele>407.0</ele>
<time>2003-06-13T10:55:23Z</time>
<speed>1.1</speed>
</trkpt>
<trkpt lat="47.222138" lon="8.824601">
<ele>406.2</ele>
<time>2003-06-13T10:55:28Z</time>
<speed>1.1</speed>
</trkpt>
<trkpt lat="47.222152" lon="8.824496">
<ele>406.1</ele>
<time>2003-06-13T10:55:33Z</time>
<speed>1.7</speed>
</trkpt>
<trkpt lat="47.222161" lon="8.824377">
<ele>406.6</ele>
<time>2003-06-13T10:55:38Z</time>
<speed>1.4</speed>
</trkpt>
<trkpt lat="47.222142" lon="8.824295">
<ele>405.8</ele>
<time>2003-06-13T10:55:43Z</time>
<speed>1.4</speed>
</trkpt>
<trkpt lat="47.222135" lon="8.824212">
<ele>406.5</ele>
<time>2003-06-13T10:55:48Z</time>
<speed>0.8</speed>
</trkpt>
<trkpt lat="47.222141" lon="8.824134">
<ele>405.9</ele>
<time>2003-06-13T10:55:53Z</time>
<speed>1.1</speed>
</trkpt>
<trkpt lat="47.222160" lon="8.824043">
<ele>406.6</ele>
<time>2003-06-13T10:55:58Z</time>
<speed>1.1</speed>
</trkpt>
<trkpt lat="47.222172" lon="8.823965">
<ele>406.7</ele>
<time>2003-06-13T10:56:03Z</time>
<speed>0.8</speed>
</trkpt>
<trkpt lat="47.222178" lon="8.823886">
<ele>406.1</ele>
<time>2003-06-13T10:56:08Z</time>
<speed>1.1</speed>
</trkpt>
<trkpt lat="47.222205" lon="8.823784">
<ele>406.1</ele>
<time>2003-06-13T10:56:13Z</time>
<speed>1.4</speed>
</trkpt>
<trkpt lat="47.222218" lon="8.823693">
<ele>406.1</ele>
<time>2003-06-13T10:56:18Z</time>
<speed>1.1</speed>
</trkpt>
<trkpt lat="47.222245" lon="8.823590">
<ele>406.1</ele>
<time>2003-06-13T10:56:23Z</time>
<speed>1.4</speed>
</trkpt>
<trkpt lat="47.222256" lon="8.823525">
<ele>406.3</ele>
<time>2003-06-13T10:56:28Z</time>
<speed>0.8</speed>
</trkpt>
<trkpt lat="47.222258" lon="8.823419">
<ele>406.1</ele>
<time>2003-06-13T10:56:33Z</time>
<speed>1.4</speed>
</trkpt>
<trkpt lat="47.222272" lon="8.823314">
<ele>406.0</ele>
<time>2003-06-13T10:56:38Z</time>
<speed>1.1</speed>
</trkpt>
<trkpt lat="47.222284" lon="8.823236">
<ele>406.1</ele>
<time>2003-06-13T10:56:43Z</time>
<speed>1.1</speed>
</trkpt>
<trkpt lat="47.222298" lon="8.823145">
<ele>406.1</ele>
<time>2003-06-13T10:56:48Z</time>
<speed>0.8</speed>
</trkpt>
<trkpt lat="47.222301" lon="8.823106">
<ele>405.8</ele>
<time>2003-06-13T10:56:53Z</time>
<speed>0.0</speed>
</trkpt>
<trkpt lat="47.222307" lon="8.823106">
<ele>406.5</ele>
<time>2003-06-13T10:56:58Z</time>
<speed>0.0</speed>
</trkpt>
<trkpt lat="47.222309" lon="8.823079">
<ele>406.3</ele>
<time>2003-06-13T10:57:03Z</time>
<speed>0.0</speed>
</trkpt>
<trkpt lat="47.222310" lon="8.823066">
<ele>406.2</ele>
<time>2003-06-13T10:57:08Z</time>
<speed>0.3</speed>
</trkpt>
<trkpt lat="47.222314" lon="8.822999">
<ele>407.1</ele>
<time>2003-06-13T10:57:13Z</time>
<speed>0.6</speed>
</trkpt>
<trkpt lat="47.222333" lon="8.822923">
<ele>406.6</ele>
<time>2003-06-13T10:57:18Z</time>
<speed>1.1</speed>
</trkpt>
<trkpt lat="47.222351" lon="8.822845">
<ele>407.4</ele>
<time>2003-06-13T10:57:23Z</time>
<speed>0.8</speed>
</trkpt>
<trkpt lat="47.222357" lon="8.822764">
<ele>408.2</ele>
<time>2003-06-13T10:57:28Z</time>
<speed>1.1</speed>
</trkpt>
<trkpt lat="47.222377" lon="8.822675">
<ele>407.5</ele>
<time>2003-06-13T10:57:33Z</time>
<speed>1.1</speed>
</trkpt>
<trkpt lat="47.222381" lon="8.822608">
<ele>408.4</ele>
<time>2003-06-13T10:57:38Z</time>
<speed>0.3</speed>
</trkpt>
<trkpt lat="47.222390" lon="8.822584">
<ele>407.5</ele>
<time>2003-06-13T10:57:43Z</time>
<speed>0.0</speed>
</trkpt>
<trkpt lat="47.222397" lon="8.822586">
<ele>406.8</ele>
<time>2003-06-13T10:57:48Z</time>
<speed>0.0</speed>
</trkpt>
<trkpt lat="47.222398" lon="8.822573">
<ele>406.7</ele>
<time>2003-06-13T10:57:53Z</time>
<speed>0.6</speed>
</trkpt>
<trkpt lat="47.222408" lon="8.822520">
<ele>407.1</ele>
<time>2003-06-13T10:57:58Z</time>
<speed>0.8</speed>
</trkpt>
<trkpt lat="47.222440" lon="8.822433">
<ele>406.5</ele>
<time>2003-06-13T10:58:03Z</time>
<speed>1.7</speed>
</trkpt>
<trkpt lat="47.222456" lon="8.822335">
<ele>402.1</ele>
<time>2003-06-13T10:58:08Z</time>
<speed>1.4</speed>
</trkpt>
<trkpt lat="47.222494" lon="8.822248">
<ele>402.3</ele>
<time>2003-06-13T10:58:13Z</time>
<speed>1.1</speed>
</trkpt>
<trkpt lat="47.222525" lon="8.822173">
<ele>401.8</ele>
<time>2003-06-13T10:58:18Z</time>
<speed>1.4</speed>
</trkpt>
<trkpt lat="47.222557" lon="8.822099">
<ele>401.3</ele>
<time>2003-06-13T10:58:23Z</time>
<speed>1.4</speed>
</trkpt>
<trkpt lat="47.222599" lon="8.822038">
<ele>402.3</ele>
<time>2003-06-13T10:58:29Z</time>
<speed>0.8</speed>
</trkpt>
<trkpt lat="47.222630" lon="8.821977">
<ele>401.9</ele>
<time>2003-06-13T10:58:34Z</time>
<speed>0.6</speed>
</trkpt>
<trkpt lat="47.222630" lon="8.821883">
<ele>401.9</ele>
<time>2003-06-13T10:58:39Z</time>
<speed>0.8</speed>
</trkpt>
<trkpt lat="47.222645" lon="8.821766">
<ele>401.7</ele>
<time>2003-06-13T10:58:44Z</time>
<speed>1.1</speed>
</trkpt>
<trkpt lat="47.222661" lon="8.821649">
<ele>401.5</ele>
<time>2003-06-13T10:58:49Z</time>
<speed>1.1</speed>
</trkpt>
<trkpt lat="47.222674" lon="8.821557">
<ele>401.5</ele>
<time>2003-06-13T10:58:54Z</time>
<speed>1.1</speed>
</trkpt>
<trkpt lat="47.222681" lon="8.821451">
<ele>402.1</ele>
<time>2003-06-13T10:58:59Z</time>
<speed>1.1</speed>
</trkpt>
<trkpt lat="47.222668" lon="8.821369">
<ele>402.0</ele>
<time>2003-06-13T10:59:04Z</time>
<speed>0.8</speed>
</trkpt>
<trkpt lat="47.222670" lon="8.821262">
<ele>401.9</ele>
<time>2003-06-13T10:59:09Z</time>
<speed>1.1</speed>
</trkpt>
<trkpt lat="47.222669" lon="8.821182">
<ele>401.9</ele>
<time>2003-06-13T10:59:14Z</time>
<speed>0.8</speed>
</trkpt>
<trkpt lat="47.222682" lon="8.821104">
<ele>402.0</ele>
<time>2003-06-13T10:59:19Z</time>
<speed>0.6</speed>
</trkpt>
<trkpt lat="47.222688" lon="8.821010">
<ele>402.7</ele>
<time>2003-06-13T10:59:24Z</time>
<speed>0.6</speed>
</trkpt>
<trkpt lat="47.222676" lon="8.820915">
<ele>402.6</ele>
<time>2003-06-13T10:59:29Z</time>
<speed>1.1</speed>
</trkpt>
<trkpt lat="47.222670" lon="8.820820">
<ele>403.2</ele>
<time>2003-06-13T10:59:34Z</time>
<speed>1.1</speed>
</trkpt>
<trkpt lat="47.222672" lon="8.820713">
<ele>403.0</ele>
<time>2003-06-13T10:59:39Z</time>
<speed>0.8</speed>
</trkpt>
<trkpt lat="47.222671" lon="8.820633">
<ele>403.1</ele>
<time>2003-06-13T10:59:44Z</time>
<speed>1.1</speed>
</trkpt>
<trkpt lat="47.222683" lon="8.820568">
<ele>403.3</ele>
<time>2003-06-13T10:59:49Z</time>
<speed>0.6</speed>
</trkpt>
<trkpt lat="47.222681" lon="8.820500">
<ele>403.5</ele>
<time>2003-06-13T10:59:54Z</time>
<speed>0.8</speed>
</trkpt>
<trkpt lat="47.222668" lon="8.820418">
<ele>403.4</ele>
<time>2003-06-13T10:59:59Z</time>
<speed>0.6</speed>
</trkpt>
<trkpt lat="47.222670" lon="8.820312">
<ele>403.3</ele>
<time>2003-06-13T11:00:04Z</time>
<speed>0.8</speed>
</trkpt>
<trkpt lat="47.222666" lon="8.820190">
<ele>403.7</ele>
<time>2003-06-13T11:00:09Z</time>
<speed>1.1</speed>
</trkpt>
<trkpt lat="47.222646" lon="8.820106">
<ele>404.3</ele>
<time>2003-06-13T11:00:14Z</time>
<speed>0.8</speed>
</trkpt>
<trkpt lat="47.222627" lon="8.820023">
<ele>403.6</ele>
<time>2003-06-13T11:00:19Z</time>
<speed>0.8</speed>
</trkpt>
<trkpt lat="47.222627" lon="8.819930">
<ele>403.5</ele>
<time>2003-06-13T11:00:24Z</time>
<speed>0.8</speed>
</trkpt>
<trkpt lat="47.222602" lon="8.819846">
<ele>403.4</ele>
<time>2003-06-13T11:00:29Z</time>
<speed>1.1</speed>
</trkpt>
<trkpt lat="47.222583" lon="8.819748">
<ele>404.0</ele>
<time>2003-06-13T11:00:34Z</time>
<speed>1.4</speed>
</trkpt>
<trkpt lat="47.222572" lon="8.819640">
<ele>403.8</ele>
<time>2003-06-13T11:00:39Z</time>
<speed>1.1</speed>
</trkpt>
<trkpt lat="47.222567" lon="8.819547">
<ele>403.0</ele>
<time>2003-06-13T11:00:44Z</time>
<speed>0.8</speed>
</trkpt>
<trkpt lat="47.222566" lon="8.819466">
<ele>403.0</ele>
<time>2003-06-13T11:00:49Z</time>
<speed>1.1</speed>
</trkpt>
<trkpt lat="47.222553" lon="8.819384">
<ele>403.0</ele>
<time>2003-06-13T11:00:54Z</time>
<speed>0.8</speed>
</trkpt>
<trkpt lat="47.222554" lon="8.819291">
<ele>402.9</ele>
<time>2003-06-13T11:00:59Z</time>
<speed>0.6</speed>
</trkpt>
<trkpt lat="47.222546" lon="8.819223">
<ele>402.4</ele>
<time>2003-06-13T11:01:04Z</time>
<speed>0.6</speed>
</trkpt>
<trkpt lat="47.222533" lon="8.819141">
<ele>402.3</ele>
<time>2003-06-13T11:01:09Z</time>
<speed>0.6</speed>
</trkpt>
<trkpt lat="47.222540" lon="8.819048">
<ele>403.0</ele>
<time>2003-06-13T11:01:14Z</time>
<speed>0.8</speed>
</trkpt>
<trkpt lat="47.222523" lon="8.818924">
<ele>403.4</ele>
<time>2003-06-13T11:01:19Z</time>
<speed>0.8</speed>
</trkpt>
<trkpt lat="47.222531" lon="8.818818">
<ele>403.9</ele>
<time>2003-06-13T11:01:24Z</time>
<speed>0.8</speed>
</trkpt>
<trkpt lat="47.222514" lon="8.818694">
<ele>404.3</ele>
<time>2003-06-13T11:01:29Z</time>
<speed>1.1</speed>
</trkpt>
<trkpt lat="47.222501" lon="8.818612">
<ele>404.3</ele>
<time>2003-06-13T11:01:34Z</time>
<speed>0.8</speed>
</trkpt>
<trkpt lat="47.222503" lon="8.818506">
<ele>404.1</ele>
<time>2003-06-13T11:01:39Z</time>
<speed>0.6</speed>
</trkpt>
<trkpt lat="47.222517" lon="8.818401">
<ele>404.0</ele>
<time>2003-06-13T11:01:44Z</time>
<speed>0.8</speed>
</trkpt>
<trkpt lat="47.222504" lon="8.818319">
<ele>404.0</ele>
<time>2003-06-13T11:01:49Z</time>
<speed>0.6</speed>
</trkpt>
<trkpt lat="47.222523" lon="8.818228">
<ele>404.7</ele>
<time>2003-06-13T11:01:54Z</time>
<speed>0.6</speed>
</trkpt>
<trkpt lat="47.222534" lon="8.818143">
<ele>409.1</ele>
<time>2003-06-13T11:01:59Z</time>
<speed>0.6</speed>
</trkpt>
<trkpt lat="47.222533" lon="8.818059">
<ele>411.9</ele>
<time>2003-06-13T11:02:04Z</time>
<speed>0.8</speed>
</trkpt>
<trkpt lat="47.222520" lon="8.817977">
<ele>411.9</ele>
<time>2003-06-13T11:02:09Z</time>
<speed>0.8</speed>
</trkpt>
<trkpt lat="47.222495" lon="8.817879">
<ele>411.7</ele>
<time>2003-06-13T11:02:14Z</time>
<speed>0.8</speed>
</trkpt>
<trkpt lat="47.222521" lon="8.817790">
<ele>411.8</ele>
<time>2003-06-13T11:02:19Z</time>
<speed>0.8</speed>
</trkpt>
<trkpt lat="47.222534" lon="8.817701">
<ele>410.4</ele>
<time>2003-06-13T11:02:24Z</time>
<speed>1.1</speed>
</trkpt>
<trkpt lat="47.222572" lon="8.817628">
<ele>409.2</ele>
<time>2003-06-13T11:02:29Z</time>
<speed>1.1</speed>
</trkpt>
<trkpt lat="47.222597" lon="8.817554">
<ele>408.0</ele>
<time>2003-06-13T11:02:34Z</time>
<speed>1.4</speed>
</trkpt>
<trkpt lat="47.222621" lon="8.817491">
<ele>408.3</ele>
<time>2003-06-13T11:02:39Z</time>
<speed>1.1</speed>
</trkpt>
<trkpt lat="47.222656" lon="8.817460">
<ele>406.0</ele>
<time>2003-06-13T11:02:44Z</time>
<speed>1.4</speed>
</trkpt>
<trkpt lat="47.222693" lon="8.817401">
<ele>404.9</ele>
<time>2003-06-13T11:02:49Z</time>
<speed>1.4</speed>
</trkpt>
<trkpt lat="47.222749" lon="8.817344">
<ele>404.7</ele>
<time>2003-06-13T11:02:54Z</time>
<speed>1.1</speed>
</trkpt>
<trkpt lat="47.222784" lon="8.817311">
<ele>403.8</ele>
<time>2003-06-13T11:02:59Z</time>
<speed>1.1</speed>
</trkpt>
<trkpt lat="47.222771" lon="8.817213">
<ele>405.1</ele>
<time>2003-06-13T11:03:04Z</time>
<speed>0.8</speed>
</trkpt>
<trkpt lat="47.222790" lon="8.817137">
<ele>404.5</ele>
<time>2003-06-13T11:03:09Z</time>
<speed>0.8</speed>
</trkpt>
<trkpt lat="47.222765" lon="8.817037">
<ele>405.7</ele>
<time>2003-06-13T11:03:14Z</time>
<speed>1.1</speed>
</trkpt>
<trkpt lat="47.222726" lon="8.816951">
<ele>405.6</ele>
<time>2003-06-13T11:03:19Z</time>
<speed>1.1</speed>
</trkpt>
<trkpt lat="47.222687" lon="8.816878">
<ele>405.6</ele>
<time>2003-06-13T11:03:24Z</time>
<speed>0.8</speed>
</trkpt>
<trkpt lat="47.222673" lon="8.816808">
<ele>405.6</ele>
<time>2003-06-13T11:03:29Z</time>
<speed>1.1</speed>
</trkpt>
<trkpt lat="47.222672" lon="8.816726">
<ele>407.1</ele>
<time>2003-06-13T11:03:34Z</time>
<speed>0.8</speed>
</trkpt>
<trkpt lat="47.222672" lon="8.816646">
<ele>407.1</ele>
<time>2003-06-13T11:03:39Z</time>
<speed>0.8</speed>
</trkpt>
<trkpt lat="47.222684" lon="8.816568">
<ele>407.3</ele>
<time>2003-06-13T11:03:44Z</time>
<speed>1.1</speed>
</trkpt>
<trkpt lat="47.222715" lon="8.816493">
<ele>406.8</ele>
<time>2003-06-13T11:03:49Z</time>
<speed>1.4</speed>
</trkpt>
<trkpt lat="47.222739" lon="8.816430">
<ele>407.0</ele>
<time>2003-06-13T11:03:54Z</time>
<speed>1.1</speed>
</trkpt>
<trkpt lat="47.222757" lon="8.816367">
<ele>406.6</ele>
<time>2003-06-13T11:03:59Z</time>
<speed>1.1</speed>
</trkpt>
<trkpt lat="47.222787" lon="8.816306">
<ele>406.2</ele>
<time>2003-06-13T11:04:04Z</time>
<speed>1.1</speed>
</trkpt>
<trkpt lat="47.222830" lon="8.816247">
<ele>405.8</ele>
<time>2003-06-13T11:04:09Z</time>
<speed>1.1</speed>
</trkpt>
<trkpt lat="47.222873" lon="8.816187">
<ele>405.5</ele>
<time>2003-06-13T11:04:14Z</time>
<speed>1.1</speed>
</trkpt>
<trkpt lat="47.222910" lon="8.816113">
<ele>405.8</ele>
<time>2003-06-13T11:04:19Z</time>
<speed>1.1</speed>
</trkpt>
<trkpt lat="47.222965" lon="8.816069">
<ele>405.6</ele>
<time>2003-06-13T11:04:24Z</time>
<speed>1.1</speed>
</trkpt>
<trkpt lat="47.222988" lon="8.816019">
<ele>406.0</ele>
<time>2003-06-13T11:04:29Z</time>
<speed>0.8</speed>
</trkpt>
<trkpt lat="47.223011" lon="8.815969">
<ele>406.3</ele>
<time>2003-06-13T11:04:34Z</time>
<speed>0.8</speed>
</trkpt>
<trkpt lat="47.223024" lon="8.815958">
<ele>406.3</ele>
<time>2003-06-13T11:04:39Z</time>
<speed>0.0</speed>
</trkpt>
<trkpt lat="47.223024" lon="8.815958">
<ele>406.3</ele>
<time>2003-06-13T11:04:44Z</time>
<speed>0.0</speed>
</trkpt>
<trkpt lat="47.223024" lon="8.815958">
<ele>406.3</ele>
<time>2003-06-13T11:04:49Z</time>
<speed>0.0</speed>
</trkpt>
<trkpt lat="47.223018" lon="8.815958">
<ele>405.6</ele>
<time>2003-06-13T11:04:54Z</time>
<speed>0.0</speed>
</trkpt>
<trkpt lat="47.223024" lon="8.815958">
<ele>406.3</ele>
<time>2003-06-13T11:04:59Z</time>
<speed>0.0</speed>
</trkpt>
<trkpt lat="47.223024" lon="8.815958">
<ele>406.3</ele>
<time>2003-06-13T11:05:04Z</time>
<speed>0.0</speed>
</trkpt>
<trkpt lat="47.223024" lon="8.815956">
<ele>407.7</ele>
<time>2003-06-13T11:05:09Z</time>
<speed>0.0</speed>
</trkpt>
<trkpt lat="47.223041" lon="8.815967">
<ele>411.4</ele>
<time>2003-06-13T11:05:14Z</time>
<speed>0.0</speed>
</trkpt>
<trkpt lat="47.223035" lon="8.815950">
<ele>413.4</ele>
<time>2003-06-13T11:05:19Z</time>
<speed>0.0</speed>
</trkpt>
<trkpt lat="47.223028" lon="8.815948">
<ele>414.1</ele>
<time>2003-06-13T11:05:24Z</time>
<speed>0.0</speed>
</trkpt>
<trkpt lat="47.223029" lon="8.815933">
<ele>415.4</ele>
<time>2003-06-13T11:05:29Z</time>
<speed>0.0</speed>
</trkpt>
<trkpt lat="47.223029" lon="8.815933">
<ele>415.4</ele>
<time>2003-06-13T11:05:34Z</time>
<speed>0.0</speed>
</trkpt>
<trkpt lat="47.223029" lon="8.815933">
<ele>415.4</ele>
<time>2003-06-13T11:05:39Z</time>
<speed>0.0</speed>
</trkpt>
<trkpt lat="47.223028" lon="8.815931">
<ele>416.8</ele>
<time>2003-06-13T11:05:44Z</time>
<speed>0.0</speed>
</trkpt>
<trkpt lat="47.223028" lon="8.815931">
<ele>416.8</ele>
<time>2003-06-13T11:05:49Z</time>
<speed>0.0</speed>
</trkpt>
<trkpt lat="47.223028" lon="8.815931">
<ele>416.8</ele>
<time>2003-06-13T11:05:54Z</time>
<speed>0.0</speed>
</trkpt>
<trkpt lat="47.223028" lon="8.815931">
<ele>416.8</ele>
<time>2003-06-13T11:05:59Z</time>
<speed>0.0</speed>
</trkpt>
<trkpt lat="47.223028" lon="8.815931">
<ele>416.8</ele>
<time>2003-06-13T11:06:04Z</time>
<speed>0.0</speed>
</trkpt>
<trkpt lat="47.223028" lon="8.815931">
<ele>416.8</ele>
<time>2003-06-13T11:06:09Z</time>
<speed>0.0</speed>
</trkpt>
<trkpt lat="47.223028" lon="8.815931">
<ele>416.8</ele>
<time>2003-06-13T11:06:14Z</time>
<speed>0.0</speed>
</trkpt>
<trkpt lat="47.223039" lon="8.815959">
<ele>417.0</ele>
<time>2003-06-13T11:06:19Z</time>
<speed>0.0</speed>
</trkpt>
<trkpt lat="47.223039" lon="8.815959">
<ele>417.0</ele>
<time>2003-06-13T11:06:24Z</time>
<speed>0.0</speed>
</trkpt>
<trkpt lat="47.223047" lon="8.815948">
<ele>416.3</ele>
<time>2003-06-13T11:06:29Z</time>
<speed>0.3</speed>
</trkpt>
<trkpt lat="47.223079" lon="8.815877">
<ele>413.0</ele>
<time>2003-06-13T11:06:34Z</time>
<speed>0.6</speed>
</trkpt>
<trkpt lat="47.223116" lon="8.815820">
<ele>410.5</ele>
<time>2003-06-13T11:06:39Z</time>
<speed>1.1</speed>
</trkpt>
<trkpt lat="47.223164" lon="8.815774">
<ele>411.0</ele>
<time>2003-06-13T11:06:44Z</time>
<speed>0.6</speed>
</trkpt>
<trkpt lat="47.223206" lon="8.815728">
<ele>410.8</ele>
<time>2003-06-13T11:06:49Z</time>
<speed>0.8</speed>
</trkpt>
<trkpt lat="47.223249" lon="8.815669">
<ele>410.4</ele>
<time>2003-06-13T11:06:54Z</time>
<speed>1.1</speed>
</trkpt>
<trkpt lat="47.223272" lon="8.815621">
<ele>409.4</ele>
<time>2003-06-13T11:06:59Z</time>
<speed>1.1</speed>
</trkpt>
<trkpt lat="47.223314" lon="8.815575">
<ele>409.2</ele>
<time>2003-06-13T11:07:04Z</time>
<speed>1.1</speed>
</trkpt>
<trkpt lat="47.223374" lon="8.815529">
<ele>411.2</ele>
<time>2003-06-13T11:07:09Z</time>
<speed>1.4</speed>
</trkpt>
<trkpt lat="47.223422" lon="8.815482">
<ele>411.7</ele>
<time>2003-06-13T11:07:14Z</time>
<speed>1.4</speed>
</trkpt>
<trkpt lat="47.223477" lon="8.815436">
<ele>412.9</ele>
<time>2003-06-13T11:07:19Z</time>
<speed>1.1</speed>
</trkpt>
<trkpt lat="47.223524" lon="8.815405">
<ele>412.1</ele>
<time>2003-06-13T11:07:24Z</time>
<speed>0.8</speed>
</trkpt>
<trkpt lat="47.223578" lon="8.815374">
<ele>412.1</ele>
<time>2003-06-13T11:07:29Z</time>
<speed>0.8</speed>
</trkpt>
<trkpt lat="47.223626" lon="8.815328">
<ele>412.6</ele>
<time>2003-06-13T11:07:34Z</time>
<speed>1.1</speed>
</trkpt>
<trkpt lat="47.223672" lon="8.815310">
<ele>411.9</ele>
<time>2003-06-13T11:07:39Z</time>
<speed>1.4</speed>
</trkpt>
<trkpt lat="47.223713" lon="8.815277">
<ele>411.7</ele>
<time>2003-06-13T11:07:44Z</time>
<speed>1.1</speed>
</trkpt>
<trkpt lat="47.223767" lon="8.815246">
<ele>411.7</ele>
<time>2003-06-13T11:07:49Z</time>
<speed>0.8</speed>
</trkpt>
<trkpt lat="47.223808" lon="8.815200">
<ele>411.5</ele>
<time>2003-06-13T11:07:54Z</time>
<speed>1.1</speed>
</trkpt>
<trkpt lat="47.223857" lon="8.815154">
<ele>412.0</ele>
<time>2003-06-13T11:07:59Z</time>
<speed>0.8</speed>
</trkpt>
<trkpt lat="47.223911" lon="8.815110">
<ele>411.8</ele>
<time>2003-06-13T11:08:04Z</time>
<speed>1.1</speed>
</trkpt>
<trkpt lat="47.223955" lon="8.815037">
<ele>411.4</ele>
<time>2003-06-13T11:08:09Z</time>
<speed>1.1</speed>
</trkpt>
<trkpt lat="47.223992" lon="8.814976">
<ele>411.7</ele>
<time>2003-06-13T11:08:14Z</time>
<speed>1.1</speed>
</trkpt>
<trkpt lat="47.223991" lon="8.814896">
<ele>411.7</ele>
<time>2003-06-13T11:08:19Z</time>
<speed>1.1</speed>
</trkpt>
<trkpt lat="47.224004" lon="8.814820">
<ele>410.5</ele>
<time>2003-06-13T11:08:24Z</time>
<speed>1.1</speed>
</trkpt>
<trkpt lat="47.224011" lon="8.814728">
<ele>409.7</ele>
<time>2003-06-13T11:08:29Z</time>
<speed>1.1</speed>
</trkpt>
<trkpt lat="47.224030" lon="8.814639">
<ele>409.1</ele>
<time>2003-06-13T11:08:34Z</time>
<speed>1.1</speed>
</trkpt>
<trkpt lat="47.224037" lon="8.814561">
<ele>408.4</ele>
<time>2003-06-13T11:08:39Z</time>
<speed>1.1</speed>
</trkpt>
<trkpt lat="47.224030" lon="8.814481">
<ele>407.7</ele>
<time>2003-06-13T11:08:44Z</time>
<speed>1.1</speed>
</trkpt>
<trkpt lat="47.224010" lon="8.814396">
<ele>408.4</ele>
<time>2003-06-13T11:08:49Z</time>
<speed>1.1</speed>
</trkpt>
<trkpt lat="47.223991" lon="8.814314">
<ele>407.6</ele>
<time>2003-06-13T11:08:54Z</time>
<speed>1.1</speed>
</trkpt>
<trkpt lat="47.223965" lon="8.814229">
<ele>407.6</ele>
<time>2003-06-13T11:08:59Z</time>
<speed>1.1</speed>
</trkpt>
<trkpt lat="47.223893" lon="8.814178">
<ele>406.9</ele>
<time>2003-06-13T11:09:04Z</time>
<speed>0.8</speed>
</trkpt>
<trkpt lat="47.223846" lon="8.814118">
<ele>406.2</ele>
<time>2003-06-13T11:09:09Z</time>
<speed>1.1</speed>
</trkpt>
<trkpt lat="47.223813" lon="8.814045">
<ele>406.9</ele>
<time>2003-06-13T11:09:14Z</time>
<speed>1.1</speed>
</trkpt>
<trkpt lat="47.223773" lon="8.813984">
<ele>407.0</ele>
<time>2003-06-13T11:09:19Z</time>
<speed>1.1</speed>
</trkpt>
<trkpt lat="47.223734" lon="8.813898">
<ele>406.8</ele>
<time>2003-06-13T11:09:24Z</time>
<speed>1.1</speed>
</trkpt>
<trkpt lat="47.223695" lon="8.813825">
<ele>406.8</ele>
<time>2003-06-13T11:09:29Z</time>
<speed>1.4</speed>
</trkpt>
<trkpt lat="47.223669" lon="8.813740">
<ele>406.7</ele>
<time>2003-06-13T11:09:34Z</time>
<speed>1.1</speed>
</trkpt>
<trkpt lat="47.223644" lon="8.813643">
<ele>406.5</ele>
<time>2003-06-13T11:09:40Z</time>
<speed>1.1</speed>
</trkpt>
<trkpt lat="47.223619" lon="8.813559">
<ele>406.5</ele>
<time>2003-06-13T11:09:45Z</time>
<speed>0.8</speed>
</trkpt>
<trkpt lat="47.223585" lon="8.813500">
<ele>405.8</ele>
<time>2003-06-13T11:09:50Z</time>
<speed>1.1</speed>
</trkpt>
<trkpt lat="47.223565" lon="8.813431">
<ele>405.2</ele>
<time>2003-06-13T11:09:55Z</time>
<speed>1.1</speed>
</trkpt>
<trkpt lat="47.223575" lon="8.813379">
<ele>405.5</ele>
<time>2003-06-13T11:10:00Z</time>
<speed>0.6</speed>
</trkpt>
<trkpt lat="47.223604" lon="8.813331">
<ele>405.2</ele>
<time>2003-06-13T11:10:05Z</time>
<speed>0.8</speed>
</trkpt>
<trkpt lat="47.223666" lon="8.813274">
<ele>405.7</ele>
<time>2003-06-13T11:10:10Z</time>
<speed>1.1</speed>
</trkpt>
<trkpt lat="47.223701" lon="8.813240">
<ele>404.8</ele>
<time>2003-06-13T11:10:15Z</time>
<speed>0.8</speed>
</trkpt>
<trkpt lat="47.223756" lon="8.813277">
<ele>404.6</ele>
<time>2003-06-13T11:10:20Z</time>
<speed>1.1</speed>
</trkpt>
<trkpt lat="47.223803" lon="8.813324">
<ele>405.2</ele>
<time>2003-06-13T11:10:25Z</time>
<speed>1.1</speed>
</trkpt>
<trkpt lat="47.223850" lon="8.813384">
<ele>405.9</ele>
<time>2003-06-13T11:10:30Z</time>
<speed>1.1</speed>
</trkpt>
<trkpt lat="47.223884" lon="8.813429">
<ele>406.4</ele>
<time>2003-06-13T11:10:35Z</time>
<speed>1.1</speed>
</trkpt>
<trkpt lat="47.223924" lon="8.813488">
<ele>407.7</ele>
<time>2003-06-13T11:10:40Z</time>
<speed>0.8</speed>
</trkpt>
<trkpt lat="47.223954" lon="8.813520">
<ele>407.4</ele>
<time>2003-06-13T11:10:45Z</time>
<speed>0.6</speed>
</trkpt>
<trkpt lat="47.223960" lon="8.813520">
<ele>408.1</ele>
<time>2003-06-13T11:10:50Z</time>
<speed>0.0</speed>
</trkpt>
<trkpt lat="47.223960" lon="8.813520">
<ele>408.1</ele>
<time>2003-06-13T11:10:55Z</time>
<speed>0.0</speed>
</trkpt>
<trkpt lat="47.223960" lon="8.813520">
<ele>408.1</ele>
<time>2003-06-13T11:11:00Z</time>
<speed>0.0</speed>
</trkpt>
<trkpt lat="47.223960" lon="8.813520">
<ele>408.1</ele>
<time>2003-06-13T11:11:05Z</time>
<speed>0.0</speed>
</trkpt>
<trkpt lat="47.223960" lon="8.813520">
<ele>408.1</ele>
<time>2003-06-13T11:11:10Z</time>
<speed>0.0</speed>
</trkpt>
<trkpt lat="47.223960" lon="8.813520">
<ele>408.1</ele>
<time>2003-06-13T11:11:15Z</time>
<speed>0.0</speed>
</trkpt>
<trkpt lat="47.223960" lon="8.813520">
<ele>408.1</ele>
<time>2003-06-13T11:11:20Z</time>
<speed>0.0</speed>
</trkpt>
<trkpt lat="47.223960" lon="8.813520">
<ele>408.1</ele>
<time>2003-06-13T11:11:25Z</time>
<speed>0.0</speed>
</trkpt>
<trkpt lat="47.223960" lon="8.813520">
<ele>408.1</ele>
<time>2003-06-13T11:11:30Z</time>
<speed>0.0</speed>
</trkpt>
<trkpt lat="47.223960" lon="8.813520">
<ele>408.1</ele>
<time>2003-06-13T11:11:35Z</time>
<speed>0.0</speed>
</trkpt>
<trkpt lat="47.223962" lon="8.813509">
<ele>406.6</ele>
<time>2003-06-13T11:11:40Z</time>
<speed>0.0</speed>
</trkpt>
<trkpt lat="47.223962" lon="8.813509">
<ele>406.6</ele>
<time>2003-06-13T11:11:45Z</time>
<speed>0.0</speed>
</trkpt>
<trkpt lat="47.223962" lon="8.813509">
<ele>406.6</ele>
<time>2003-06-13T11:11:50Z</time>
<speed>0.0</speed>
</trkpt>
<trkpt lat="47.223954" lon="8.813520">
<ele>407.4</ele>
<time>2003-06-13T11:11:55Z</time>
<speed>0.6</speed>
</trkpt>
<trkpt lat="47.223968" lon="8.813589">
<ele>407.3</ele>
<time>2003-06-13T11:12:00Z</time>
<speed>1.4</speed>
</trkpt>
<trkpt lat="47.224021" lon="8.813651">
<ele>407.3</ele>
<time>2003-06-13T11:12:05Z</time>
<speed>1.4</speed>
</trkpt>
<trkpt lat="47.224074" lon="8.813714">
<ele>407.3</ele>
<time>2003-06-13T11:12:10Z</time>
<speed>1.4</speed>
</trkpt>
<trkpt lat="47.224127" lon="8.813776">
<ele>407.3</ele>
<time>2003-06-13T11:12:15Z</time>
<speed>1.4</speed>
</trkpt>
<trkpt lat="47.224179" lon="8.813851">
<ele>407.4</ele>
<time>2003-06-13T11:12:20Z</time>
<speed>1.4</speed>
</trkpt>
<trkpt lat="47.224226" lon="8.813912">
<ele>408.0</ele>
<time>2003-06-13T11:12:25Z</time>
<speed>1.4</speed>
</trkpt>
<trkpt lat="47.224279" lon="8.813974">
<ele>408.0</ele>
<time>2003-06-13T11:12:30Z</time>
<speed>1.1</speed>
</trkpt>
<trkpt lat="47.224333" lon="8.814023">
<ele>407.9</ele>
<time>2003-06-13T11:12:35Z</time>
<speed>1.4</speed>
</trkpt>
<trkpt lat="47.224391" lon="8.814101">
<ele>407.4</ele>
<time>2003-06-13T11:12:40Z</time>
<speed>1.4</speed>
</trkpt>
<trkpt lat="47.224444" lon="8.814163">
<ele>407.3</ele>
<time>2003-06-13T11:12:45Z</time>
<speed>1.4</speed>
</trkpt>
<trkpt lat="47.224504" lon="8.814227">
<ele>406.7</ele>
<time>2003-06-13T11:12:50Z</time>
<speed>1.7</speed>
</trkpt>
<trkpt lat="47.224557" lon="8.814289">
<ele>406.7</ele>
<time>2003-06-13T11:12:55Z</time>
<speed>1.4</speed>
</trkpt>
<trkpt lat="47.224609" lon="8.814365">
<ele>406.8</ele>
<time>2003-06-13T11:13:00Z</time>
<speed>1.1</speed>
</trkpt>
<trkpt lat="47.224649" lon="8.814425">
<ele>406.7</ele>
<time>2003-06-13T11:13:05Z</time>
<speed>1.1</speed>
</trkpt>
<trkpt lat="47.224682" lon="8.814496">
<ele>407.4</ele>
<time>2003-06-13T11:13:10Z</time>
<speed>0.6</speed>
</trkpt>
<trkpt lat="47.224689" lon="8.814498">
<ele>406.7</ele>
<time>2003-06-13T11:13:15Z</time>
<speed>0.0</speed>
</trkpt>
<trkpt lat="47.224695" lon="8.814498">
<ele>407.5</ele>
<time>2003-06-13T11:13:20Z</time>
<speed>0.6</speed>
</trkpt>
<trkpt lat="47.224726" lon="8.814518">
<ele>407.0</ele>
<time>2003-06-13T11:13:25Z</time>
<speed>0.0</speed>
</trkpt>
<trkpt lat="47.224725" lon="8.814531">
<ele>407.1</ele>
<time>2003-06-13T11:13:30Z</time>
<speed>0.3</speed>
</trkpt>
<trkpt lat="47.224732" lon="8.814600">
<ele>406.3</ele>
<time>2003-06-13T11:13:35Z</time>
<speed>1.4</speed>
</trkpt>
<trkpt lat="47.224744" lon="8.814708">
<ele>406.5</ele>
<time>2003-06-13T11:13:40Z</time>
<speed>1.4</speed>
</trkpt>
<trkpt lat="47.224750" lon="8.814804">
<ele>405.9</ele>
<time>2003-06-13T11:13:45Z</time>
<speed>1.4</speed>
</trkpt>
<trkpt lat="47.224775" lon="8.814903">
<ele>404.7</ele>
<time>2003-06-13T11:13:50Z</time>
<speed>1.4</speed>
</trkpt>
<trkpt lat="47.224787" lon="8.814998">
<ele>404.8</ele>
<time>2003-06-13T11:13:55Z</time>
<speed>1.1</speed>
</trkpt>
<trkpt lat="47.224800" lon="8.815081">
<ele>404.8</ele>
<time>2003-06-13T11:14:00Z</time>
<speed>1.4</speed>
</trkpt>
<trkpt lat="47.224831" lon="8.815178">
<ele>405.8</ele>
<time>2003-06-13T11:14:05Z</time>
<speed>1.4</speed>
</trkpt>
<trkpt lat="47.224877" lon="8.815254">
<ele>405.1</ele>
<time>2003-06-13T11:14:10Z</time>
<speed>1.4</speed>
</trkpt>
<trkpt lat="47.224922" lon="8.815327">
<ele>405.9</ele>
<time>2003-06-13T11:14:15Z</time>
<speed>1.4</speed>
</trkpt>
<trkpt lat="47.224975" lon="8.815389">
<ele>405.9</ele>
<time>2003-06-13T11:14:20Z</time>
<speed>1.1</speed>
</trkpt>
<trkpt lat="47.225040" lon="8.815373">
<ele>406.0</ele>
<time>2003-06-13T11:14:25Z</time>
<speed>1.4</speed>
</trkpt>
<trkpt lat="47.225110" lon="8.815370">
<ele>406.9</ele>
<time>2003-06-13T11:14:30Z</time>
<speed>1.1</speed>
</trkpt>
<trkpt lat="47.225175" lon="8.815367">
<ele>407.2</ele>
<time>2003-06-13T11:14:35Z</time>
<speed>1.4</speed>
</trkpt>
<trkpt lat="47.225242" lon="8.815406">
<ele>407.0</ele>
<time>2003-06-13T11:14:40Z</time>
<speed>1.1</speed>
</trkpt>
<trkpt lat="47.225295" lon="8.815468">
<ele>407.0</ele>
<time>2003-06-13T11:14:45Z</time>
<speed>1.4</speed>
</trkpt>
<trkpt lat="47.225349" lon="8.815515">
<ele>408.3</ele>
<time>2003-06-13T11:14:50Z</time>
<speed>1.1</speed>
</trkpt>
<trkpt lat="47.225376" lon="8.815586">
<ele>408.3</ele>
<time>2003-06-13T11:14:55Z</time>
<speed>0.8</speed>
</trkpt>
<trkpt lat="47.225393" lon="8.815617">
<ele>407.9</ele>
<time>2003-06-13T11:15:00Z</time>
<speed>0.0</speed>
</trkpt>
<trkpt lat="47.225398" lon="8.815630">
<ele>408.7</ele>
<time>2003-06-13T11:15:05Z</time>
<speed>0.0</speed>
</trkpt>
<trkpt lat="47.225398" lon="8.815630">
<ele>408.7</ele>
<time>2003-06-13T11:15:10Z</time>
<speed>0.0</speed>
</trkpt>
<trkpt lat="47.225398" lon="8.815630">
<ele>408.7</ele>
<time>2003-06-13T11:15:15Z</time>
<speed>0.0</speed>
</trkpt>
<trkpt lat="47.225398" lon="8.815630">
<ele>408.7</ele>
<time>2003-06-13T11:15:20Z</time>
<speed>0.0</speed>
</trkpt>
<trkpt lat="47.225398" lon="8.815630">
<ele>408.7</ele>
<time>2003-06-13T11:15:25Z</time>
<speed>0.0</speed>
</trkpt>
<trkpt lat="47.225398" lon="8.815630">
<ele>408.7</ele>
<time>2003-06-13T11:15:30Z</time>
<speed>0.0</speed>
</trkpt>
<trkpt lat="47.225404" lon="8.815630">
<ele>409.5</ele>
<time>2003-06-13T11:15:35Z</time>
<speed>0.0</speed>
</trkpt>
<trkpt lat="47.225415" lon="8.815658">
<ele>409.7</ele>
<time>2003-06-13T11:15:40Z</time>
<speed>0.6</speed>
</trkpt>
<trkpt lat="47.225456" lon="8.815705">
<ele>409.6</ele>
<time>2003-06-13T11:15:45Z</time>
<speed>0.8</speed>
</trkpt>
<trkpt lat="47.225492" lon="8.815737">
<ele>410.0</ele>
<time>2003-06-13T11:15:50Z</time>
<speed>1.1</speed>
</trkpt>
<trkpt lat="47.225540" lon="8.815771">
<ele>410.4</ele>
<time>2003-06-13T11:15:55Z</time>
<speed>0.8</speed>
</trkpt>
<trkpt lat="47.225595" lon="8.815805">
<ele>411.6</ele>
<time>2003-06-13T11:16:00Z</time>
<speed>0.8</speed>
</trkpt>
<trkpt lat="47.225638" lon="8.815825">
<ele>412.6</ele>
<time>2003-06-13T11:16:05Z</time>
<speed>0.8</speed>
</trkpt>
<trkpt lat="47.225687" lon="8.815842">
<ele>415.8</ele>
<time>2003-06-13T11:16:10Z</time>
<speed>0.8</speed>
</trkpt>
<trkpt lat="47.225733" lon="8.815883">
<ele>420.6</ele>
<time>2003-06-13T11:16:15Z</time>
<speed>0.3</speed>
</trkpt>
<trkpt lat="47.225762" lon="8.815911">
<ele>423.1</ele>
<time>2003-06-13T11:16:20Z</time>
<speed>0.3</speed>
</trkpt>
<trkpt lat="47.225784" lon="8.815874">
<ele>423.5</ele>
<time>2003-06-13T11:16:25Z</time>
<speed>0.8</speed>
</trkpt>
<trkpt lat="47.225787" lon="8.815835">
<ele>423.2</ele>
<time>2003-06-13T11:16:30Z</time>
<speed>0.0</speed>
</trkpt>
<trkpt lat="47.225783" lon="8.815809">
<ele>422.3</ele>
<time>2003-06-13T11:16:35Z</time>
<speed>0.0</speed>
</trkpt>
<trkpt lat="47.225783" lon="8.815809">
<ele>422.3</ele>
<time>2003-06-13T11:16:40Z</time>
<speed>0.0</speed>
</trkpt>
<trkpt lat="47.225783" lon="8.815809">
<ele>422.3</ele>
<time>2003-06-13T11:16:45Z</time>
<speed>0.0</speed>
</trkpt>
<trkpt lat="47.225810" lon="8.815787">
<ele>422.2</ele>
<time>2003-06-13T11:16:50Z</time>
<speed>0.8</speed>
</trkpt>
</trkseg>
</trk>
</gpx>
